<?xml version="1.0" encoding="UTF-8"?>
<gpx version="1.1" creator="https://www.youtrack.es" xsi:schemaLocation="http://www.topografix.com/GPX/1/1 http://www.topografix.com/GPX/1/1/gpx.xsd http://www.garmin.com/xmlschemas/GpxExtensions/v3 http://www.garmin.com/xmlschemas/GpxExtensionsv3.xsd http://www.garmin.com/xmlschemas/TrackPointExtension/v1 http://www.garmin.com/xmlschemas/TrackPointExtensionv1.xsd" xmlns:gpxtpx="http://www.garmin.com/xmlschemas/TrackPointExtension/v1" xmlns:gpxx="http://www.garmin.com/xmlschemas/GpxExtensions/v3" xmlns:xsi="http://www.w3.org/2001/XMLSchema-instance">
  <metadata>
    <link href="https://www.youtrack.es">
      <text>YouTrack.es</text>
    </link>
    <time>2026-05-08T01:14:00Z</time>
  </metadata>
  <trk>
    <src>https://www.youtrack.es</src>
    <link href="https://www.youtrack.es/ruta/26107-kampenwand-talstation-bergstation">
      <text>YouTrack.es</text>
    </link>
    <trkseg>
      <trkpt lat="47.764945" lon="12.325079">
        <ele>619.247775</ele>
        <time>2021-09-26T05:51:42.681Z</time>
      </trkpt>
      <trkpt lat="47.764941" lon="12.325219">
        <ele>619.247775</ele>
        <time>2021-09-26T05:51:52.181Z</time>
      </trkpt>
      <trkpt lat="47.764955" lon="12.325083">
        <ele>619.247775</ele>
        <time>2021-09-26T05:52:16.999Z</time>
      </trkpt>
      <trkpt lat="47.764973" lon="12.324948">
        <ele>619.247775</ele>
        <time>2021-09-26T05:52:23.000Z</time>
      </trkpt>
      <trkpt lat="47.764996" lon="12.324816">
        <ele>619.247775</ele>
        <time>2021-09-26T05:52:30.000Z</time>
      </trkpt>
      <trkpt lat="47.764988" lon="12.324953">
        <ele>619.247775</ele>
        <time>2021-09-26T05:53:21.001Z</time>
      </trkpt>
      <trkpt lat="47.764996" lon="12.325098">
        <ele>619.247775</ele>
        <time>2021-09-26T05:53:27.001Z</time>
      </trkpt>
      <trkpt lat="47.764985" lon="12.325242">
        <ele>619.247775</ele>
        <time>2021-09-26T05:53:33.001Z</time>
      </trkpt>
      <trkpt lat="47.764943" lon="12.325373">
        <ele>619.247775</ele>
        <time>2021-09-26T05:53:40.002Z</time>
      </trkpt>
      <trkpt lat="47.764856" lon="12.325455">
        <ele>619.247775</ele>
        <time>2021-09-26T05:53:59.999Z</time>
      </trkpt>
      <trkpt lat="47.764769" lon="12.325515">
        <ele>619.266948</ele>
        <time>2021-09-26T05:54:12.999Z</time>
      </trkpt>
      <trkpt lat="47.764681" lon="12.325458">
        <ele>619.300042</ele>
        <time>2021-09-26T05:54:20.999Z</time>
      </trkpt>
      <trkpt lat="47.764643" lon="12.325330">
        <ele>619.332473</ele>
        <time>2021-09-26T05:54:34.000Z</time>
      </trkpt>
      <trkpt lat="47.764696" lon="12.325202">
        <ele>619.367316</ele>
        <time>2021-09-26T05:54:44.000Z</time>
      </trkpt>
      <trkpt lat="47.764794" lon="12.325162">
        <ele>619.402355</ele>
        <time>2021-09-26T05:54:53.000Z</time>
      </trkpt>
      <trkpt lat="47.764887" lon="12.325158">
        <ele>619.434435</ele>
        <time>2021-09-26T05:54:59.000Z</time>
      </trkpt>
      <trkpt lat="47.764975" lon="12.325195">
        <ele>619.465966</ele>
        <time>2021-09-26T05:55:05.001Z</time>
      </trkpt>
      <trkpt lat="47.765065" lon="12.325271">
        <ele>619.501648</ele>
        <time>2021-09-26T05:55:11.001Z</time>
      </trkpt>
      <trkpt lat="47.765147" lon="12.325352">
        <ele>619.535587</ele>
        <time>2021-09-26T05:55:17.001Z</time>
      </trkpt>
      <trkpt lat="47.765229" lon="12.325434">
        <ele>619.569654</ele>
        <time>2021-09-26T05:55:23.001Z</time>
      </trkpt>
      <trkpt lat="47.765297" lon="12.325539">
        <ele>619.603447</ele>
        <time>2021-09-26T05:55:30.001Z</time>
      </trkpt>
      <trkpt lat="47.765390" lon="12.325602">
        <ele>619.638681</ele>
        <time>2021-09-26T05:55:37.001Z</time>
      </trkpt>
      <trkpt lat="47.765491" lon="12.325600">
        <ele>619.673509</ele>
        <time>2021-09-26T05:55:44.002Z</time>
      </trkpt>
      <trkpt lat="47.765587" lon="12.325544">
        <ele>619.709064</ele>
        <time>2021-09-26T05:55:51.999Z</time>
      </trkpt>
      <trkpt lat="47.765661" lon="12.325440">
        <ele>619.744164</ele>
        <time>2021-09-26T05:55:58.998Z</time>
      </trkpt>
      <trkpt lat="47.765738" lon="12.325346">
        <ele>619.778508</ele>
        <time>2021-09-26T05:56:04.999Z</time>
      </trkpt>
      <trkpt lat="47.765818" lon="12.325267">
        <ele>619.811615</ele>
        <time>2021-09-26T05:56:10.999Z</time>
      </trkpt>
      <trkpt lat="47.765866" lon="12.325399">
        <ele>619.846398</ele>
        <time>2021-09-26T05:56:16.999Z</time>
      </trkpt>
      <trkpt lat="47.765867" lon="12.325536">
        <ele>620.065938</ele>
        <time>2021-09-26T05:56:23.000Z</time>
      </trkpt>
      <trkpt lat="47.765894" lon="12.325676">
        <ele>620.721061</ele>
        <time>2021-09-26T05:56:29.000Z</time>
      </trkpt>
      <trkpt lat="47.765890" lon="12.325826">
        <ele>621.396288</ele>
        <time>2021-09-26T05:56:36.000Z</time>
      </trkpt>
      <trkpt lat="47.765917" lon="12.325973">
        <ele>622.081731</ele>
        <time>2021-09-26T05:56:43.000Z</time>
      </trkpt>
      <trkpt lat="47.765911" lon="12.326119">
        <ele>622.739661</ele>
        <time>2021-09-26T05:56:50.000Z</time>
      </trkpt>
      <trkpt lat="47.765957" lon="12.326235">
        <ele>623.345460</ele>
        <time>2021-09-26T05:56:56.000Z</time>
      </trkpt>
      <trkpt lat="47.765974" lon="12.326371">
        <ele>623.967672</ele>
        <time>2021-09-26T05:57:02.000Z</time>
      </trkpt>
      <trkpt lat="47.766006" lon="12.326500">
        <ele>624.586162</ele>
        <time>2021-09-26T05:57:08.001Z</time>
      </trkpt>
      <trkpt lat="47.766024" lon="12.326635">
        <ele>625.205218</ele>
        <time>2021-09-26T05:57:15.001Z</time>
      </trkpt>
      <trkpt lat="47.766017" lon="12.326788">
        <ele>625.894998</ele>
        <time>2021-09-26T05:57:22.001Z</time>
      </trkpt>
      <trkpt lat="47.766037" lon="12.326939">
        <ele>626.587251</ele>
        <time>2021-09-26T05:57:29.001Z</time>
      </trkpt>
      <trkpt lat="47.766040" lon="12.327079">
        <ele>627.217285</ele>
        <time>2021-09-26T05:57:35.001Z</time>
      </trkpt>
      <trkpt lat="47.766035" lon="12.327213">
        <ele>627.820940</ele>
        <time>2021-09-26T05:57:42.001Z</time>
      </trkpt>
      <trkpt lat="47.766041" lon="12.327357">
        <ele>628.469889</ele>
        <time>2021-09-26T05:57:49.002Z</time>
      </trkpt>
      <trkpt lat="47.766108" lon="12.327448">
        <ele>629.076977</ele>
        <time>2021-09-26T05:57:57.002Z</time>
      </trkpt>
      <trkpt lat="47.766180" lon="12.327550">
        <ele>629.742282</ele>
        <time>2021-09-26T05:58:05.000Z</time>
      </trkpt>
      <trkpt lat="47.766231" lon="12.327665">
        <ele>630.361987</ele>
        <time>2021-09-26T05:58:12.000Z</time>
      </trkpt>
      <trkpt lat="47.766262" lon="12.327813">
        <ele>631.059256</ele>
        <time>2021-09-26T05:58:20.000Z</time>
      </trkpt>
      <trkpt lat="47.766266" lon="12.327969">
        <ele>631.761445</ele>
        <time>2021-09-26T05:58:28.000Z</time>
      </trkpt>
      <trkpt lat="47.766267" lon="12.328118">
        <ele>632.737198</ele>
        <time>2021-09-26T05:58:36.000Z</time>
      </trkpt>
      <trkpt lat="47.766256" lon="12.328267">
        <ele>633.801886</ele>
        <time>2021-09-26T05:58:44.000Z</time>
      </trkpt>
      <trkpt lat="47.766249" lon="12.328402">
        <ele>634.763620</ele>
        <time>2021-09-26T05:58:51.000Z</time>
      </trkpt>
      <trkpt lat="47.766233" lon="12.328543">
        <ele>635.779294</ele>
        <time>2021-09-26T05:58:58.000Z</time>
      </trkpt>
      <trkpt lat="47.766184" lon="12.328669">
        <ele>636.813250</ele>
        <time>2021-09-26T05:59:06.000Z</time>
      </trkpt>
      <trkpt lat="47.766156" lon="12.328804">
        <ele>637.816749</ele>
        <time>2021-09-26T05:59:14.001Z</time>
      </trkpt>
      <trkpt lat="47.766122" lon="12.328934">
        <ele>638.807558</ele>
        <time>2021-09-26T05:59:22.001Z</time>
      </trkpt>
      <trkpt lat="47.766086" lon="12.329068">
        <ele>639.832553</ele>
        <time>2021-09-26T05:59:30.001Z</time>
      </trkpt>
      <trkpt lat="47.766051" lon="12.329196">
        <ele>640.814072</ele>
        <time>2021-09-26T05:59:38.001Z</time>
      </trkpt>
      <trkpt lat="47.766008" lon="12.329337">
        <ele>641.913838</ele>
        <time>2021-09-26T05:59:47.001Z</time>
      </trkpt>
      <trkpt lat="47.765993" lon="12.329480">
        <ele>642.941844</ele>
        <time>2021-09-26T05:59:54.002Z</time>
      </trkpt>
      <trkpt lat="47.765940" lon="12.329605">
        <ele>643.991592</ele>
        <time>2021-09-26T06:00:02.002Z</time>
      </trkpt>
      <trkpt lat="47.765882" lon="12.329724">
        <ele>645.035664</ele>
        <time>2021-09-26T06:00:10.000Z</time>
      </trkpt>
      <trkpt lat="47.765824" lon="12.329848">
        <ele>646.108690</ele>
        <time>2021-09-26T06:00:19.999Z</time>
      </trkpt>
      <trkpt lat="47.765771" lon="12.329964">
        <ele>647.104956</ele>
        <time>2021-09-26T06:00:29.000Z</time>
      </trkpt>
      <trkpt lat="47.765717" lon="12.330072">
        <ele>648.061034</ele>
        <time>2021-09-26T06:00:37.000Z</time>
      </trkpt>
      <trkpt lat="47.765686" lon="12.330203">
        <ele>649.047498</ele>
        <time>2021-09-26T06:00:46.000Z</time>
      </trkpt>
      <trkpt lat="47.765651" lon="12.330330">
        <ele>650.022447</ele>
        <time>2021-09-26T06:00:55.000Z</time>
      </trkpt>
      <trkpt lat="47.765709" lon="12.330453">
        <ele>651.149479</ele>
        <time>2021-09-26T06:01:02.000Z</time>
      </trkpt>
      <trkpt lat="47.765763" lon="12.330571">
        <ele>652.502654</ele>
        <time>2021-09-26T06:01:12.001Z</time>
      </trkpt>
      <trkpt lat="47.765817" lon="12.330693">
        <ele>653.887335</ele>
        <time>2021-09-26T06:01:20.001Z</time>
      </trkpt>
      <trkpt lat="47.765859" lon="12.330828">
        <ele>655.297453</ele>
        <time>2021-09-26T06:01:29.001Z</time>
      </trkpt>
      <trkpt lat="47.765860" lon="12.330982">
        <ele>656.757315</ele>
        <time>2021-09-26T06:01:38.001Z</time>
      </trkpt>
      <trkpt lat="47.765839" lon="12.331117">
        <ele>658.070827</ele>
        <time>2021-09-26T06:01:47.001Z</time>
      </trkpt>
      <trkpt lat="47.765808" lon="12.331257">
        <ele>659.468068</ele>
        <time>2021-09-26T06:01:57.001Z</time>
      </trkpt>
      <trkpt lat="47.765754" lon="12.331365">
        <ele>660.744002</ele>
        <time>2021-09-26T06:02:10.000Z</time>
      </trkpt>
      <trkpt lat="47.765709" lon="12.331497">
        <ele>662.146990</ele>
        <time>2021-09-26T06:02:19.000Z</time>
      </trkpt>
      <trkpt lat="47.765679" lon="12.331636">
        <ele>663.530857</ele>
        <time>2021-09-26T06:02:30.000Z</time>
      </trkpt>
      <trkpt lat="47.765658" lon="12.331782">
        <ele>664.946155</ele>
        <time>2021-09-26T06:02:40.000Z</time>
      </trkpt>
      <trkpt lat="47.765620" lon="12.331909">
        <ele>666.263905</ele>
        <time>2021-09-26T06:02:48.000Z</time>
      </trkpt>
      <trkpt lat="47.765568" lon="12.332026">
        <ele>667.593496</ele>
        <time>2021-09-26T06:02:58.000Z</time>
      </trkpt>
      <trkpt lat="47.765523" lon="12.332153">
        <ele>668.954386</ele>
        <time>2021-09-26T06:03:06.000Z</time>
      </trkpt>
      <trkpt lat="47.765504" lon="12.332294">
        <ele>670.317553</ele>
        <time>2021-09-26T06:03:16.000Z</time>
      </trkpt>
      <trkpt lat="47.765460" lon="12.332412">
        <ele>671.596690</ele>
        <time>2021-09-26T06:03:25.001Z</time>
      </trkpt>
      <trkpt lat="47.765391" lon="12.332543">
        <ele>673.174314</ele>
        <time>2021-09-26T06:03:37.001Z</time>
      </trkpt>
      <trkpt lat="47.765413" lon="12.332683">
        <ele>674.537195</ele>
        <time>2021-09-26T06:03:47.001Z</time>
      </trkpt>
      <trkpt lat="47.765367" lon="12.332800">
        <ele>675.822060</ele>
        <time>2021-09-26T06:03:55.001Z</time>
      </trkpt>
      <trkpt lat="47.765289" lon="12.332876">
        <ele>677.348570</ele>
        <time>2021-09-26T06:04:03.001Z</time>
      </trkpt>
      <trkpt lat="47.765143" lon="12.332985">
        <ele>680.218562</ele>
        <time>2021-09-26T06:05:40.001Z</time>
      </trkpt>
      <trkpt lat="47.765055" lon="12.332954">
        <ele>681.807416</ele>
        <time>2021-09-26T06:05:54.001Z</time>
      </trkpt>
      <trkpt lat="47.764964" lon="12.332950">
        <ele>683.406923</ele>
        <time>2021-09-26T06:06:03.001Z</time>
      </trkpt>
      <trkpt lat="47.764869" lon="12.332915">
        <ele>685.126428</ele>
        <time>2021-09-26T06:06:14.001Z</time>
      </trkpt>
      <trkpt lat="47.764772" lon="12.332887">
        <ele>686.862437</ele>
        <time>2021-09-26T06:06:26.999Z</time>
      </trkpt>
      <trkpt lat="47.764670" lon="12.332897">
        <ele>688.658396</ele>
        <time>2021-09-26T06:06:37.999Z</time>
      </trkpt>
      <trkpt lat="47.764577" lon="12.332858">
        <ele>690.356017</ele>
        <time>2021-09-26T06:06:43.999Z</time>
      </trkpt>
      <trkpt lat="47.764493" lon="12.332933">
        <ele>692.077230</ele>
        <time>2021-09-26T06:06:54.000Z</time>
      </trkpt>
      <trkpt lat="47.764402" lon="12.332906">
        <ele>693.707526</ele>
        <time>2021-09-26T06:07:03.000Z</time>
      </trkpt>
      <trkpt lat="47.764315" lon="12.332941">
        <ele>695.290960</ele>
        <time>2021-09-26T06:07:13.000Z</time>
      </trkpt>
      <trkpt lat="47.764233" lon="12.333020">
        <ele>697.007356</ele>
        <time>2021-09-26T06:07:23.000Z</time>
      </trkpt>
      <trkpt lat="47.764155" lon="12.333100">
        <ele>698.671879</ele>
        <time>2021-09-26T06:07:33.000Z</time>
      </trkpt>
      <trkpt lat="47.764062" lon="12.333124">
        <ele>700.330228</ele>
        <time>2021-09-26T06:07:40.000Z</time>
      </trkpt>
      <trkpt lat="47.763976" lon="12.333169">
        <ele>701.931927</ele>
        <time>2021-09-26T06:07:49.001Z</time>
      </trkpt>
      <trkpt lat="47.763870" lon="12.333175">
        <ele>703.795624</ele>
        <time>2021-09-26T06:08:00.001Z</time>
      </trkpt>
      <trkpt lat="47.763822" lon="12.333294">
        <ele>705.434613</ele>
        <time>2021-09-26T06:08:09.001Z</time>
      </trkpt>
      <trkpt lat="47.763732" lon="12.333255">
        <ele>707.081568</ele>
        <time>2021-09-26T06:08:23.001Z</time>
      </trkpt>
      <trkpt lat="47.763626" lon="12.333255">
        <ele>708.995760</ele>
        <time>2021-09-26T06:08:32.999Z</time>
      </trkpt>
      <trkpt lat="47.763558" lon="12.333371">
        <ele>710.901826</ele>
        <time>2021-09-26T06:08:49.999Z</time>
      </trkpt>
      <trkpt lat="47.763465" lon="12.333367">
        <ele>712.615900</ele>
        <time>2021-09-26T06:08:57.999Z</time>
      </trkpt>
      <trkpt lat="47.763502" lon="12.333493">
        <ele>714.318673</ele>
        <time>2021-09-26T06:09:09.000Z</time>
      </trkpt>
      <trkpt lat="47.763600" lon="12.333547">
        <ele>716.244015</ele>
        <time>2021-09-26T06:09:21.000Z</time>
      </trkpt>
      <trkpt lat="47.763627" lon="12.333675">
        <ele>717.905372</ele>
        <time>2021-09-26T06:09:32.000Z</time>
      </trkpt>
      <trkpt lat="47.763710" lon="12.333765">
        <ele>719.797580</ele>
        <time>2021-09-26T06:09:44.000Z</time>
      </trkpt>
      <trkpt lat="47.763761" lon="12.333881">
        <ele>721.514099</ele>
        <time>2021-09-26T06:09:59.000Z</time>
      </trkpt>
      <trkpt lat="47.763798" lon="12.334012">
        <ele>723.273780</ele>
        <time>2021-09-26T06:10:08.001Z</time>
      </trkpt>
      <trkpt lat="47.763842" lon="12.334152">
        <ele>725.187667</ele>
        <time>2021-09-26T06:10:23.001Z</time>
      </trkpt>
      <trkpt lat="47.763825" lon="12.334289">
        <ele>726.912922</ele>
        <time>2021-09-26T06:10:35.999Z</time>
      </trkpt>
      <trkpt lat="47.763875" lon="12.334416">
        <ele>728.735580</ele>
        <time>2021-09-26T06:10:45.999Z</time>
      </trkpt>
      <trkpt lat="47.763932" lon="12.334529">
        <ele>730.485153</ele>
        <time>2021-09-26T06:10:57.999Z</time>
      </trkpt>
      <trkpt lat="47.763984" lon="12.334639">
        <ele>732.150514</ele>
        <time>2021-09-26T06:11:11.999Z</time>
      </trkpt>
      <trkpt lat="47.763976" lon="12.334777">
        <ele>733.865826</ele>
        <time>2021-09-26T06:11:23.000Z</time>
      </trkpt>
      <trkpt lat="47.763938" lon="12.334917">
        <ele>735.735574</ele>
        <time>2021-09-26T06:11:34.000Z</time>
      </trkpt>
      <trkpt lat="47.763870" lon="12.335034">
        <ele>737.650983</ele>
        <time>2021-09-26T06:11:45.000Z</time>
      </trkpt>
      <trkpt lat="47.763850" lon="12.335169">
        <ele>739.362926</ele>
        <time>2021-09-26T06:11:56.000Z</time>
      </trkpt>
      <trkpt lat="47.763808" lon="12.335303">
        <ele>741.175102</ele>
        <time>2021-09-26T06:12:08.000Z</time>
      </trkpt>
      <trkpt lat="47.763822" lon="12.335446">
        <ele>742.777702</ele>
        <time>2021-09-26T06:12:16.001Z</time>
      </trkpt>
      <trkpt lat="47.763834" lon="12.335591">
        <ele>744.397892</ele>
        <time>2021-09-26T06:12:33.001Z</time>
      </trkpt>
      <trkpt lat="47.763929" lon="12.335603">
        <ele>745.970873</ele>
        <time>2021-09-26T06:12:48.999Z</time>
      </trkpt>
      <trkpt lat="47.764014" lon="12.335667">
        <ele>747.542612</ele>
        <time>2021-09-26T06:12:58.999Z</time>
      </trkpt>
      <trkpt lat="47.764102" lon="12.335707">
        <ele>749.060722</ele>
        <time>2021-09-26T06:13:09.999Z</time>
      </trkpt>
      <trkpt lat="47.764166" lon="12.335815">
        <ele>750.657413</ele>
        <time>2021-09-26T06:13:16.999Z</time>
      </trkpt>
      <trkpt lat="47.764243" lon="12.335896">
        <ele>752.213291</ele>
        <time>2021-09-26T06:13:26.000Z</time>
      </trkpt>
      <trkpt lat="47.764311" lon="12.336003">
        <ele>753.846292</ele>
        <time>2021-09-26T06:13:34.000Z</time>
      </trkpt>
      <trkpt lat="47.764371" lon="12.336110">
        <ele>755.391595</ele>
        <time>2021-09-26T06:13:42.000Z</time>
      </trkpt>
      <trkpt lat="47.764439" lon="12.336200">
        <ele>756.893197</ele>
        <time>2021-09-26T06:13:52.000Z</time>
      </trkpt>
      <trkpt lat="47.764507" lon="12.336292">
        <ele>758.409631</ele>
        <time>2021-09-26T06:14:01.000Z</time>
      </trkpt>
      <trkpt lat="47.764574" lon="12.336404">
        <ele>760.072340</ele>
        <time>2021-09-26T06:14:10.000Z</time>
      </trkpt>
      <trkpt lat="47.764648" lon="12.336486">
        <ele>761.594669</ele>
        <time>2021-09-26T06:14:19.001Z</time>
      </trkpt>
      <trkpt lat="47.764720" lon="12.336584">
        <ele>763.204698</ele>
        <time>2021-09-26T06:14:31.001Z</time>
      </trkpt>
      <trkpt lat="47.764796" lon="12.336681">
        <ele>764.856772</ele>
        <time>2021-09-26T06:14:40.001Z</time>
      </trkpt>
      <trkpt lat="47.764855" lon="12.336802">
        <ele>766.514514</ele>
        <time>2021-09-26T06:14:48.999Z</time>
      </trkpt>
      <trkpt lat="47.764929" lon="12.336917">
        <ele>768.280013</ele>
        <time>2021-09-26T06:15:00.999Z</time>
      </trkpt>
      <trkpt lat="47.764981" lon="12.337039">
        <ele>769.882038</ele>
        <time>2021-09-26T06:15:09.999Z</time>
      </trkpt>
      <trkpt lat="47.765009" lon="12.337180">
        <ele>772.033970</ele>
        <time>2021-09-26T06:15:21.999Z</time>
      </trkpt>
      <trkpt lat="47.765060" lon="12.337309">
        <ele>774.744103</ele>
        <time>2021-09-26T06:15:40.000Z</time>
      </trkpt>
      <trkpt lat="47.765152" lon="12.337365">
        <ele>777.422071</ele>
        <time>2021-09-26T06:15:49.000Z</time>
      </trkpt>
      <trkpt lat="47.765255" lon="12.337434">
        <ele>780.465296</ele>
        <time>2021-09-26T06:16:15.000Z</time>
      </trkpt>
      <trkpt lat="47.765350" lon="12.337425">
        <ele>783.029838</ele>
        <time>2021-09-26T06:16:34.001Z</time>
      </trkpt>
      <trkpt lat="47.765426" lon="12.337495">
        <ele>785.437953</ele>
        <time>2021-09-26T06:17:04.999Z</time>
      </trkpt>
      <trkpt lat="47.765511" lon="12.337543">
        <ele>787.887322</ele>
        <time>2021-09-26T06:17:47.000Z</time>
      </trkpt>
      <trkpt lat="47.765435" lon="12.337621">
        <ele>790.374744</ele>
        <time>2021-09-26T06:18:33.001Z</time>
      </trkpt>
      <trkpt lat="47.765383" lon="12.337744">
        <ele>793.006033</ele>
        <time>2021-09-26T06:18:44.001Z</time>
      </trkpt>
      <trkpt lat="47.765350" lon="12.337878">
        <ele>795.590324</ele>
        <time>2021-09-26T06:18:59.999Z</time>
      </trkpt>
      <trkpt lat="47.765296" lon="12.338012">
        <ele>798.419565</ele>
        <time>2021-09-26T06:19:16.999Z</time>
      </trkpt>
      <trkpt lat="47.765252" lon="12.338142">
        <ele>801.055290</ele>
        <time>2021-09-26T06:19:25.999Z</time>
      </trkpt>
      <trkpt lat="47.765246" lon="12.338284">
        <ele>803.631796</ele>
        <time>2021-09-26T06:19:38.999Z</time>
      </trkpt>
      <trkpt lat="47.765234" lon="12.338435">
        <ele>806.385249</ele>
        <time>2021-09-26T06:19:49.000Z</time>
      </trkpt>
      <trkpt lat="47.765238" lon="12.338580">
        <ele>809.013216</ele>
        <time>2021-09-26T06:20:04.000Z</time>
      </trkpt>
      <trkpt lat="47.765240" lon="12.338731">
        <ele>811.748155</ele>
        <time>2021-09-26T06:20:14.000Z</time>
      </trkpt>
      <trkpt lat="47.765257" lon="12.338876">
        <ele>814.413554</ele>
        <time>2021-09-26T06:20:29.000Z</time>
      </trkpt>
      <trkpt lat="47.765197" lon="12.339003">
        <ele>817.224595</ele>
        <time>2021-09-26T06:20:47.001Z</time>
      </trkpt>
      <trkpt lat="47.765162" lon="12.339133">
        <ele>819.447864</ele>
        <time>2021-09-26T06:20:54.001Z</time>
      </trkpt>
      <trkpt lat="47.765085" lon="12.339203">
        <ele>820.643726</ele>
        <time>2021-09-26T06:21:01.001Z</time>
      </trkpt>
      <trkpt lat="47.764984" lon="12.339191">
        <ele>821.986471</ele>
        <time>2021-09-26T06:21:08.999Z</time>
      </trkpt>
      <trkpt lat="47.764919" lon="12.339308">
        <ele>823.338592</ele>
        <time>2021-09-26T06:21:45.999Z</time>
      </trkpt>
      <trkpt lat="47.764805" lon="12.339319">
        <ele>824.852529</ele>
        <time>2021-09-26T06:21:51.999Z</time>
      </trkpt>
      <trkpt lat="47.764706" lon="12.339277">
        <ele>826.216810</ele>
        <time>2021-09-26T06:22:02.000Z</time>
      </trkpt>
      <trkpt lat="47.764622" lon="12.339194">
        <ele>827.553167</ele>
        <time>2021-09-26T06:22:13.000Z</time>
      </trkpt>
      <trkpt lat="47.764520" lon="12.339200">
        <ele>828.905959</ele>
        <time>2021-09-26T06:22:20.000Z</time>
      </trkpt>
      <trkpt lat="47.764446" lon="12.339094">
        <ele>830.267321</ele>
        <time>2021-09-26T06:22:28.000Z</time>
      </trkpt>
      <trkpt lat="47.764512" lon="12.338994">
        <ele>831.515732</ele>
        <time>2021-09-26T06:22:44.000Z</time>
      </trkpt>
      <trkpt lat="47.764443" lon="12.338880">
        <ele>832.882258</ele>
        <time>2021-09-26T06:22:57.001Z</time>
      </trkpt>
      <trkpt lat="47.764364" lon="12.338806">
        <ele>834.119431</ele>
        <time>2021-09-26T06:23:03.001Z</time>
      </trkpt>
      <trkpt lat="47.764315" lon="12.338687">
        <ele>835.362561</ele>
        <time>2021-09-26T06:23:20.999Z</time>
      </trkpt>
      <trkpt lat="47.764278" lon="12.338564">
        <ele>836.562954</ele>
        <time>2021-09-26T06:23:36.999Z</time>
      </trkpt>
      <trkpt lat="47.764191" lon="12.338493">
        <ele>837.877986</ele>
        <time>2021-09-26T06:23:43.999Z</time>
      </trkpt>
      <trkpt lat="47.764148" lon="12.338366">
        <ele>839.144714</ele>
        <time>2021-09-26T06:23:54.999Z</time>
      </trkpt>
      <trkpt lat="47.764063" lon="12.338253">
        <ele>840.655387</ele>
        <time>2021-09-26T06:24:18.000Z</time>
      </trkpt>
      <trkpt lat="47.763976" lon="12.338209">
        <ele>841.873140</ele>
        <time>2021-09-26T06:24:23.000Z</time>
      </trkpt>
      <trkpt lat="47.763896" lon="12.338122">
        <ele>843.225697</ele>
        <time>2021-09-26T06:24:45.001Z</time>
      </trkpt>
      <trkpt lat="47.763805" lon="12.338056">
        <ele>844.824531</ele>
        <time>2021-09-26T06:24:54.001Z</time>
      </trkpt>
      <trkpt lat="47.763733" lon="12.337960">
        <ele>846.351469</ele>
        <time>2021-09-26T06:25:08.001Z</time>
      </trkpt>
      <trkpt lat="47.763658" lon="12.337877">
        <ele>847.827711</ele>
        <time>2021-09-26T06:25:18.999Z</time>
      </trkpt>
      <trkpt lat="47.763600" lon="12.337768">
        <ele>849.303497</ele>
        <time>2021-09-26T06:25:27.999Z</time>
      </trkpt>
      <trkpt lat="47.763513" lon="12.337731">
        <ele>850.732510</ele>
        <time>2021-09-26T06:25:37.999Z</time>
      </trkpt>
      <trkpt lat="47.763423" lon="12.337681">
        <ele>852.249735</ele>
        <time>2021-09-26T06:25:45.999Z</time>
      </trkpt>
      <trkpt lat="47.763336" lon="12.337628">
        <ele>853.734444</ele>
        <time>2021-09-26T06:25:56.999Z</time>
      </trkpt>
      <trkpt lat="47.763279" lon="12.337521">
        <ele>855.183787</ele>
        <time>2021-09-26T06:26:13.000Z</time>
      </trkpt>
      <trkpt lat="47.763198" lon="12.337450">
        <ele>856.668540</ele>
        <time>2021-09-26T06:26:26.000Z</time>
      </trkpt>
      <trkpt lat="47.763106" lon="12.337397">
        <ele>858.226612</ele>
        <time>2021-09-26T06:26:35.000Z</time>
      </trkpt>
      <trkpt lat="47.763022" lon="12.337469">
        <ele>859.757647</ele>
        <time>2021-09-26T06:26:53.001Z</time>
      </trkpt>
      <trkpt lat="47.762980" lon="12.337601">
        <ele>861.308001</ele>
        <time>2021-09-26T06:27:12.001Z</time>
      </trkpt>
      <trkpt lat="47.763063" lon="12.337656">
        <ele>862.742960</ele>
        <time>2021-09-26T06:27:21.001Z</time>
      </trkpt>
      <trkpt lat="47.763120" lon="12.337760">
        <ele>864.167484</ele>
        <time>2021-09-26T06:27:34.999Z</time>
      </trkpt>
      <trkpt lat="47.763223" lon="12.337779">
        <ele>865.806597</ele>
        <time>2021-09-26T06:27:46.999Z</time>
      </trkpt>
      <trkpt lat="47.763277" lon="12.337903">
        <ele>867.375068</ele>
        <time>2021-09-26T06:30:34.000Z</time>
      </trkpt>
      <trkpt lat="47.763311" lon="12.338034">
        <ele>868.865804</ele>
        <time>2021-09-26T06:30:56.001Z</time>
      </trkpt>
      <trkpt lat="47.763359" lon="12.338181">
        <ele>870.600706</ele>
        <time>2021-09-26T06:31:09.001Z</time>
      </trkpt>
      <trkpt lat="47.763410" lon="12.338292">
        <ele>872.424032</ele>
        <time>2021-09-26T06:31:18.001Z</time>
      </trkpt>
      <trkpt lat="47.763432" lon="12.338447">
        <ele>875.144530</ele>
        <time>2021-09-26T06:31:33.002Z</time>
      </trkpt>
      <trkpt lat="47.763494" lon="12.338570">
        <ele>877.784719</ele>
        <time>2021-09-26T06:31:42.999Z</time>
      </trkpt>
      <trkpt lat="47.763506" lon="12.338705">
        <ele>880.123245</ele>
        <time>2021-09-26T06:31:54.999Z</time>
      </trkpt>
      <trkpt lat="47.763549" lon="12.338839">
        <ele>882.673184</ele>
        <time>2021-09-26T06:32:03.999Z</time>
      </trkpt>
      <trkpt lat="47.763551" lon="12.338986">
        <ele>885.198118</ele>
        <time>2021-09-26T06:32:20.000Z</time>
      </trkpt>
      <trkpt lat="47.763626" lon="12.339061">
        <ele>887.506838</ele>
        <time>2021-09-26T06:32:27.000Z</time>
      </trkpt>
      <trkpt lat="47.763689" lon="12.339181">
        <ele>890.121634</ele>
        <time>2021-09-26T06:32:43.000Z</time>
      </trkpt>
      <trkpt lat="47.763660" lon="12.339313">
        <ele>892.506454</ele>
        <time>2021-09-26T06:32:53.001Z</time>
      </trkpt>
      <trkpt lat="47.763723" lon="12.339417">
        <ele>894.910660</ele>
        <time>2021-09-26T06:33:06.001Z</time>
      </trkpt>
      <trkpt lat="47.763688" lon="12.339559">
        <ele>897.507973</ele>
        <time>2021-09-26T06:33:18.001Z</time>
      </trkpt>
      <trkpt lat="47.763769" lon="12.339667">
        <ele>900.286827</ele>
        <time>2021-09-26T06:33:32.002Z</time>
      </trkpt>
      <trkpt lat="47.763689" lon="12.339745">
        <ele>902.730466</ele>
        <time>2021-09-26T06:33:36.002Z</time>
      </trkpt>
      <trkpt lat="47.763586" lon="12.339820">
        <ele>905.660167</ele>
        <time>2021-09-26T06:33:42.999Z</time>
      </trkpt>
      <trkpt lat="47.763614" lon="12.339955">
        <ele>908.086358</ele>
        <time>2021-09-26T06:33:51.999Z</time>
      </trkpt>
      <trkpt lat="47.763661" lon="12.340083">
        <ele>910.591061</ele>
        <time>2021-09-26T06:34:00.999Z</time>
      </trkpt>
      <trkpt lat="47.763641" lon="12.340216">
        <ele>912.931508</ele>
        <time>2021-09-26T06:34:25.000Z</time>
      </trkpt>
      <trkpt lat="47.763593" lon="12.340330">
        <ele>915.241573</ele>
        <time>2021-09-26T06:34:37.000Z</time>
      </trkpt>
      <trkpt lat="47.763638" lon="12.340457">
        <ele>917.588445</ele>
        <time>2021-09-26T06:34:45.000Z</time>
      </trkpt>
      <trkpt lat="47.763689" lon="12.340579">
        <ele>919.263109</ele>
        <time>2021-09-26T06:34:57.000Z</time>
      </trkpt>
      <trkpt lat="47.763741" lon="12.340689">
        <ele>920.830654</ele>
        <time>2021-09-26T06:35:14.001Z</time>
      </trkpt>
      <trkpt lat="47.763745" lon="12.340839">
        <ele>922.580501</ele>
        <time>2021-09-26T06:35:28.001Z</time>
      </trkpt>
      <trkpt lat="47.763798" lon="12.340954">
        <ele>924.205809</ele>
        <time>2021-09-26T06:35:35.001Z</time>
      </trkpt>
      <trkpt lat="47.763830" lon="12.341085">
        <ele>925.830508</ele>
        <time>2021-09-26T06:35:45.002Z</time>
      </trkpt>
      <trkpt lat="47.763773" lon="12.341201">
        <ele>927.505419</ele>
        <time>2021-09-26T06:35:55.999Z</time>
      </trkpt>
      <trkpt lat="47.763753" lon="12.341332">
        <ele>929.071307</ele>
        <time>2021-09-26T06:36:07.999Z</time>
      </trkpt>
      <trkpt lat="47.763668" lon="12.341377">
        <ele>930.635850</ele>
        <time>2021-09-26T06:36:18.999Z</time>
      </trkpt>
      <trkpt lat="47.763610" lon="12.341489">
        <ele>932.283879</ele>
        <time>2021-09-26T06:36:33.000Z</time>
      </trkpt>
      <trkpt lat="47.763682" lon="12.341636">
        <ele>934.404019</ele>
        <time>2021-09-26T06:37:41.001Z</time>
      </trkpt>
      <trkpt lat="47.763591" lon="12.341623">
        <ele>935.989315</ele>
        <time>2021-09-26T06:38:29.000Z</time>
      </trkpt>
      <trkpt lat="47.763662" lon="12.341724">
        <ele>937.692824</ele>
        <time>2021-09-26T06:38:47.000Z</time>
      </trkpt>
      <trkpt lat="47.763730" lon="12.341815">
        <ele>939.278909</ele>
        <time>2021-09-26T06:38:57.000Z</time>
      </trkpt>
      <trkpt lat="47.763793" lon="12.341913">
        <ele>940.859559</ele>
        <time>2021-09-26T06:39:05.001Z</time>
      </trkpt>
      <trkpt lat="47.763864" lon="12.341997">
        <ele>942.432649</ele>
        <time>2021-09-26T06:39:15.001Z</time>
      </trkpt>
      <trkpt lat="47.763925" lon="12.342098">
        <ele>944.015365</ele>
        <time>2021-09-26T06:39:22.001Z</time>
      </trkpt>
      <trkpt lat="47.763984" lon="12.342225">
        <ele>945.814883</ele>
        <time>2021-09-26T06:39:30.001Z</time>
      </trkpt>
      <trkpt lat="47.764048" lon="12.342337">
        <ele>947.528387</ele>
        <time>2021-09-26T06:39:41.002Z</time>
      </trkpt>
      <trkpt lat="47.764091" lon="12.342457">
        <ele>948.941801</ele>
        <time>2021-09-26T06:39:50.002Z</time>
      </trkpt>
      <trkpt lat="47.764110" lon="12.342589">
        <ele>950.053613</ele>
        <time>2021-09-26T06:40:03.000Z</time>
      </trkpt>
      <trkpt lat="47.764085" lon="12.342733">
        <ele>951.278532</ele>
        <time>2021-09-26T06:40:11.000Z</time>
      </trkpt>
      <trkpt lat="47.764129" lon="12.342875">
        <ele>952.566338</ele>
        <time>2021-09-26T06:40:22.000Z</time>
      </trkpt>
      <trkpt lat="47.764176" lon="12.343005">
        <ele>953.782077</ele>
        <time>2021-09-26T06:40:38.000Z</time>
      </trkpt>
      <trkpt lat="47.764213" lon="12.343128">
        <ele>954.891931</ele>
        <time>2021-09-26T06:40:49.000Z</time>
      </trkpt>
      <trkpt lat="47.764231" lon="12.343275">
        <ele>956.122560</ele>
        <time>2021-09-26T06:40:59.001Z</time>
      </trkpt>
      <trkpt lat="47.764290" lon="12.343389">
        <ele>957.307533</ele>
        <time>2021-09-26T06:41:08.001Z</time>
      </trkpt>
      <trkpt lat="47.764230" lon="12.343489">
        <ele>958.411525</ele>
        <time>2021-09-26T06:41:17.001Z</time>
      </trkpt>
      <trkpt lat="47.764252" lon="12.343637">
        <ele>959.659915</ele>
        <time>2021-09-26T06:41:30.001Z</time>
      </trkpt>
      <trkpt lat="47.764217" lon="12.343792">
        <ele>961.006615</ele>
        <time>2021-09-26T06:41:48.002Z</time>
      </trkpt>
      <trkpt lat="47.764268" lon="12.343931">
        <ele>962.310874</ele>
        <time>2021-09-26T06:41:59.002Z</time>
      </trkpt>
      <trkpt lat="47.764221" lon="12.344054">
        <ele>963.476156</ele>
        <time>2021-09-26T06:42:07.999Z</time>
      </trkpt>
      <trkpt lat="47.764265" lon="12.344179">
        <ele>964.638285</ele>
        <time>2021-09-26T06:42:13.999Z</time>
      </trkpt>
      <trkpt lat="47.764348" lon="12.344278">
        <ele>965.941771</ele>
        <time>2021-09-26T06:42:18.999Z</time>
      </trkpt>
      <trkpt lat="47.764318" lon="12.344405">
        <ele>967.050460</ele>
        <time>2021-09-26T06:42:39.000Z</time>
      </trkpt>
      <trkpt lat="47.764311" lon="12.344558">
        <ele>968.313495</ele>
        <time>2021-09-26T06:42:51.000Z</time>
      </trkpt>
      <trkpt lat="47.764245" lon="12.344658">
        <ele>969.467746</ele>
        <time>2021-09-26T06:43:02.000Z</time>
      </trkpt>
      <trkpt lat="47.764218" lon="12.344786">
        <ele>970.574909</ele>
        <time>2021-09-26T06:43:14.001Z</time>
      </trkpt>
      <trkpt lat="47.764249" lon="12.344957">
        <ele>972.583350</ele>
        <time>2021-09-26T06:43:29.001Z</time>
      </trkpt>
      <trkpt lat="47.764190" lon="12.345070">
        <ele>974.205943</ele>
        <time>2021-09-26T06:43:39.001Z</time>
      </trkpt>
      <trkpt lat="47.764179" lon="12.345207">
        <ele>975.770580</ele>
        <time>2021-09-26T06:43:47.001Z</time>
      </trkpt>
      <trkpt lat="47.764242" lon="12.345323">
        <ele>977.461747</ele>
        <time>2021-09-26T06:43:59.002Z</time>
      </trkpt>
      <trkpt lat="47.764258" lon="12.345462">
        <ele>979.060964</ele>
        <time>2021-09-26T06:44:11.000Z</time>
      </trkpt>
      <trkpt lat="47.764182" lon="12.345542">
        <ele>980.631620</ele>
        <time>2021-09-26T06:44:18.000Z</time>
      </trkpt>
      <trkpt lat="47.764082" lon="12.345624">
        <ele>982.557975</ele>
        <time>2021-09-26T06:44:28.000Z</time>
      </trkpt>
      <trkpt lat="47.764108" lon="12.345759">
        <ele>984.150489</ele>
        <time>2021-09-26T06:44:36.000Z</time>
      </trkpt>
      <trkpt lat="47.764042" lon="12.345851">
        <ele>985.676346</ele>
        <time>2021-09-26T06:44:43.000Z</time>
      </trkpt>
      <trkpt lat="47.764110" lon="12.345966">
        <ele>987.413232</ele>
        <time>2021-09-26T06:44:51.000Z</time>
      </trkpt>
      <trkpt lat="47.764154" lon="12.346090">
        <ele>989.003306</ele>
        <time>2021-09-26T06:44:59.000Z</time>
      </trkpt>
      <trkpt lat="47.764185" lon="12.346219">
        <ele>990.556854</ele>
        <time>2021-09-26T06:45:09.000Z</time>
      </trkpt>
      <trkpt lat="47.764239" lon="12.346339">
        <ele>992.194457</ele>
        <time>2021-09-26T06:45:20.001Z</time>
      </trkpt>
      <trkpt lat="47.764197" lon="12.346464">
        <ele>993.779197</ele>
        <time>2021-09-26T06:45:33.001Z</time>
      </trkpt>
      <trkpt lat="47.764213" lon="12.346598">
        <ele>995.322557</ele>
        <time>2021-09-26T06:45:46.001Z</time>
      </trkpt>
      <trkpt lat="47.764205" lon="12.346732">
        <ele>996.848111</ele>
        <time>2021-09-26T06:46:00.002Z</time>
      </trkpt>
      <trkpt lat="47.764209" lon="12.346879">
        <ele>998.516470</ele>
        <time>2021-09-26T06:46:28.000Z</time>
      </trkpt>
      <trkpt lat="47.764256" lon="12.347001">
        <ele>1000.111073</ele>
        <time>2021-09-26T06:46:42.000Z</time>
      </trkpt>
      <trkpt lat="47.764308" lon="12.347116">
        <ele>1002.240196</ele>
        <time>2021-09-26T06:46:56.000Z</time>
      </trkpt>
      <trkpt lat="47.764349" lon="12.347238">
        <ele>1004.903697</ele>
        <time>2021-09-26T06:47:11.000Z</time>
      </trkpt>
      <trkpt lat="47.764348" lon="12.347376">
        <ele>1007.598636</ele>
        <time>2021-09-26T06:47:29.001Z</time>
      </trkpt>
      <trkpt lat="47.764333" lon="12.347512">
        <ele>1010.289876</ele>
        <time>2021-09-26T06:47:43.001Z</time>
      </trkpt>
      <trkpt lat="47.764370" lon="12.347650">
        <ele>1013.191120</ele>
        <time>2021-09-26T06:47:56.001Z</time>
      </trkpt>
      <trkpt lat="47.764349" lon="12.347786">
        <ele>1015.916017</ele>
        <time>2021-09-26T06:48:14.002Z</time>
      </trkpt>
      <trkpt lat="47.764401" lon="12.347897">
        <ele>1018.558037</ele>
        <time>2021-09-26T06:48:28.000Z</time>
      </trkpt>
      <trkpt lat="47.764364" lon="12.348031">
        <ele>1021.386875</ele>
        <time>2021-09-26T06:48:48.000Z</time>
      </trkpt>
      <trkpt lat="47.764414" lon="12.348167">
        <ele>1024.413878</ele>
        <time>2021-09-26T06:49:07.000Z</time>
      </trkpt>
      <trkpt lat="47.764497" lon="12.348286">
        <ele>1027.762580</ele>
        <time>2021-09-26T06:49:22.001Z</time>
      </trkpt>
      <trkpt lat="47.764459" lon="12.348430">
        <ele>1030.783452</ele>
        <time>2021-09-26T06:49:39.001Z</time>
      </trkpt>
      <trkpt lat="47.764478" lon="12.348561">
        <ele>1033.400408</ele>
        <time>2021-09-26T06:50:03.001Z</time>
      </trkpt>
      <trkpt lat="47.764550" lon="12.348656">
        <ele>1036.196193</ele>
        <time>2021-09-26T06:50:21.002Z</time>
      </trkpt>
      <trkpt lat="47.764617" lon="12.348764">
        <ele>1039.066063</ele>
        <time>2021-09-26T06:50:36.000Z</time>
      </trkpt>
      <trkpt lat="47.764613" lon="12.348903">
        <ele>1041.782845</ele>
        <time>2021-09-26T06:51:04.000Z</time>
      </trkpt>
      <trkpt lat="47.764708" lon="12.348973">
        <ele>1044.862630</ele>
        <time>2021-09-26T06:51:18.000Z</time>
      </trkpt>
      <trkpt lat="47.764617" lon="12.349057">
        <ele>1047.973787</ele>
        <time>2021-09-26T06:51:31.000Z</time>
      </trkpt>
      <trkpt lat="47.764675" lon="12.349193">
        <ele>1051.118918</ele>
        <time>2021-09-26T06:51:49.001Z</time>
      </trkpt>
      <trkpt lat="47.764772" lon="12.349194">
        <ele>1053.967376</ele>
        <time>2021-09-26T06:51:55.001Z</time>
      </trkpt>
      <trkpt lat="47.764730" lon="12.349313">
        <ele>1056.695253</ele>
        <time>2021-09-26T06:52:36.000Z</time>
      </trkpt>
      <trkpt lat="47.764809" lon="12.349384">
        <ele>1059.482048</ele>
        <time>2021-09-26T06:52:47.000Z</time>
      </trkpt>
      <trkpt lat="47.764871" lon="12.349495">
        <ele>1062.411153</ele>
        <time>2021-09-26T06:53:08.000Z</time>
      </trkpt>
      <trkpt lat="47.764923" lon="12.349609">
        <ele>1065.207290</ele>
        <time>2021-09-26T06:53:24.000Z</time>
      </trkpt>
      <trkpt lat="47.764939" lon="12.349747">
        <ele>1068.049441</ele>
        <time>2021-09-26T06:53:44.001Z</time>
      </trkpt>
      <trkpt lat="47.765015" lon="12.349833">
        <ele>1070.932552</ele>
        <time>2021-09-26T06:53:57.001Z</time>
      </trkpt>
      <trkpt lat="47.765071" lon="12.349949">
        <ele>1073.831116</ele>
        <time>2021-09-26T06:54:16.001Z</time>
      </trkpt>
      <trkpt lat="47.765112" lon="12.350077">
        <ele>1076.708830</ele>
        <time>2021-09-26T06:54:38.002Z</time>
      </trkpt>
      <trkpt lat="47.765118" lon="12.350214">
        <ele>1079.495213</ele>
        <time>2021-09-26T06:54:59.999Z</time>
      </trkpt>
      <trkpt lat="47.765174" lon="12.350325">
        <ele>1082.311972</ele>
        <time>2021-09-26T06:55:17.000Z</time>
      </trkpt>
      <trkpt lat="47.765257" lon="12.350382">
        <ele>1085.072193</ele>
        <time>2021-09-26T06:55:50.000Z</time>
      </trkpt>
      <trkpt lat="47.765240" lon="12.350530">
        <ele>1088.119465</ele>
        <time>2021-09-26T06:58:23.001Z</time>
      </trkpt>
      <trkpt lat="47.765272" lon="12.350657">
        <ele>1090.872135</ele>
        <time>2021-09-26T06:58:41.001Z</time>
      </trkpt>
      <trkpt lat="47.765292" lon="12.350793">
        <ele>1093.697604</ele>
        <time>2021-09-26T06:58:57.999Z</time>
      </trkpt>
      <trkpt lat="47.765255" lon="12.350927">
        <ele>1096.637718</ele>
        <time>2021-09-26T06:59:18.999Z</time>
      </trkpt>
      <trkpt lat="47.765230" lon="12.351056">
        <ele>1099.362480</ele>
        <time>2021-09-26T06:59:38.000Z</time>
      </trkpt>
      <trkpt lat="47.765185" lon="12.351175">
        <ele>1102.133609</ele>
        <time>2021-09-26T06:59:54.000Z</time>
      </trkpt>
      <trkpt lat="47.765127" lon="12.351289">
        <ele>1105.035338</ele>
        <time>2021-09-26T07:00:11.000Z</time>
      </trkpt>
      <trkpt lat="47.765049" lon="12.351362">
        <ele>1107.725031</ele>
        <time>2021-09-26T07:00:32.000Z</time>
      </trkpt>
      <trkpt lat="47.765017" lon="12.351495">
        <ele>1109.825697</ele>
        <time>2021-09-26T07:00:50.000Z</time>
      </trkpt>
      <trkpt lat="47.764925" lon="12.351514">
        <ele>1111.880540</ele>
        <time>2021-09-26T07:01:10.999Z</time>
      </trkpt>
      <trkpt lat="47.764835" lon="12.351540">
        <ele>1113.908811</ele>
        <time>2021-09-26T07:01:29.000Z</time>
      </trkpt>
      <trkpt lat="47.764750" lon="12.351585">
        <ele>1115.904792</ele>
        <time>2021-09-26T07:01:45.000Z</time>
      </trkpt>
      <trkpt lat="47.764658" lon="12.351617">
        <ele>1117.995006</ele>
        <time>2021-09-26T07:01:58.000Z</time>
      </trkpt>
      <trkpt lat="47.764577" lon="12.351686">
        <ele>1120.059950</ele>
        <time>2021-09-26T07:02:14.000Z</time>
      </trkpt>
      <trkpt lat="47.764475" lon="12.351696">
        <ele>1122.321401</ele>
        <time>2021-09-26T07:02:28.001Z</time>
      </trkpt>
      <trkpt lat="47.764401" lon="12.351777">
        <ele>1124.353890</ele>
        <time>2021-09-26T07:02:40.001Z</time>
      </trkpt>
      <trkpt lat="47.764433" lon="12.351928">
        <ele>1126.708323</ele>
        <time>2021-09-26T07:02:52.001Z</time>
      </trkpt>
      <trkpt lat="47.764378" lon="12.352043">
        <ele>1128.807152</ele>
        <time>2021-09-26T07:03:21.999Z</time>
      </trkpt>
      <trkpt lat="47.764304" lon="12.352124">
        <ele>1130.839644</ele>
        <time>2021-09-26T07:03:43.000Z</time>
      </trkpt>
      <trkpt lat="47.764218" lon="12.352176">
        <ele>1132.893371</ele>
        <time>2021-09-26T07:03:55.000Z</time>
      </trkpt>
      <trkpt lat="47.764146" lon="12.352275">
        <ele>1135.062383</ele>
        <time>2021-09-26T07:04:10.000Z</time>
      </trkpt>
      <trkpt lat="47.764059" lon="12.352333">
        <ele>1137.171512</ele>
        <time>2021-09-26T07:04:21.000Z</time>
      </trkpt>
      <trkpt lat="47.763964" lon="12.352361">
        <ele>1139.314056</ele>
        <time>2021-09-26T07:04:32.001Z</time>
      </trkpt>
      <trkpt lat="47.763858" lon="12.352428">
        <ele>1141.861989</ele>
        <time>2021-09-26T07:04:51.001Z</time>
      </trkpt>
      <trkpt lat="47.763791" lon="12.352522">
        <ele>1143.899409</ele>
        <time>2021-09-26T07:07:51.000Z</time>
      </trkpt>
      <trkpt lat="47.763691" lon="12.352455">
        <ele>1146.325730</ele>
        <time>2021-09-26T07:09:11.001Z</time>
      </trkpt>
      <trkpt lat="47.763616" lon="12.352554">
        <ele>1147.882590</ele>
        <time>2021-09-26T07:09:21.001Z</time>
      </trkpt>
      <trkpt lat="47.763544" lon="12.352661">
        <ele>1148.972066</ele>
        <time>2021-09-26T07:09:30.000Z</time>
      </trkpt>
      <trkpt lat="47.763454" lon="12.352683">
        <ele>1149.948462</ele>
        <time>2021-09-26T07:09:40.000Z</time>
      </trkpt>
      <trkpt lat="47.763355" lon="12.352682">
        <ele>1151.008309</ele>
        <time>2021-09-26T07:09:49.000Z</time>
      </trkpt>
      <trkpt lat="47.763267" lon="12.352726">
        <ele>1152.002159</ele>
        <time>2021-09-26T07:09:59.000Z</time>
      </trkpt>
      <trkpt lat="47.763214" lon="12.352835">
        <ele>1152.970227</ele>
        <time>2021-09-26T07:10:09.000Z</time>
      </trkpt>
      <trkpt lat="47.763153" lon="12.352946">
        <ele>1154.001953</ele>
        <time>2021-09-26T07:10:21.000Z</time>
      </trkpt>
      <trkpt lat="47.763065" lon="12.352978">
        <ele>1154.971753</ele>
        <time>2021-09-26T07:10:31.001Z</time>
      </trkpt>
      <trkpt lat="47.762982" lon="12.353043">
        <ele>1155.975888</ele>
        <time>2021-09-26T07:10:38.001Z</time>
      </trkpt>
      <trkpt lat="47.762962" lon="12.353194">
        <ele>1157.083389</ele>
        <time>2021-09-26T07:10:47.001Z</time>
      </trkpt>
      <trkpt lat="47.762910" lon="12.353312">
        <ele>1158.098733</ele>
        <time>2021-09-26T07:10:55.001Z</time>
      </trkpt>
      <trkpt lat="47.762833" lon="12.353400">
        <ele>1159.138202</ele>
        <time>2021-09-26T07:11:08.001Z</time>
      </trkpt>
      <trkpt lat="47.762768" lon="12.353503">
        <ele>1160.154850</ele>
        <time>2021-09-26T07:11:21.002Z</time>
      </trkpt>
      <trkpt lat="47.762710" lon="12.353620">
        <ele>1161.200984</ele>
        <time>2021-09-26T07:11:29.000Z</time>
      </trkpt>
      <trkpt lat="47.762611" lon="12.353709">
        <ele>1162.439293</ele>
        <time>2021-09-26T07:11:37.000Z</time>
      </trkpt>
      <trkpt lat="47.762563" lon="12.353836">
        <ele>1163.487756</ele>
        <time>2021-09-26T07:11:46.000Z</time>
      </trkpt>
      <trkpt lat="47.762510" lon="12.353948">
        <ele>1164.473406</ele>
        <time>2021-09-26T07:11:56.000Z</time>
      </trkpt>
      <trkpt lat="47.762442" lon="12.354049">
        <ele>1165.502084</ele>
        <time>2021-09-26T07:12:05.000Z</time>
      </trkpt>
      <trkpt lat="47.762369" lon="12.354137">
        <ele>1166.507938</ele>
        <time>2021-09-26T07:12:16.000Z</time>
      </trkpt>
      <trkpt lat="47.762315" lon="12.354245">
        <ele>1168.340848</ele>
        <time>2021-09-26T07:12:28.000Z</time>
      </trkpt>
      <trkpt lat="47.762239" lon="12.354334">
        <ele>1170.309428</ele>
        <time>2021-09-26T07:12:38.000Z</time>
      </trkpt>
      <trkpt lat="47.762139" lon="12.354374">
        <ele>1172.417007</ele>
        <time>2021-09-26T07:12:54.001Z</time>
      </trkpt>
      <trkpt lat="47.762041" lon="12.354364">
        <ele>1174.416278</ele>
        <time>2021-09-26T07:13:03.001Z</time>
      </trkpt>
      <trkpt lat="47.761970" lon="12.354282">
        <ele>1176.245703</ele>
        <time>2021-09-26T07:13:17.001Z</time>
      </trkpt>
      <trkpt lat="47.761913" lon="12.354177">
        <ele>1178.092201</ele>
        <time>2021-09-26T07:13:31.001Z</time>
      </trkpt>
      <trkpt lat="47.761840" lon="12.354097">
        <ele>1179.937589</ele>
        <time>2021-09-26T07:13:43.999Z</time>
      </trkpt>
      <trkpt lat="47.761743" lon="12.354072">
        <ele>1181.941230</ele>
        <time>2021-09-26T07:13:56.999Z</time>
      </trkpt>
      <trkpt lat="47.761660" lon="12.354144">
        <ele>1183.896752</ele>
        <time>2021-09-26T07:14:07.000Z</time>
      </trkpt>
      <trkpt lat="47.761574" lon="12.354211">
        <ele>1185.872604</ele>
        <time>2021-09-26T07:14:23.000Z</time>
      </trkpt>
      <trkpt lat="47.761482" lon="12.354257">
        <ele>1187.848007</ele>
        <time>2021-09-26T07:14:35.000Z</time>
      </trkpt>
      <trkpt lat="47.761393" lon="12.354295">
        <ele>1189.732547</ele>
        <time>2021-09-26T07:14:48.000Z</time>
      </trkpt>
      <trkpt lat="47.761320" lon="12.354217">
        <ele>1191.561845</ele>
        <time>2021-09-26T07:16:06.999Z</time>
      </trkpt>
      <trkpt lat="47.761251" lon="12.354128">
        <ele>1193.420584</ele>
        <time>2021-09-26T07:16:17.000Z</time>
      </trkpt>
      <trkpt lat="47.761217" lon="12.353995">
        <ele>1195.367382</ele>
        <time>2021-09-26T07:16:29.000Z</time>
      </trkpt>
      <trkpt lat="47.761237" lon="12.353857">
        <ele>1197.298832</ele>
        <time>2021-09-26T07:16:40.000Z</time>
      </trkpt>
      <trkpt lat="47.761210" lon="12.353727">
        <ele>1199.160405</ele>
        <time>2021-09-26T07:16:49.000Z</time>
      </trkpt>
      <trkpt lat="47.761217" lon="12.353581">
        <ele>1201.163002</ele>
        <time>2021-09-26T07:17:00.000Z</time>
      </trkpt>
      <trkpt lat="47.761221" lon="12.353446">
        <ele>1203.011819</ele>
        <time>2021-09-26T07:17:12.001Z</time>
      </trkpt>
      <trkpt lat="47.761197" lon="12.353304">
        <ele>1204.819000</ele>
        <time>2021-09-26T07:17:25.001Z</time>
      </trkpt>
      <trkpt lat="47.761140" lon="12.353195">
        <ele>1206.512384</ele>
        <time>2021-09-26T07:17:40.001Z</time>
      </trkpt>
      <trkpt lat="47.761055" lon="12.353122">
        <ele>1208.302741</ele>
        <time>2021-09-26T07:17:52.999Z</time>
      </trkpt>
      <trkpt lat="47.760979" lon="12.353198">
        <ele>1209.973203</ele>
        <time>2021-09-26T07:18:06.000Z</time>
      </trkpt>
      <trkpt lat="47.760927" lon="12.353320">
        <ele>1211.744575</ele>
        <time>2021-09-26T07:18:18.000Z</time>
      </trkpt>
      <trkpt lat="47.760885" lon="12.353447">
        <ele>1213.480141</ele>
        <time>2021-09-26T07:18:30.000Z</time>
      </trkpt>
      <trkpt lat="47.760794" lon="12.353473">
        <ele>1215.170442</ele>
        <time>2021-09-26T07:18:43.000Z</time>
      </trkpt>
      <trkpt lat="47.760770" lon="12.353337">
        <ele>1216.894626</ele>
        <time>2021-09-26T07:18:56.000Z</time>
      </trkpt>
      <trkpt lat="47.760743" lon="12.353198">
        <ele>1218.668822</ele>
        <time>2021-09-26T07:19:07.001Z</time>
      </trkpt>
      <trkpt lat="47.760650" lon="12.353150">
        <ele>1220.464474</ele>
        <time>2021-09-26T07:19:17.001Z</time>
      </trkpt>
      <trkpt lat="47.760551" lon="12.353156">
        <ele>1222.271865</ele>
        <time>2021-09-26T07:19:29.001Z</time>
      </trkpt>
      <trkpt lat="47.760452" lon="12.353161">
        <ele>1224.078799</ele>
        <time>2021-09-26T07:19:43.001Z</time>
      </trkpt>
      <trkpt lat="47.760354" lon="12.353161">
        <ele>1225.866450</ele>
        <time>2021-09-26T07:19:53.000Z</time>
      </trkpt>
      <trkpt lat="47.760261" lon="12.353171">
        <ele>1227.567321</ele>
        <time>2021-09-26T07:20:09.000Z</time>
      </trkpt>
      <trkpt lat="47.760158" lon="12.353188">
        <ele>1229.457708</ele>
        <time>2021-09-26T07:20:21.000Z</time>
      </trkpt>
      <trkpt lat="47.760028" lon="12.353221">
        <ele>1231.863361</ele>
        <time>2021-09-26T07:31:43.001Z</time>
      </trkpt>
      <trkpt lat="47.759931" lon="12.353250">
        <ele>1233.668153</ele>
        <time>2021-09-26T07:31:55.001Z</time>
      </trkpt>
      <trkpt lat="47.759837" lon="12.353303">
        <ele>1235.501875</ele>
        <time>2021-09-26T07:32:04.001Z</time>
      </trkpt>
      <trkpt lat="47.759749" lon="12.353356">
        <ele>1237.277876</ele>
        <time>2021-09-26T07:32:13.001Z</time>
      </trkpt>
      <trkpt lat="47.759662" lon="12.353410">
        <ele>1239.055978</ele>
        <time>2021-09-26T07:32:23.001Z</time>
      </trkpt>
      <trkpt lat="47.759567" lon="12.353447">
        <ele>1240.908254</ele>
        <time>2021-09-26T07:32:31.999Z</time>
      </trkpt>
      <trkpt lat="47.759484" lon="12.353508">
        <ele>1242.654436</ele>
        <time>2021-09-26T07:32:41.999Z</time>
      </trkpt>
      <trkpt lat="47.759406" lon="12.353585">
        <ele>1244.420152</ele>
        <time>2021-09-26T07:32:51.999Z</time>
      </trkpt>
      <trkpt lat="47.759318" lon="12.353633">
        <ele>1246.188064</ele>
        <time>2021-09-26T07:33:02.000Z</time>
      </trkpt>
      <trkpt lat="47.759256" lon="12.353740">
        <ele>1247.979245</ele>
        <time>2021-09-26T07:33:13.000Z</time>
      </trkpt>
      <trkpt lat="47.759177" lon="12.353811">
        <ele>1249.720177</ele>
        <time>2021-09-26T07:33:21.000Z</time>
      </trkpt>
      <trkpt lat="47.759118" lon="12.353933">
        <ele>1251.625819</ele>
        <time>2021-09-26T07:33:31.000Z</time>
      </trkpt>
      <trkpt lat="47.759044" lon="12.354012">
        <ele>1253.343847</ele>
        <time>2021-09-26T07:33:41.000Z</time>
      </trkpt>
      <trkpt lat="47.758980" lon="12.354107">
        <ele>1255.049213</ele>
        <time>2021-09-26T07:33:51.001Z</time>
      </trkpt>
      <trkpt lat="47.758914" lon="12.354224">
        <ele>1256.985874</ele>
        <time>2021-09-26T07:34:02.001Z</time>
      </trkpt>
      <trkpt lat="47.758863" lon="12.354339">
        <ele>1258.732780</ele>
        <time>2021-09-26T07:34:13.001Z</time>
      </trkpt>
      <trkpt lat="47.758850" lon="12.354475">
        <ele>1260.474597</ele>
        <time>2021-09-26T07:34:23.001Z</time>
      </trkpt>
      <trkpt lat="47.758860" lon="12.354617">
        <ele>1262.285000</ele>
        <time>2021-09-26T07:34:33.001Z</time>
      </trkpt>
      <trkpt lat="47.758868" lon="12.354760">
        <ele>1264.104499</ele>
        <time>2021-09-26T07:34:41.999Z</time>
      </trkpt>
      <trkpt lat="47.758873" lon="12.354905">
        <ele>1265.945506</ele>
        <time>2021-09-26T07:34:54.999Z</time>
      </trkpt>
      <trkpt lat="47.758847" lon="12.355044">
        <ele>1267.774972</ele>
        <time>2021-09-26T07:35:10.000Z</time>
      </trkpt>
      <trkpt lat="47.758860" lon="12.355182">
        <ele>1269.541900</ele>
        <time>2021-09-26T07:35:20.000Z</time>
      </trkpt>
      <trkpt lat="47.758862" lon="12.355327">
        <ele>1271.359177</ele>
        <time>2021-09-26T07:35:33.000Z</time>
      </trkpt>
      <trkpt lat="47.758856" lon="12.355469">
        <ele>1273.137529</ele>
        <time>2021-09-26T07:35:44.000Z</time>
      </trkpt>
      <trkpt lat="47.758871" lon="12.355604">
        <ele>1274.847780</ele>
        <time>2021-09-26T07:35:53.000Z</time>
      </trkpt>
      <trkpt lat="47.758858" lon="12.355743">
        <ele>1276.601866</ele>
        <time>2021-09-26T07:36:04.001Z</time>
      </trkpt>
      <trkpt lat="47.758853" lon="12.355876">
        <ele>1278.266823</ele>
        <time>2021-09-26T07:36:14.001Z</time>
      </trkpt>
      <trkpt lat="47.758854" lon="12.356012">
        <ele>1279.966782</ele>
        <time>2021-09-26T07:36:24.001Z</time>
      </trkpt>
      <trkpt lat="47.758856" lon="12.356217">
        <ele>1282.529336</ele>
        <time>2021-09-26T07:37:13.999Z</time>
      </trkpt>
      <trkpt lat="47.758790" lon="12.356322">
        <ele>1284.326049</ele>
        <time>2021-09-26T07:37:33.000Z</time>
      </trkpt>
      <trkpt lat="47.758709" lon="12.356227">
        <ele>1286.243854</ele>
        <time>2021-09-26T07:37:46.000Z</time>
      </trkpt>
      <trkpt lat="47.758658" lon="12.356113">
        <ele>1287.955410</ele>
        <time>2021-09-26T07:37:57.000Z</time>
      </trkpt>
      <trkpt lat="47.758607" lon="12.355995">
        <ele>1289.708809</ele>
        <time>2021-09-26T07:38:06.001Z</time>
      </trkpt>
      <trkpt lat="47.758539" lon="12.355889">
        <ele>1291.540148</ele>
        <time>2021-09-26T07:38:16.001Z</time>
      </trkpt>
      <trkpt lat="47.758463" lon="12.355816">
        <ele>1293.222174</ele>
        <time>2021-09-26T07:38:24.001Z</time>
      </trkpt>
      <trkpt lat="47.758415" lon="12.355700">
        <ele>1294.924714</ele>
        <time>2021-09-26T07:38:33.001Z</time>
      </trkpt>
      <trkpt lat="47.758356" lon="12.355581">
        <ele>1296.772864</ele>
        <time>2021-09-26T07:38:45.001Z</time>
      </trkpt>
      <trkpt lat="47.758286" lon="12.355491">
        <ele>1298.493126</ele>
        <time>2021-09-26T07:38:59.999Z</time>
      </trkpt>
      <trkpt lat="47.758205" lon="12.355571">
        <ele>1300.300860</ele>
        <time>2021-09-26T07:39:12.000Z</time>
      </trkpt>
      <trkpt lat="47.758184" lon="12.355703">
        <ele>1301.996312</ele>
        <time>2021-09-26T07:39:27.000Z</time>
      </trkpt>
      <trkpt lat="47.758133" lon="12.355824">
        <ele>1303.765513</ele>
        <time>2021-09-26T07:39:41.000Z</time>
      </trkpt>
      <trkpt lat="47.758081" lon="12.355942">
        <ele>1305.470675</ele>
        <time>2021-09-26T07:39:55.000Z</time>
      </trkpt>
      <trkpt lat="47.758054" lon="12.356071">
        <ele>1307.103506</ele>
        <time>2021-09-26T07:40:08.001Z</time>
      </trkpt>
      <trkpt lat="47.758038" lon="12.356207">
        <ele>1308.772102</ele>
        <time>2021-09-26T07:40:24.001Z</time>
      </trkpt>
      <trkpt lat="47.758027" lon="12.356349">
        <ele>1310.499587</ele>
        <time>2021-09-26T07:40:36.001Z</time>
      </trkpt>
      <trkpt lat="47.758028" lon="12.356489">
        <ele>1312.191642</ele>
        <time>2021-09-26T07:40:47.002Z</time>
      </trkpt>
      <trkpt lat="47.758048" lon="12.356632">
        <ele>1313.956861</ele>
        <time>2021-09-26T07:41:04.000Z</time>
      </trkpt>
      <trkpt lat="47.758052" lon="12.356771">
        <ele>1315.638273</ele>
        <time>2021-09-26T07:41:19.000Z</time>
      </trkpt>
      <trkpt lat="47.758011" lon="12.356891">
        <ele>1317.265077</ele>
        <time>2021-09-26T07:41:34.000Z</time>
      </trkpt>
      <trkpt lat="47.758015" lon="12.357026">
        <ele>1318.898194</ele>
        <time>2021-09-26T07:41:47.000Z</time>
      </trkpt>
      <trkpt lat="47.758027" lon="12.357166">
        <ele>1320.603851</ele>
        <time>2021-09-26T07:42:05.001Z</time>
      </trkpt>
      <trkpt lat="47.758055" lon="12.357297">
        <ele>1322.265134</ele>
        <time>2021-09-26T07:42:20.001Z</time>
      </trkpt>
      <trkpt lat="47.758078" lon="12.357442">
        <ele>1324.065639</ele>
        <time>2021-09-26T07:42:30.001Z</time>
      </trkpt>
      <trkpt lat="47.758111" lon="12.357570">
        <ele>1325.722425</ele>
        <time>2021-09-26T07:42:41.001Z</time>
      </trkpt>
      <trkpt lat="47.758156" lon="12.357689">
        <ele>1327.372502</ele>
        <time>2021-09-26T07:42:54.002Z</time>
      </trkpt>
      <trkpt lat="47.758221" lon="12.357792">
        <ele>1329.079825</ele>
        <time>2021-09-26T07:43:07.000Z</time>
      </trkpt>
      <trkpt lat="47.758293" lon="12.357885">
        <ele>1330.794061</ele>
        <time>2021-09-26T07:43:20.000Z</time>
      </trkpt>
      <trkpt lat="47.758366" lon="12.358092">
        <ele>1333.619052</ele>
        <time>2021-09-26T07:44:16.001Z</time>
      </trkpt>
      <trkpt lat="47.758397" lon="12.358227">
        <ele>1335.343128</ele>
        <time>2021-09-26T07:44:27.001Z</time>
      </trkpt>
      <trkpt lat="47.758423" lon="12.358369">
        <ele>1336.542130</ele>
        <time>2021-09-26T07:44:36.001Z</time>
      </trkpt>
      <trkpt lat="47.758420" lon="12.358503">
        <ele>1337.530055</ele>
        <time>2021-09-26T07:44:45.001Z</time>
      </trkpt>
      <trkpt lat="47.758456" lon="12.358641">
        <ele>1338.620782</ele>
        <time>2021-09-26T07:44:55.001Z</time>
      </trkpt>
      <trkpt lat="47.758504" lon="12.358776">
        <ele>1339.746090</ele>
        <time>2021-09-26T07:45:07.000Z</time>
      </trkpt>
      <trkpt lat="47.758547" lon="12.358917">
        <ele>1340.886951</ele>
        <time>2021-09-26T07:45:17.000Z</time>
      </trkpt>
      <trkpt lat="47.758580" lon="12.359047">
        <ele>1341.910868</ele>
        <time>2021-09-26T07:45:26.000Z</time>
      </trkpt>
      <trkpt lat="47.758610" lon="12.359186">
        <ele>1342.986574</ele>
        <time>2021-09-26T07:45:37.000Z</time>
      </trkpt>
      <trkpt lat="47.758654" lon="12.359305">
        <ele>1343.987298</ele>
        <time>2021-09-26T07:45:47.000Z</time>
      </trkpt>
      <trkpt lat="47.758713" lon="12.359410">
        <ele>1344.995661</ele>
        <time>2021-09-26T07:45:56.000Z</time>
      </trkpt>
      <trkpt lat="47.758775" lon="12.359527">
        <ele>1346.093407</ele>
        <time>2021-09-26T07:46:04.000Z</time>
      </trkpt>
      <trkpt lat="47.758843" lon="12.359629">
        <ele>1347.151894</ele>
        <time>2021-09-26T07:46:13.001Z</time>
      </trkpt>
      <trkpt lat="47.758925" lon="12.359701">
        <ele>1348.195577</ele>
        <time>2021-09-26T07:46:23.001Z</time>
      </trkpt>
      <trkpt lat="47.759012" lon="12.359748">
        <ele>1349.210106</ele>
        <time>2021-09-26T07:46:33.001Z</time>
      </trkpt>
      <trkpt lat="47.759024" lon="12.359894">
        <ele>1350.293903</ele>
        <time>2021-09-26T07:46:43.001Z</time>
      </trkpt>
      <trkpt lat="47.759021" lon="12.360031">
        <ele>1351.303910</ele>
        <time>2021-09-26T07:46:54.001Z</time>
      </trkpt>
      <trkpt lat="47.759042" lon="12.360166">
        <ele>1352.324928</ele>
        <time>2021-09-26T07:47:05.002Z</time>
      </trkpt>
      <trkpt lat="47.759036" lon="12.360308">
        <ele>1353.373305</ele>
        <time>2021-09-26T07:47:13.000Z</time>
      </trkpt>
      <trkpt lat="47.759028" lon="12.360443">
        <ele>1354.371896</ele>
        <time>2021-09-26T07:47:21.000Z</time>
      </trkpt>
      <trkpt lat="47.759008" lon="12.360576">
        <ele>1355.369027</ele>
        <time>2021-09-26T07:47:29.000Z</time>
      </trkpt>
      <trkpt lat="47.759012" lon="12.360724">
        <ele>1356.149663</ele>
        <time>2021-09-26T07:47:39.000Z</time>
      </trkpt>
      <trkpt lat="47.759015" lon="12.360862">
        <ele>1356.877347</ele>
        <time>2021-09-26T07:47:47.000Z</time>
      </trkpt>
      <trkpt lat="47.758997" lon="12.360997">
        <ele>1357.602699</ele>
        <time>2021-09-26T07:47:56.000Z</time>
      </trkpt>
      <trkpt lat="47.759061" lon="12.361099">
        <ele>1358.338045</ele>
        <time>2021-09-26T07:48:04.000Z</time>
      </trkpt>
      <trkpt lat="47.759146" lon="12.361150">
        <ele>1359.056594</ele>
        <time>2021-09-26T07:48:13.000Z</time>
      </trkpt>
      <trkpt lat="47.759245" lon="12.361160">
        <ele>1359.834523</ele>
        <time>2021-09-26T07:48:22.001Z</time>
      </trkpt>
      <trkpt lat="47.759328" lon="12.361242">
        <ele>1360.615663</ele>
        <time>2021-09-26T07:48:30.001Z</time>
      </trkpt>
      <trkpt lat="47.759411" lon="12.361299">
        <ele>1361.332364</ele>
        <time>2021-09-26T07:48:38.001Z</time>
      </trkpt>
      <trkpt lat="47.759493" lon="12.361373">
        <ele>1362.084278</ele>
        <time>2021-09-26T07:48:45.001Z</time>
      </trkpt>
      <trkpt lat="47.759554" lon="12.361474">
        <ele>1362.799849</ele>
        <time>2021-09-26T07:48:53.001Z</time>
      </trkpt>
      <trkpt lat="47.759609" lon="12.361601">
        <ele>1363.596038</ele>
        <time>2021-09-26T07:49:03.001Z</time>
      </trkpt>
      <trkpt lat="47.759665" lon="12.361708">
        <ele>1364.310705</ele>
        <time>2021-09-26T07:49:12.001Z</time>
      </trkpt>
      <trkpt lat="47.759738" lon="12.361805">
        <ele>1365.078086</ele>
        <time>2021-09-26T07:49:20.000Z</time>
      </trkpt>
      <trkpt lat="47.759796" lon="12.361929">
        <ele>1365.874223</ele>
        <time>2021-09-26T07:49:28.000Z</time>
      </trkpt>
      <trkpt lat="47.759848" lon="12.362039">
        <ele>1366.582938</ele>
        <time>2021-09-26T07:49:36.000Z</time>
      </trkpt>
      <trkpt lat="47.759866" lon="12.362189">
        <ele>1367.385968</ele>
        <time>2021-09-26T07:49:45.000Z</time>
      </trkpt>
      <trkpt lat="47.759932" lon="12.362307">
        <ele>1368.194964</ele>
        <time>2021-09-26T07:49:53.000Z</time>
      </trkpt>
      <trkpt lat="47.759986" lon="12.362425">
        <ele>1368.947271</ele>
        <time>2021-09-26T07:50:03.000Z</time>
      </trkpt>
      <trkpt lat="47.760041" lon="12.362550">
        <ele>1369.846348</ele>
        <time>2021-09-26T07:50:13.000Z</time>
      </trkpt>
      <trkpt lat="47.760056" lon="12.362699">
        <ele>1370.954551</ele>
        <time>2021-09-26T07:50:22.000Z</time>
      </trkpt>
      <trkpt lat="47.760105" lon="12.362826">
        <ele>1372.031638</ele>
        <time>2021-09-26T07:50:29.000Z</time>
      </trkpt>
      <trkpt lat="47.760108" lon="12.362962">
        <ele>1373.032534</ele>
        <time>2021-09-26T07:50:39.001Z</time>
      </trkpt>
      <trkpt lat="47.760157" lon="12.363100">
        <ele>1374.180501</ele>
        <time>2021-09-26T07:50:47.001Z</time>
      </trkpt>
      <trkpt lat="47.760223" lon="12.363237">
        <ele>1375.420264</ele>
        <time>2021-09-26T07:50:56.001Z</time>
      </trkpt>
      <trkpt lat="47.760220" lon="12.363383">
        <ele>1376.494677</ele>
        <time>2021-09-26T07:51:04.001Z</time>
      </trkpt>
      <trkpt lat="47.760244" lon="12.363526">
        <ele>1377.578808</ele>
        <time>2021-09-26T07:51:13.001Z</time>
      </trkpt>
      <trkpt lat="47.760250" lon="12.363663">
        <ele>1378.588656</ele>
        <time>2021-09-26T07:51:21.001Z</time>
      </trkpt>
      <trkpt lat="47.760262" lon="12.363815">
        <ele>1379.714384</ele>
        <time>2021-09-26T07:51:29.000Z</time>
      </trkpt>
      <trkpt lat="47.760286" lon="12.363952">
        <ele>1380.755750</ele>
        <time>2021-09-26T07:51:38.000Z</time>
      </trkpt>
      <trkpt lat="47.760292" lon="12.364090">
        <ele>1381.772937</ele>
        <time>2021-09-26T07:51:44.000Z</time>
      </trkpt>
      <trkpt lat="47.760318" lon="12.364237">
        <ele>1382.891002</ele>
        <time>2021-09-26T07:51:54.000Z</time>
      </trkpt>
      <trkpt lat="47.760313" lon="12.364375">
        <ele>1383.907541</ele>
        <time>2021-09-26T07:52:04.000Z</time>
      </trkpt>
      <trkpt lat="47.760345" lon="12.364509">
        <ele>1384.953530</ele>
        <time>2021-09-26T07:52:13.000Z</time>
      </trkpt>
      <trkpt lat="47.760374" lon="12.364646">
        <ele>1386.010018</ele>
        <time>2021-09-26T07:52:21.000Z</time>
      </trkpt>
      <trkpt lat="47.760378" lon="12.364788">
        <ele>1387.055421</ele>
        <time>2021-09-26T07:52:28.000Z</time>
      </trkpt>
      <trkpt lat="47.760400" lon="12.364925">
        <ele>1388.091483</ele>
        <time>2021-09-26T07:52:35.000Z</time>
      </trkpt>
      <trkpt lat="47.760418" lon="12.365062">
        <ele>1389.118258</ele>
        <time>2021-09-26T07:52:44.001Z</time>
      </trkpt>
      <trkpt lat="47.760415" lon="12.365196">
        <ele>1389.956948</ele>
        <time>2021-09-26T07:52:52.001Z</time>
      </trkpt>
      <trkpt lat="47.760442" lon="12.365340">
        <ele>1390.889630</ele>
        <time>2021-09-26T07:53:04.001Z</time>
      </trkpt>
      <trkpt lat="47.760461" lon="12.365472">
        <ele>1391.731821</ele>
        <time>2021-09-26T07:53:11.001Z</time>
      </trkpt>
      <trkpt lat="47.760499" lon="12.365608">
        <ele>1392.650674</ele>
        <time>2021-09-26T07:53:21.001Z</time>
      </trkpt>
      <trkpt lat="47.760533" lon="12.365751">
        <ele>1393.596983</ele>
        <time>2021-09-26T07:53:31.000Z</time>
      </trkpt>
      <trkpt lat="47.760539" lon="12.365892">
        <ele>1394.478416</ele>
        <time>2021-09-26T07:53:41.000Z</time>
      </trkpt>
      <trkpt lat="47.760549" lon="12.366032">
        <ele>1395.356766</ele>
        <time>2021-09-26T07:53:50.000Z</time>
      </trkpt>
      <trkpt lat="47.760579" lon="12.366160">
        <ele>1396.202478</ele>
        <time>2021-09-26T07:53:59.000Z</time>
      </trkpt>
      <trkpt lat="47.760625" lon="12.366276">
        <ele>1397.042715</ele>
        <time>2021-09-26T07:54:08.000Z</time>
      </trkpt>
      <trkpt lat="47.760651" lon="12.366416">
        <ele>1397.948865</ele>
        <time>2021-09-26T07:54:16.000Z</time>
      </trkpt>
      <trkpt lat="47.760614" lon="12.366547">
        <ele>1398.835356</ele>
        <time>2021-09-26T07:54:25.000Z</time>
      </trkpt>
      <trkpt lat="47.760602" lon="12.366697">
        <ele>1399.777779</ele>
        <time>2021-09-26T07:54:34.000Z</time>
      </trkpt>
      <trkpt lat="47.760640" lon="12.366819">
        <ele>1400.616647</ele>
        <time>2021-09-26T07:54:42.000Z</time>
      </trkpt>
      <trkpt lat="47.760720" lon="12.366913">
        <ele>1401.562780</ele>
        <time>2021-09-26T07:54:52.001Z</time>
      </trkpt>
      <trkpt lat="47.760758" lon="12.367035">
        <ele>1402.401646</ele>
        <time>2021-09-26T07:55:02.001Z</time>
      </trkpt>
      <trkpt lat="47.760731" lon="12.367167">
        <ele>1403.262445</ele>
        <time>2021-09-26T07:55:16.001Z</time>
      </trkpt>
      <trkpt lat="47.760656" lon="12.367249">
        <ele>1404.126279</ele>
        <time>2021-09-26T07:55:23.001Z</time>
      </trkpt>
      <trkpt lat="47.760562" lon="12.367267">
        <ele>1405.005868</ele>
        <time>2021-09-26T07:55:34.000Z</time>
      </trkpt>
      <trkpt lat="47.760466" lon="12.367249">
        <ele>1405.828819</ele>
        <time>2021-09-26T07:55:44.000Z</time>
      </trkpt>
      <trkpt lat="47.760378" lon="12.367220">
        <ele>1405.862413</ele>
        <time>2021-09-26T07:55:51.999Z</time>
      </trkpt>
      <trkpt lat="47.760293" lon="12.367138">
        <ele>1405.900173</ele>
        <time>2021-09-26T07:56:03.000Z</time>
      </trkpt>
      <trkpt lat="47.760200" lon="12.367016">
        <ele>1405.946389</ele>
        <time>2021-09-26T08:00:28.000Z</time>
      </trkpt>
      <trkpt lat="47.760175" lon="12.366873">
        <ele>1405.983411</ele>
        <time>2021-09-26T08:00:39.000Z</time>
      </trkpt>
      <trkpt lat="47.760149" lon="12.366729">
        <ele>1406.020770</ele>
        <time>2021-09-26T08:00:49.000Z</time>
      </trkpt>
      <trkpt lat="47.760113" lon="12.366599">
        <ele>1406.055997</ele>
        <time>2021-09-26T08:00:58.000Z</time>
      </trkpt>
      <trkpt lat="47.760098" lon="12.366454">
        <ele>1406.092756</ele>
        <time>2021-09-26T08:01:07.001Z</time>
      </trkpt>
      <trkpt lat="47.760067" lon="12.366321">
        <ele>1406.128026</ele>
        <time>2021-09-26T08:01:16.001Z</time>
      </trkpt>
      <trkpt lat="47.760035" lon="12.366181">
        <ele>1406.165076</ele>
        <time>2021-09-26T08:01:26.001Z</time>
      </trkpt>
      <trkpt lat="47.760057" lon="12.366318">
        <ele>1406.200368</ele>
        <time>2021-09-26T08:04:55.999Z</time>
      </trkpt>
      <trkpt lat="47.760096" lon="12.366461">
        <ele>1406.239034</ele>
        <time>2021-09-26T08:05:01.999Z</time>
      </trkpt>
      <trkpt lat="47.760129" lon="12.366599">
        <ele>1406.275734</ele>
        <time>2021-09-26T08:05:07.999Z</time>
      </trkpt>
      <trkpt lat="47.760146" lon="12.366751">
        <ele>1406.314342</ele>
        <time>2021-09-26T08:05:14.000Z</time>
      </trkpt>
      <trkpt lat="47.760167" lon="12.366885">
        <ele>1406.348817</ele>
        <time>2021-09-26T08:05:20.000Z</time>
      </trkpt>
      <trkpt lat="47.760204" lon="12.367020">
        <ele>1406.385345</ele>
        <time>2021-09-26T08:05:26.000Z</time>
      </trkpt>
      <trkpt lat="47.760276" lon="12.367127">
        <ele>1406.423278</ele>
        <time>2021-09-26T08:05:33.000Z</time>
      </trkpt>
      <trkpt lat="47.760365" lon="12.367179">
        <ele>1406.458917</ele>
        <time>2021-09-26T08:05:39.000Z</time>
      </trkpt>
      <trkpt lat="47.760446" lon="12.367237">
        <ele>1406.492423</ele>
        <time>2021-09-26T08:05:45.000Z</time>
      </trkpt>
      <trkpt lat="47.760541" lon="12.367261">
        <ele>1405.714890</ele>
        <time>2021-09-26T08:05:51.000Z</time>
      </trkpt>
      <trkpt lat="47.760634" lon="12.367260">
        <ele>1404.875703</ele>
        <time>2021-09-26T08:05:57.001Z</time>
      </trkpt>
      <trkpt lat="47.760731" lon="12.367237">
        <ele>1403.989396</ele>
        <time>2021-09-26T08:06:03.001Z</time>
      </trkpt>
      <trkpt lat="47.760785" lon="12.367125">
        <ele>1403.153365</ele>
        <time>2021-09-26T08:06:08.997Z</time>
      </trkpt>
      <trkpt lat="47.760793" lon="12.366973">
        <ele>1402.228558</ele>
        <time>2021-09-26T08:06:14.997Z</time>
      </trkpt>
      <trkpt lat="47.760733" lon="12.366860">
        <ele>1401.355107</ele>
        <time>2021-09-26T08:06:20.997Z</time>
      </trkpt>
      <trkpt lat="47.760650" lon="12.366770">
        <ele>1400.428327</ele>
        <time>2021-09-26T08:06:26.998Z</time>
      </trkpt>
      <trkpt lat="47.760611" lon="12.366638">
        <ele>1399.553731</ele>
        <time>2021-09-26T08:06:32.998Z</time>
      </trkpt>
      <trkpt lat="47.760643" lon="12.366501">
        <ele>1398.673992</ele>
        <time>2021-09-26T08:06:38.998Z</time>
      </trkpt>
      <trkpt lat="47.760661" lon="12.366354">
        <ele>1397.767661</ele>
        <time>2021-09-26T08:06:44.999Z</time>
      </trkpt>
      <trkpt lat="47.760633" lon="12.366222">
        <ele>1396.928070</ele>
        <time>2021-09-26T08:06:50.999Z</time>
      </trkpt>
      <trkpt lat="47.760587" lon="12.366100">
        <ele>1396.079595</ele>
        <time>2021-09-26T08:06:56.999Z</time>
      </trkpt>
      <trkpt lat="47.760551" lon="12.365958">
        <ele>1395.159045</ele>
        <time>2021-09-26T08:07:02.999Z</time>
      </trkpt>
      <trkpt lat="47.760529" lon="12.365828">
        <ele>1394.345897</ele>
        <time>2021-09-26T08:07:08.999Z</time>
      </trkpt>
      <trkpt lat="47.760522" lon="12.365682">
        <ele>1393.458051</ele>
        <time>2021-09-26T08:07:14.999Z</time>
      </trkpt>
      <trkpt lat="47.760496" lon="12.365541">
        <ele>1392.571190</ele>
        <time>2021-09-26T08:07:21.000Z</time>
      </trkpt>
      <trkpt lat="47.760485" lon="12.365408">
        <ele>1391.758365</ele>
        <time>2021-09-26T08:07:27.000Z</time>
      </trkpt>
      <trkpt lat="47.760473" lon="12.365258">
        <ele>1390.842085</ele>
        <time>2021-09-26T08:07:33.000Z</time>
      </trkpt>
      <trkpt lat="47.760451" lon="12.365124">
        <ele>1389.946106</ele>
        <time>2021-09-26T08:07:39.000Z</time>
      </trkpt>
      <trkpt lat="47.760454" lon="12.364980">
        <ele>1388.873755</ele>
        <time>2021-09-26T08:07:45.000Z</time>
      </trkpt>
      <trkpt lat="47.760432" lon="12.364836">
        <ele>1387.774586</ele>
        <time>2021-09-26T08:07:52.000Z</time>
      </trkpt>
      <trkpt lat="47.760436" lon="12.364685">
        <ele>1386.649774</ele>
        <time>2021-09-26T08:07:58.001Z</time>
      </trkpt>
      <trkpt lat="47.760419" lon="12.364542">
        <ele>1385.568865</ele>
        <time>2021-09-26T08:08:04.001Z</time>
      </trkpt>
      <trkpt lat="47.760380" lon="12.364398">
        <ele>1384.413308</ele>
        <time>2021-09-26T08:08:10.999Z</time>
      </trkpt>
      <trkpt lat="47.760365" lon="12.364258">
        <ele>1383.358091</ele>
        <time>2021-09-26T08:08:16.998Z</time>
      </trkpt>
      <trkpt lat="47.760351" lon="12.364112">
        <ele>1382.260366</ele>
        <time>2021-09-26T08:08:23.998Z</time>
      </trkpt>
      <trkpt lat="47.760333" lon="12.363966">
        <ele>1381.155516</ele>
        <time>2021-09-26T08:08:30.998Z</time>
      </trkpt>
      <trkpt lat="47.760310" lon="12.363825">
        <ele>1380.075551</ele>
        <time>2021-09-26T08:08:36.998Z</time>
      </trkpt>
      <trkpt lat="47.760272" lon="12.363682">
        <ele>1378.931009</ele>
        <time>2021-09-26T08:08:43.999Z</time>
      </trkpt>
      <trkpt lat="47.760256" lon="12.363536">
        <ele>1377.829937</ele>
        <time>2021-09-26T08:08:49.999Z</time>
      </trkpt>
      <trkpt lat="47.760220" lon="12.363400">
        <ele>1376.741989</ele>
        <time>2021-09-26T08:08:55.999Z</time>
      </trkpt>
      <trkpt lat="47.760185" lon="12.363256">
        <ele>1375.602239</ele>
        <time>2021-09-26T08:09:03.999Z</time>
      </trkpt>
      <trkpt lat="47.760159" lon="12.363109">
        <ele>1374.470829</ele>
        <time>2021-09-26T08:09:09.999Z</time>
      </trkpt>
      <trkpt lat="47.760150" lon="12.362972">
        <ele>1373.446232</ele>
        <time>2021-09-26T08:09:16.001Z</time>
      </trkpt>
      <trkpt lat="47.760103" lon="12.362842">
        <ele>1372.347531</ele>
        <time>2021-09-26T08:09:22.001Z</time>
      </trkpt>
      <trkpt lat="47.760066" lon="12.362713">
        <ele>1371.303590</ele>
        <time>2021-09-26T08:09:29.001Z</time>
      </trkpt>
      <trkpt lat="47.760041" lon="12.362578">
        <ele>1370.277693</ele>
        <time>2021-09-26T08:09:37.001Z</time>
      </trkpt>
      <trkpt lat="47.760004" lon="12.362437">
        <ele>1369.357181</ele>
        <time>2021-09-26T08:09:43.001Z</time>
      </trkpt>
      <trkpt lat="47.759938" lon="12.362341">
        <ele>1368.522099</ele>
        <time>2021-09-26T08:09:48.001Z</time>
      </trkpt>
      <trkpt lat="47.759906" lon="12.362215">
        <ele>1367.702962</ele>
        <time>2021-09-26T08:09:54.002Z</time>
      </trkpt>
      <trkpt lat="47.759854" lon="12.362103">
        <ele>1366.875166</ele>
        <time>2021-09-26T08:10:01.002Z</time>
      </trkpt>
      <trkpt lat="47.759818" lon="12.361952">
        <ele>1365.900810</ele>
        <time>2021-09-26T08:10:08.002Z</time>
      </trkpt>
      <trkpt lat="47.759755" lon="12.361843">
        <ele>1365.026591</ele>
        <time>2021-09-26T08:10:14.002Z</time>
      </trkpt>
      <trkpt lat="47.759691" lon="12.361739">
        <ele>1364.169116</ele>
        <time>2021-09-26T08:10:19.999Z</time>
      </trkpt>
      <trkpt lat="47.759626" lon="12.361619">
        <ele>1363.231897</ele>
        <time>2021-09-26T08:10:26.999Z</time>
      </trkpt>
      <trkpt lat="47.759554" lon="12.361507">
        <ele>1362.289442</ele>
        <time>2021-09-26T08:10:32.999Z</time>
      </trkpt>
      <trkpt lat="47.759476" lon="12.361396">
        <ele>1361.312900</ele>
        <time>2021-09-26T08:10:39.999Z</time>
      </trkpt>
      <trkpt lat="47.759404" lon="12.361297">
        <ele>1360.425898</ele>
        <time>2021-09-26T08:10:46.999Z</time>
      </trkpt>
      <trkpt lat="47.759318" lon="12.361236">
        <ele>1359.563961</ele>
        <time>2021-09-26T08:10:52.999Z</time>
      </trkpt>
      <trkpt lat="47.759227" lon="12.361187">
        <ele>1358.688436</ele>
        <time>2021-09-26T08:10:58.001Z</time>
      </trkpt>
      <trkpt lat="47.759136" lon="12.361124">
        <ele>1357.780394</ele>
        <time>2021-09-26T08:11:05.001Z</time>
      </trkpt>
      <trkpt lat="47.759052" lon="12.361042">
        <ele>1356.871450</ele>
        <time>2021-09-26T08:11:12.001Z</time>
      </trkpt>
      <trkpt lat="47.759026" lon="12.360907">
        <ele>1356.017398</ele>
        <time>2021-09-26T08:11:18.001Z</time>
      </trkpt>
      <trkpt lat="47.759043" lon="12.360775">
        <ele>1355.200021</ele>
        <time>2021-09-26T08:11:24.001Z</time>
      </trkpt>
      <trkpt lat="47.759048" lon="12.360619">
        <ele>1354.250206</ele>
        <time>2021-09-26T08:11:31.001Z</time>
      </trkpt>
      <trkpt lat="47.759069" lon="12.360480">
        <ele>1353.284026</ele>
        <time>2021-09-26T08:11:38.002Z</time>
      </trkpt>
      <trkpt lat="47.759071" lon="12.360336">
        <ele>1352.282421</ele>
        <time>2021-09-26T08:11:43.002Z</time>
      </trkpt>
      <trkpt lat="47.759054" lon="12.360203">
        <ele>1351.340955</ele>
        <time>2021-09-26T08:11:48.002Z</time>
      </trkpt>
      <trkpt lat="47.759057" lon="12.360058">
        <ele>1350.332133</ele>
        <time>2021-09-26T08:11:54.002Z</time>
      </trkpt>
      <trkpt lat="47.759051" lon="12.359914">
        <ele>1349.328820</ele>
        <time>2021-09-26T08:12:01.002Z</time>
      </trkpt>
      <trkpt lat="47.759006" lon="12.359770">
        <ele>1348.224519</ele>
        <time>2021-09-26T08:12:07.002Z</time>
      </trkpt>
      <trkpt lat="47.758929" lon="12.359656">
        <ele>1347.100713</ele>
        <time>2021-09-26T08:12:14.002Z</time>
      </trkpt>
      <trkpt lat="47.758839" lon="12.359587">
        <ele>1346.053328</ele>
        <time>2021-09-26T08:12:20.003Z</time>
      </trkpt>
      <trkpt lat="47.758764" lon="12.359500">
        <ele>1345.069476</ele>
        <time>2021-09-26T08:12:25.001Z</time>
      </trkpt>
      <trkpt lat="47.758686" lon="12.359406">
        <ele>1344.031037</ele>
        <time>2021-09-26T08:12:31.001Z</time>
      </trkpt>
      <trkpt lat="47.758654" lon="12.359267">
        <ele>1343.009300</ele>
        <time>2021-09-26T08:12:38.001Z</time>
      </trkpt>
      <trkpt lat="47.758593" lon="12.359142">
        <ele>1341.935144</ele>
        <time>2021-09-26T08:12:44.000Z</time>
      </trkpt>
      <trkpt lat="47.758579" lon="12.358990">
        <ele>1340.868235</ele>
        <time>2021-09-26T08:12:50.001Z</time>
      </trkpt>
      <trkpt lat="47.758558" lon="12.358854">
        <ele>1339.897840</ele>
        <time>2021-09-26T08:12:56.001Z</time>
      </trkpt>
      <trkpt lat="47.758514" lon="12.358719">
        <ele>1338.854508</ele>
        <time>2021-09-26T08:13:03.001Z</time>
      </trkpt>
      <trkpt lat="47.758464" lon="12.358602">
        <ele>1337.890386</ele>
        <time>2021-09-26T08:13:09.001Z</time>
      </trkpt>
      <trkpt lat="47.758415" lon="12.358477">
        <ele>1336.884123</ele>
        <time>2021-09-26T08:13:16.001Z</time>
      </trkpt>
      <trkpt lat="47.758399" lon="12.358329">
        <ele>1335.841679</ele>
        <time>2021-09-26T08:13:23.001Z</time>
      </trkpt>
      <trkpt lat="47.758388" lon="12.358193">
        <ele>1334.456516</ele>
        <time>2021-09-26T08:13:30.001Z</time>
      </trkpt>
      <trkpt lat="47.758373" lon="12.358044">
        <ele>1332.632568</ele>
        <time>2021-09-26T08:13:38.002Z</time>
      </trkpt>
      <trkpt lat="47.758324" lon="12.357925">
        <ele>1330.943156</ele>
        <time>2021-09-26T08:13:45.002Z</time>
      </trkpt>
      <trkpt lat="47.758250" lon="12.357821">
        <ele>1329.109828</ele>
        <time>2021-09-26T08:13:52.002Z</time>
      </trkpt>
      <trkpt lat="47.758177" lon="12.357715">
        <ele>1327.272716</ele>
        <time>2021-09-26T08:14:00.002Z</time>
      </trkpt>
      <trkpt lat="47.758130" lon="12.357589">
        <ele>1325.528234</ele>
        <time>2021-09-26T08:14:08.002Z</time>
      </trkpt>
      <trkpt lat="47.758088" lon="12.357461">
        <ele>1323.803891</ele>
        <time>2021-09-26T08:14:15.002Z</time>
      </trkpt>
      <trkpt lat="47.758066" lon="12.357320">
        <ele>1322.051523</ele>
        <time>2021-09-26T08:14:22.003Z</time>
      </trkpt>
      <trkpt lat="47.758044" lon="12.357172">
        <ele>1320.216504</ele>
        <time>2021-09-26T08:14:28.000Z</time>
      </trkpt>
      <trkpt lat="47.758047" lon="12.357031">
        <ele>1318.508654</ele>
        <time>2021-09-26T08:14:34.000Z</time>
      </trkpt>
      <trkpt lat="47.758046" lon="12.356884">
        <ele>1316.728929</ele>
        <time>2021-09-26T08:14:41.000Z</time>
      </trkpt>
      <trkpt lat="47.758055" lon="12.356748">
        <ele>1315.074508</ele>
        <time>2021-09-26T08:14:47.000Z</time>
      </trkpt>
      <trkpt lat="47.758054" lon="12.356606">
        <ele>1313.355312</ele>
        <time>2021-09-26T08:14:53.000Z</time>
      </trkpt>
      <trkpt lat="47.758063" lon="12.356473">
        <ele>1311.737031</ele>
        <time>2021-09-26T08:14:59.000Z</time>
      </trkpt>
      <trkpt lat="47.758067" lon="12.356333">
        <ele>1310.040612</ele>
        <time>2021-09-26T08:15:05.000Z</time>
      </trkpt>
      <trkpt lat="47.758075" lon="12.356193">
        <ele>1308.339612</ele>
        <time>2021-09-26T08:15:11.001Z</time>
      </trkpt>
      <trkpt lat="47.758100" lon="12.356064">
        <ele>1306.714296</ele>
        <time>2021-09-26T08:15:17.001Z</time>
      </trkpt>
      <trkpt lat="47.758123" lon="12.355928">
        <ele>1305.016535</ele>
        <time>2021-09-26T08:15:23.001Z</time>
      </trkpt>
      <trkpt lat="47.758148" lon="12.355795">
        <ele>1303.344636</ele>
        <time>2021-09-26T08:15:32.001Z</time>
      </trkpt>
      <trkpt lat="47.758206" lon="12.355677">
        <ele>1301.606651</ele>
        <time>2021-09-26T08:15:41.001Z</time>
      </trkpt>
      <trkpt lat="47.758240" lon="12.355543">
        <ele>1299.909138</ele>
        <time>2021-09-26T08:15:50.001Z</time>
      </trkpt>
      <trkpt lat="47.758320" lon="12.355450">
        <ele>1298.119131</ele>
        <time>2021-09-26T08:15:57.002Z</time>
      </trkpt>
      <trkpt lat="47.758406" lon="12.355531">
        <ele>1296.324583</ele>
        <time>2021-09-26T08:16:02.002Z</time>
      </trkpt>
      <trkpt lat="47.758445" lon="12.355656">
        <ele>1294.691320</ele>
        <time>2021-09-26T08:16:08.002Z</time>
      </trkpt>
      <trkpt lat="47.758491" lon="12.355772">
        <ele>1293.095134</ele>
        <time>2021-09-26T08:16:14.002Z</time>
      </trkpt>
      <trkpt lat="47.758556" lon="12.355895">
        <ele>1291.240865</ele>
        <time>2021-09-26T08:16:20.002Z</time>
      </trkpt>
      <trkpt lat="47.758612" lon="12.356010">
        <ele>1289.557896</ele>
        <time>2021-09-26T08:16:26.002Z</time>
      </trkpt>
      <trkpt lat="47.758675" lon="12.356126">
        <ele>1287.790486</ele>
        <time>2021-09-26T08:16:32.002Z</time>
      </trkpt>
      <trkpt lat="47.758733" lon="12.356256">
        <ele>1285.941310</ele>
        <time>2021-09-26T08:16:38.000Z</time>
      </trkpt>
      <trkpt lat="47.758811" lon="12.356360">
        <ele>1284.094617</ele>
        <time>2021-09-26T08:16:44.000Z</time>
      </trkpt>
      <trkpt lat="47.758889" lon="12.356277">
        <ele>1282.403859</ele>
        <time>2021-09-26T08:16:53.000Z</time>
      </trkpt>
      <trkpt lat="47.758882" lon="12.356132">
        <ele>1280.680925</ele>
        <time>2021-09-26T08:16:59.000Z</time>
      </trkpt>
      <trkpt lat="47.758884" lon="12.355996">
        <ele>1279.068698</ele>
        <time>2021-09-26T08:17:05.000Z</time>
      </trkpt>
      <trkpt lat="47.758877" lon="12.355845">
        <ele>1277.274829</ele>
        <time>2021-09-26T08:17:12.000Z</time>
      </trkpt>
      <trkpt lat="47.758870" lon="12.355707">
        <ele>1275.634634</ele>
        <time>2021-09-26T08:17:18.000Z</time>
      </trkpt>
      <trkpt lat="47.758879" lon="12.355564">
        <ele>1273.932418</ele>
        <time>2021-09-26T08:17:24.001Z</time>
      </trkpt>
      <trkpt lat="47.758883" lon="12.355425">
        <ele>1272.283512</ele>
        <time>2021-09-26T08:17:30.001Z</time>
      </trkpt>
      <trkpt lat="47.758896" lon="12.355286">
        <ele>1270.670680</ele>
        <time>2021-09-26T08:17:36.001Z</time>
      </trkpt>
      <trkpt lat="47.758899" lon="12.355138">
        <ele>1269.033492</ele>
        <time>2021-09-26T08:17:42.001Z</time>
      </trkpt>
      <trkpt lat="47.758904" lon="12.354990">
        <ele>1267.394983</ele>
        <time>2021-09-26T08:17:48.001Z</time>
      </trkpt>
      <trkpt lat="47.758912" lon="12.354855">
        <ele>1265.896493</ele>
        <time>2021-09-26T08:17:54.001Z</time>
      </trkpt>
      <trkpt lat="47.758908" lon="12.354714">
        <ele>1264.336061</ele>
        <time>2021-09-26T08:18:00.001Z</time>
      </trkpt>
      <trkpt lat="47.758905" lon="12.354556">
        <ele>1262.588350</ele>
        <time>2021-09-26T08:18:08.002Z</time>
      </trkpt>
      <trkpt lat="47.758921" lon="12.354418">
        <ele>1261.039950</ele>
        <time>2021-09-26T08:18:14.002Z</time>
      </trkpt>
      <trkpt lat="47.758945" lon="12.354269">
        <ele>1259.345819</ele>
        <time>2021-09-26T08:18:21.002Z</time>
      </trkpt>
      <trkpt lat="47.759012" lon="12.354160">
        <ele>1257.712737</ele>
        <time>2021-09-26T08:18:27.002Z</time>
      </trkpt>
      <trkpt lat="47.759062" lon="12.354036">
        <ele>1256.113938</ele>
        <time>2021-09-26T08:18:33.002Z</time>
      </trkpt>
      <trkpt lat="47.759128" lon="12.353937">
        <ele>1254.572292</ele>
        <time>2021-09-26T08:18:39.002Z</time>
      </trkpt>
      <trkpt lat="47.759210" lon="12.353845">
        <ele>1252.882965</ele>
        <time>2021-09-26T08:18:45.000Z</time>
      </trkpt>
      <trkpt lat="47.759290" lon="12.353754">
        <ele>1251.226523</ele>
        <time>2021-09-26T08:18:52.000Z</time>
      </trkpt>
      <trkpt lat="47.759375" lon="12.353673">
        <ele>1249.566192</ele>
        <time>2021-09-26T08:18:59.000Z</time>
      </trkpt>
      <trkpt lat="47.759466" lon="12.353597">
        <ele>1247.849682</ele>
        <time>2021-09-26T08:19:06.000Z</time>
      </trkpt>
      <trkpt lat="47.759554" lon="12.353527">
        <ele>1246.208331</ele>
        <time>2021-09-26T08:19:12.000Z</time>
      </trkpt>
      <trkpt lat="47.759645" lon="12.353457">
        <ele>1244.523307</ele>
        <time>2021-09-26T08:19:18.000Z</time>
      </trkpt>
      <trkpt lat="47.759731" lon="12.353385">
        <ele>1242.900160</ele>
        <time>2021-09-26T08:19:24.000Z</time>
      </trkpt>
      <trkpt lat="47.759821" lon="12.353334">
        <ele>1241.933141</ele>
        <time>2021-09-26T08:19:30.001Z</time>
      </trkpt>
      <trkpt lat="47.759910" lon="12.353276">
        <ele>1242.421834</ele>
        <time>2021-09-26T08:19:36.001Z</time>
      </trkpt>
      <trkpt lat="47.760017" lon="12.353256">
        <ele>1242.964219</ele>
        <time>2021-09-26T08:19:43.001Z</time>
      </trkpt>
      <trkpt lat="47.760110" lon="12.353210">
        <ele>1243.457139</ele>
        <time>2021-09-26T08:19:49.001Z</time>
      </trkpt>
      <trkpt lat="47.760199" lon="12.353164">
        <ele>1243.931011</ele>
        <time>2021-09-26T08:19:56.001Z</time>
      </trkpt>
      <trkpt lat="47.760287" lon="12.353126">
        <ele>1244.391875</ele>
        <time>2021-09-26T08:20:03.001Z</time>
      </trkpt>
      <trkpt lat="47.760193" lon="12.353172">
        <ele>1244.889569</ele>
        <time>2021-09-26T08:20:23.002Z</time>
      </trkpt>
      <trkpt lat="47.760078" lon="12.353128">
        <ele>1245.486783</ele>
        <time>2021-09-26T08:21:50.001Z</time>
      </trkpt>
      <trkpt lat="47.759987" lon="12.353164">
        <ele>1245.960373</ele>
        <time>2021-09-26T08:22:08.001Z</time>
      </trkpt>
      <trkpt lat="47.759913" lon="12.353243">
        <ele>1246.418479</ele>
        <time>2021-09-26T08:22:16.001Z</time>
      </trkpt>
      <trkpt lat="47.759827" lon="12.353313">
        <ele>1246.911530</ele>
        <time>2021-09-26T08:22:23.001Z</time>
      </trkpt>
      <trkpt lat="47.759737" lon="12.353370">
        <ele>1247.403500</ele>
        <time>2021-09-26T08:22:33.002Z</time>
      </trkpt>
      <trkpt lat="47.759649" lon="12.353418">
        <ele>1247.874909</ele>
        <time>2021-09-26T08:22:40.002Z</time>
      </trkpt>
      <trkpt lat="47.759565" lon="12.353481">
        <ele>1248.348044</ele>
        <time>2021-09-26T08:22:47.002Z</time>
      </trkpt>
      <trkpt lat="47.759475" lon="12.353534">
        <ele>1248.834875</ele>
        <time>2021-09-26T08:22:56.000Z</time>
      </trkpt>
      <trkpt lat="47.759394" lon="12.353595">
        <ele>1249.291494</ele>
        <time>2021-09-26T08:23:07.000Z</time>
      </trkpt>
      <trkpt lat="47.759314" lon="12.353660">
        <ele>1249.749959</ele>
        <time>2021-09-26T08:23:14.000Z</time>
      </trkpt>
      <trkpt lat="47.759239" lon="12.353757">
        <ele>1250.249805</ele>
        <time>2021-09-26T08:23:26.000Z</time>
      </trkpt>
      <trkpt lat="47.759162" lon="12.353834">
        <ele>1250.716447</ele>
        <time>2021-09-26T08:23:35.000Z</time>
      </trkpt>
      <trkpt lat="47.759092" lon="12.353934">
        <ele>1252.122603</ele>
        <time>2021-09-26T08:23:45.000Z</time>
      </trkpt>
      <trkpt lat="47.759059" lon="12.354058">
        <ele>1253.693193</ele>
        <time>2021-09-26T08:23:57.001Z</time>
      </trkpt>
      <trkpt lat="47.758984" lon="12.354147">
        <ele>1255.373934</ele>
        <time>2021-09-26T08:24:06.001Z</time>
      </trkpt>
      <trkpt lat="47.758936" lon="12.354277">
        <ele>1257.120649</ele>
        <time>2021-09-26T08:24:15.001Z</time>
      </trkpt>
      <trkpt lat="47.758922" lon="12.354413">
        <ele>1258.740968</ele>
        <time>2021-09-26T08:24:26.001Z</time>
      </trkpt>
      <trkpt lat="47.758913" lon="12.354553">
        <ele>1260.397247</ele>
        <time>2021-09-26T08:24:36.001Z</time>
      </trkpt>
      <trkpt lat="47.758929" lon="12.354687">
        <ele>1262.000042</ele>
        <time>2021-09-26T08:24:49.002Z</time>
      </trkpt>
      <trkpt lat="47.758870" lon="12.354803">
        <ele>1263.713102</ele>
        <time>2021-09-26T08:25:06.999Z</time>
      </trkpt>
      <trkpt lat="47.758898" lon="12.354945">
        <ele>1265.455869</ele>
        <time>2021-09-26T08:25:21.999Z</time>
      </trkpt>
      <trkpt lat="47.758881" lon="12.355091">
        <ele>1267.200889</ele>
        <time>2021-09-26T08:25:36.000Z</time>
      </trkpt>
      <trkpt lat="47.758877" lon="12.355226">
        <ele>1268.792306</ele>
        <time>2021-09-26T08:25:45.000Z</time>
      </trkpt>
      <trkpt lat="47.758884" lon="12.355398">
        <ele>1270.821632</ele>
        <time>2021-09-26T08:26:19.001Z</time>
      </trkpt>
      <trkpt lat="47.758874" lon="12.355537">
        <ele>1272.467961</ele>
        <time>2021-09-26T08:26:36.001Z</time>
      </trkpt>
      <trkpt lat="47.758877" lon="12.355675">
        <ele>1274.094015</ele>
        <time>2021-09-26T08:26:45.001Z</time>
      </trkpt>
      <trkpt lat="47.758876" lon="12.355809">
        <ele>1275.672209</ele>
        <time>2021-09-26T08:26:53.001Z</time>
      </trkpt>
      <trkpt lat="47.758878" lon="12.355967">
        <ele>1277.533281</ele>
        <time>2021-09-26T08:27:03.001Z</time>
      </trkpt>
      <trkpt lat="47.758885" lon="12.356112">
        <ele>1279.245321</ele>
        <time>2021-09-26T08:27:13.999Z</time>
      </trkpt>
      <trkpt lat="47.758866" lon="12.356248">
        <ele>1280.881192</ele>
        <time>2021-09-26T08:27:25.999Z</time>
      </trkpt>
      <trkpt lat="47.758848" lon="12.356385">
        <ele>1282.536076</ele>
        <time>2021-09-26T08:27:37.000Z</time>
      </trkpt>
      <trkpt lat="47.758754" lon="12.356342">
        <ele>1284.363093</ele>
        <time>2021-09-26T08:27:44.000Z</time>
      </trkpt>
      <trkpt lat="47.758699" lon="12.356225">
        <ele>1286.146112</ele>
        <time>2021-09-26T08:27:52.000Z</time>
      </trkpt>
      <trkpt lat="47.758641" lon="12.356121">
        <ele>1287.833729</ele>
        <time>2021-09-26T08:27:59.000Z</time>
      </trkpt>
      <trkpt lat="47.758598" lon="12.355991">
        <ele>1289.643184</ele>
        <time>2021-09-26T08:28:08.000Z</time>
      </trkpt>
      <trkpt lat="47.758547" lon="12.355868">
        <ele>1291.448021</ele>
        <time>2021-09-26T08:28:18.001Z</time>
      </trkpt>
      <trkpt lat="47.758489" lon="12.355757">
        <ele>1293.203812</ele>
        <time>2021-09-26T08:28:29.001Z</time>
      </trkpt>
      <trkpt lat="47.758430" lon="12.355639">
        <ele>1295.040444</ele>
        <time>2021-09-26T08:28:37.001Z</time>
      </trkpt>
      <trkpt lat="47.758379" lon="12.355522">
        <ele>1296.781952</ele>
        <time>2021-09-26T08:28:49.001Z</time>
      </trkpt>
      <trkpt lat="47.758285" lon="12.355467">
        <ele>1298.658497</ele>
        <time>2021-09-26T08:29:01.001Z</time>
      </trkpt>
      <trkpt lat="47.758236" lon="12.355580">
        <ele>1300.337883</ele>
        <time>2021-09-26T08:29:19.000Z</time>
      </trkpt>
      <trkpt lat="47.758225" lon="12.355714">
        <ele>1302.023851</ele>
        <time>2021-09-26T08:29:44.000Z</time>
      </trkpt>
      <trkpt lat="47.758168" lon="12.355827">
        <ele>1303.788225</ele>
        <time>2021-09-26T08:29:57.000Z</time>
      </trkpt>
      <trkpt lat="47.758124" lon="12.355954">
        <ele>1305.572585</ele>
        <time>2021-09-26T08:30:08.000Z</time>
      </trkpt>
      <trkpt lat="47.758070" lon="12.356067">
        <ele>1307.304085</ele>
        <time>2021-09-26T08:30:19.001Z</time>
      </trkpt>
      <trkpt lat="47.758065" lon="12.356258">
        <ele>1309.691316</ele>
        <time>2021-09-26T08:30:54.001Z</time>
      </trkpt>
      <trkpt lat="47.758051" lon="12.356400">
        <ele>1311.483743</ele>
        <time>2021-09-26T08:31:03.001Z</time>
      </trkpt>
      <trkpt lat="47.758074" lon="12.356530">
        <ele>1313.162614</ele>
        <time>2021-09-26T08:31:13.002Z</time>
      </trkpt>
      <trkpt lat="47.758062" lon="12.356679">
        <ele>1315.036800</ele>
        <time>2021-09-26T08:31:23.999Z</time>
      </trkpt>
      <trkpt lat="47.758065" lon="12.356815">
        <ele>1316.480890</ele>
        <time>2021-09-26T08:31:31.999Z</time>
      </trkpt>
      <trkpt lat="47.758052" lon="12.356963">
        <ele>1317.857849</ele>
        <time>2021-09-26T08:31:44.000Z</time>
      </trkpt>
      <trkpt lat="47.758059" lon="12.357111">
        <ele>1319.226577</ele>
        <time>2021-09-26T08:31:55.000Z</time>
      </trkpt>
      <trkpt lat="47.758089" lon="12.357251">
        <ele>1320.582153</ele>
        <time>2021-09-26T08:32:05.000Z</time>
      </trkpt>
      <trkpt lat="47.758114" lon="12.357390">
        <ele>1321.909577</ele>
        <time>2021-09-26T08:32:14.000Z</time>
      </trkpt>
      <trkpt lat="47.758147" lon="12.357519">
        <ele>1323.182896</ele>
        <time>2021-09-26T08:32:23.000Z</time>
      </trkpt>
      <trkpt lat="47.758186" lon="12.357648">
        <ele>1324.487770</ele>
        <time>2021-09-26T08:32:32.001Z</time>
      </trkpt>
      <trkpt lat="47.758223" lon="12.357780">
        <ele>1325.807128</ele>
        <time>2021-09-26T08:32:40.001Z</time>
      </trkpt>
      <trkpt lat="47.758300" lon="12.357877">
        <ele>1327.191793</ele>
        <time>2021-09-26T08:32:50.001Z</time>
      </trkpt>
      <trkpt lat="47.758358" lon="12.357985">
        <ele>1328.467010</ele>
        <time>2021-09-26T08:32:57.001Z</time>
      </trkpt>
      <trkpt lat="47.758422" lon="12.358236">
        <ele>1330.943523</ele>
        <time>2021-09-26T08:34:19.000Z</time>
      </trkpt>
      <trkpt lat="47.758446" lon="12.358377">
        <ele>1332.285337</ele>
        <time>2021-09-26T08:34:26.000Z</time>
      </trkpt>
      <trkpt lat="47.758458" lon="12.358515">
        <ele>1333.569033</ele>
        <time>2021-09-26T08:34:32.001Z</time>
      </trkpt>
      <trkpt lat="47.758491" lon="12.358650">
        <ele>1334.894224</ele>
        <time>2021-09-26T08:34:39.001Z</time>
      </trkpt>
      <trkpt lat="47.758532" lon="12.358798">
        <ele>1336.370950</ele>
        <time>2021-09-26T08:34:46.001Z</time>
      </trkpt>
      <trkpt lat="47.758579" lon="12.358914">
        <ele>1337.620419</ele>
        <time>2021-09-26T08:34:53.001Z</time>
      </trkpt>
      <trkpt lat="47.758596" lon="12.359055">
        <ele>1338.941936</ele>
        <time>2021-09-26T08:35:00.001Z</time>
      </trkpt>
      <trkpt lat="47.758645" lon="12.359176">
        <ele>1340.245077</ele>
        <time>2021-09-26T08:35:07.001Z</time>
      </trkpt>
      <trkpt lat="47.758687" lon="12.359313">
        <ele>1341.448178</ele>
        <time>2021-09-26T08:35:16.002Z</time>
      </trkpt>
      <trkpt lat="47.758736" lon="12.359433">
        <ele>1342.541427</ele>
        <time>2021-09-26T08:35:23.002Z</time>
      </trkpt>
      <trkpt lat="47.758800" lon="12.359547">
        <ele>1343.697917</ele>
        <time>2021-09-26T08:35:38.000Z</time>
      </trkpt>
      <trkpt lat="47.758873" lon="12.359635">
        <ele>1344.786244</ele>
        <time>2021-09-26T08:35:46.000Z</time>
      </trkpt>
      <trkpt lat="47.758955" lon="12.359711">
        <ele>1345.905301</ele>
        <time>2021-09-26T08:35:54.000Z</time>
      </trkpt>
      <trkpt lat="47.759011" lon="12.359836">
        <ele>1347.074944</ele>
        <time>2021-09-26T08:36:09.000Z</time>
      </trkpt>
      <trkpt lat="47.759004" lon="12.359976">
        <ele>1348.168065</ele>
        <time>2021-09-26T08:36:18.000Z</time>
      </trkpt>
      <trkpt lat="47.759025" lon="12.360111">
        <ele>1349.247017</ele>
        <time>2021-09-26T08:36:27.001Z</time>
      </trkpt>
      <trkpt lat="47.759021" lon="12.360248">
        <ele>1350.314773</ele>
        <time>2021-09-26T08:36:34.001Z</time>
      </trkpt>
      <trkpt lat="47.759000" lon="12.360386">
        <ele>1351.416497</ele>
        <time>2021-09-26T08:36:44.001Z</time>
      </trkpt>
      <trkpt lat="47.758984" lon="12.360521">
        <ele>1352.483886</ele>
        <time>2021-09-26T08:36:51.001Z</time>
      </trkpt>
      <trkpt lat="47.759005" lon="12.360673">
        <ele>1353.692171</ele>
        <time>2021-09-26T08:36:59.001Z</time>
      </trkpt>
      <trkpt lat="47.758995" lon="12.360819">
        <ele>1354.834885</ele>
        <time>2021-09-26T08:37:06.001Z</time>
      </trkpt>
      <trkpt lat="47.759000" lon="12.360970">
        <ele>1356.012073</ele>
        <time>2021-09-26T08:37:15.002Z</time>
      </trkpt>
      <trkpt lat="47.759093" lon="12.361049">
        <ele>1357.252531</ele>
        <time>2021-09-26T08:37:26.002Z</time>
      </trkpt>
      <trkpt lat="47.759191" lon="12.361096">
        <ele>1358.445176</ele>
        <time>2021-09-26T08:37:34.000Z</time>
      </trkpt>
      <trkpt lat="47.759255" lon="12.361196">
        <ele>1359.520262</ele>
        <time>2021-09-26T08:37:47.000Z</time>
      </trkpt>
      <trkpt lat="47.759344" lon="12.361278">
        <ele>1360.732841</ele>
        <time>2021-09-26T08:37:54.000Z</time>
      </trkpt>
      <trkpt lat="47.759415" lon="12.361363">
        <ele>1361.642293</ele>
        <time>2021-09-26T08:38:01.000Z</time>
      </trkpt>
      <trkpt lat="47.759491" lon="12.361473">
        <ele>1362.520960</ele>
        <time>2021-09-26T08:38:10.000Z</time>
      </trkpt>
      <trkpt lat="47.759552" lon="12.361574">
        <ele>1363.277284</ele>
        <time>2021-09-26T08:38:17.000Z</time>
      </trkpt>
      <trkpt lat="47.759631" lon="12.361646">
        <ele>1364.044995</ele>
        <time>2021-09-26T08:38:22.000Z</time>
      </trkpt>
      <trkpt lat="47.759709" lon="12.361741">
        <ele>1364.880330</ele>
        <time>2021-09-26T08:38:30.001Z</time>
      </trkpt>
      <trkpt lat="47.759755" lon="12.361886">
        <ele>1365.773460</ele>
        <time>2021-09-26T08:38:37.001Z</time>
      </trkpt>
      <trkpt lat="47.759791" lon="12.362034">
        <ele>1366.650188</ele>
        <time>2021-09-26T08:38:44.001Z</time>
      </trkpt>
      <trkpt lat="47.759807" lon="12.362166">
        <ele>1367.397336</ele>
        <time>2021-09-26T08:38:50.001Z</time>
      </trkpt>
      <trkpt lat="47.759805" lon="12.362300">
        <ele>1368.143951</ele>
        <time>2021-09-26T08:38:59.001Z</time>
      </trkpt>
      <trkpt lat="47.759896" lon="12.362380">
        <ele>1369.019841</ele>
        <time>2021-09-26T08:39:12.001Z</time>
      </trkpt>
      <trkpt lat="47.759975" lon="12.362448">
        <ele>1369.776150</ele>
        <time>2021-09-26T08:39:19.002Z</time>
      </trkpt>
      <trkpt lat="47.760005" lon="12.362592">
        <ele>1370.615920</ele>
        <time>2021-09-26T08:39:26.002Z</time>
      </trkpt>
      <trkpt lat="47.760045" lon="12.362731">
        <ele>1371.458161</ele>
        <time>2021-09-26T08:39:33.002Z</time>
      </trkpt>
      <trkpt lat="47.760080" lon="12.362862">
        <ele>1372.243399</ele>
        <time>2021-09-26T08:39:40.000Z</time>
      </trkpt>
      <trkpt lat="47.760109" lon="12.362996">
        <ele>1373.027554</ele>
        <time>2021-09-26T08:39:47.000Z</time>
      </trkpt>
      <trkpt lat="47.760168" lon="12.363113">
        <ele>1373.842274</ele>
        <time>2021-09-26T08:39:53.000Z</time>
      </trkpt>
      <trkpt lat="47.760216" lon="12.363225">
        <ele>1374.582154</ele>
        <time>2021-09-26T08:39:58.000Z</time>
      </trkpt>
      <trkpt lat="47.760224" lon="12.363361">
        <ele>1375.342615</ele>
        <time>2021-09-26T08:40:07.000Z</time>
      </trkpt>
      <trkpt lat="47.760235" lon="12.363504">
        <ele>1376.144372</ele>
        <time>2021-09-26T08:40:14.000Z</time>
      </trkpt>
      <trkpt lat="47.760257" lon="12.363638">
        <ele>1377.148963</ele>
        <time>2021-09-26T08:40:22.000Z</time>
      </trkpt>
      <trkpt lat="47.760269" lon="12.363771">
        <ele>1378.137106</ele>
        <time>2021-09-26T08:40:29.001Z</time>
      </trkpt>
      <trkpt lat="47.760288" lon="12.363905">
        <ele>1379.145541</ele>
        <time>2021-09-26T08:40:38.001Z</time>
      </trkpt>
      <trkpt lat="47.760314" lon="12.364052">
        <ele>1380.264831</ele>
        <time>2021-09-26T08:40:47.001Z</time>
      </trkpt>
      <trkpt lat="47.760328" lon="12.364194">
        <ele>1381.321649</ele>
        <time>2021-09-26T08:40:55.001Z</time>
      </trkpt>
      <trkpt lat="47.760341" lon="12.364342">
        <ele>1382.420727</ele>
        <time>2021-09-26T08:41:04.001Z</time>
      </trkpt>
      <trkpt lat="47.760346" lon="12.364478">
        <ele>1383.423674</ele>
        <time>2021-09-26T08:41:15.001Z</time>
      </trkpt>
      <trkpt lat="47.760364" lon="12.364613">
        <ele>1384.437125</ele>
        <time>2021-09-26T08:41:22.002Z</time>
      </trkpt>
      <trkpt lat="47.760385" lon="12.364746">
        <ele>1385.443136</ele>
        <time>2021-09-26T08:41:30.002Z</time>
      </trkpt>
      <trkpt lat="47.760427" lon="12.364873">
        <ele>1386.485353</ele>
        <time>2021-09-26T08:41:38.002Z</time>
      </trkpt>
      <trkpt lat="47.760418" lon="12.365027">
        <ele>1387.623623</ele>
        <time>2021-09-26T08:41:46.000Z</time>
      </trkpt>
      <trkpt lat="47.760425" lon="12.365167">
        <ele>1388.657374</ele>
        <time>2021-09-26T08:41:54.000Z</time>
      </trkpt>
      <trkpt lat="47.760478" lon="12.365279">
        <ele>1389.665944</ele>
        <time>2021-09-26T08:42:02.000Z</time>
      </trkpt>
      <trkpt lat="47.760520" lon="12.365422">
        <ele>1390.815054</ele>
        <time>2021-09-26T08:42:11.000Z</time>
      </trkpt>
      <trkpt lat="47.760531" lon="12.365561">
        <ele>1391.845659</ele>
        <time>2021-09-26T08:42:19.000Z</time>
      </trkpt>
      <trkpt lat="47.760537" lon="12.365698">
        <ele>1392.856608</ele>
        <time>2021-09-26T08:42:32.000Z</time>
      </trkpt>
      <trkpt lat="47.760540" lon="12.365833">
        <ele>1393.851234</ele>
        <time>2021-09-26T08:42:39.001Z</time>
      </trkpt>
      <trkpt lat="47.760563" lon="12.365973">
        <ele>1394.912473</ele>
        <time>2021-09-26T08:42:48.001Z</time>
      </trkpt>
      <trkpt lat="47.760588" lon="12.366116">
        <ele>1395.980850</ele>
        <time>2021-09-26T08:42:56.001Z</time>
      </trkpt>
      <trkpt lat="47.760638" lon="12.366250">
        <ele>1396.923590</ele>
        <time>2021-09-26T08:43:04.001Z</time>
      </trkpt>
      <trkpt lat="47.760673" lon="12.366390">
        <ele>1397.842395</ele>
        <time>2021-09-26T08:43:13.001Z</time>
      </trkpt>
      <trkpt lat="47.760644" lon="12.366522">
        <ele>1398.696628</ele>
        <time>2021-09-26T08:43:21.001Z</time>
      </trkpt>
      <trkpt lat="47.760628" lon="12.366667">
        <ele>1399.600501</ele>
        <time>2021-09-26T08:43:31.002Z</time>
      </trkpt>
      <trkpt lat="47.760659" lon="12.366804">
        <ele>1400.489688</ele>
        <time>2021-09-26T08:43:42.002Z</time>
      </trkpt>
      <trkpt lat="47.760731" lon="12.366895">
        <ele>1401.354217</ele>
        <time>2021-09-26T08:43:49.002Z</time>
      </trkpt>
      <trkpt lat="47.760773" lon="12.367015">
        <ele>1402.186427</ele>
        <time>2021-09-26T08:43:56.999Z</time>
      </trkpt>
      <trkpt lat="47.760771" lon="12.367154">
        <ele>1403.041649</ele>
        <time>2021-09-26T08:44:05.999Z</time>
      </trkpt>
      <trkpt lat="47.760709" lon="12.367254">
        <ele>1403.878460</ele>
        <time>2021-09-26T08:44:13.999Z</time>
      </trkpt>
      <trkpt lat="47.760613" lon="12.367245">
        <ele>1404.758657</ele>
        <time>2021-09-26T08:44:20.999Z</time>
      </trkpt>
      <trkpt lat="47.760513" lon="12.367274">
        <ele>1405.690941</ele>
        <time>2021-09-26T08:44:30.999Z</time>
      </trkpt>
      <trkpt lat="47.760422" lon="12.367248">
        <ele>1406.538863</ele>
        <time>2021-09-26T08:44:38.999Z</time>
      </trkpt>
      <trkpt lat="47.760346" lon="12.367172">
        <ele>1407.376835</ele>
        <time>2021-09-26T08:44:49.000Z</time>
      </trkpt>
      <trkpt lat="47.760266" lon="12.367090">
        <ele>1408.265834</ele>
        <time>2021-09-26T08:45:03.000Z</time>
      </trkpt>
      <trkpt lat="47.760209" lon="12.366981">
        <ele>1409.115312</ele>
        <time>2021-09-26T08:45:13.000Z</time>
      </trkpt>
      <trkpt lat="47.760187" lon="12.366831">
        <ele>1410.059718</ele>
        <time>2021-09-26T08:45:23.000Z</time>
      </trkpt>
      <trkpt lat="47.760193" lon="12.366691">
        <ele>1410.922654</ele>
        <time>2021-09-26T08:45:36.000Z</time>
      </trkpt>
      <trkpt lat="47.760143" lon="12.366574">
        <ele>1411.775478</ele>
        <time>2021-09-26T08:45:45.001Z</time>
      </trkpt>
      <trkpt lat="47.760113" lon="12.366431">
        <ele>1412.760670</ele>
        <time>2021-09-26T08:45:54.001Z</time>
      </trkpt>
      <trkpt lat="47.760068" lon="12.366299">
        <ele>1413.833495</ele>
        <time>2021-09-26T08:46:01.999Z</time>
      </trkpt>
      <trkpt lat="47.760050" lon="12.366164">
        <ele>1414.831124</ele>
        <time>2021-09-26T08:46:11.999Z</time>
      </trkpt>
      <trkpt lat="47.760028" lon="12.366017">
        <ele>1415.922762</ele>
        <time>2021-09-26T08:46:22.999Z</time>
      </trkpt>
      <trkpt lat="47.760035" lon="12.365876">
        <ele>1416.947604</ele>
        <time>2021-09-26T08:46:30.999Z</time>
      </trkpt>
      <trkpt lat="47.760027" lon="12.365730">
        <ele>1418.009416</ele>
        <time>2021-09-26T08:46:40.999Z</time>
      </trkpt>
      <trkpt lat="47.760026" lon="12.365592">
        <ele>1419.009787</ele>
        <time>2021-09-26T08:46:47.999Z</time>
      </trkpt>
      <trkpt lat="47.759989" lon="12.365455">
        <ele>1420.079998</ele>
        <time>2021-09-26T08:46:56.999Z</time>
      </trkpt>
      <trkpt lat="47.759955" lon="12.365322">
        <ele>1421.111425</ele>
        <time>2021-09-26T08:47:06.000Z</time>
      </trkpt>
      <trkpt lat="47.759920" lon="12.365195">
        <ele>1422.106361</ele>
        <time>2021-09-26T08:47:15.000Z</time>
      </trkpt>
      <trkpt lat="47.759914" lon="12.365060">
        <ele>1423.087067</ele>
        <time>2021-09-26T08:47:23.000Z</time>
      </trkpt>
      <trkpt lat="47.759908" lon="12.364917">
        <ele>1424.125642</ele>
        <time>2021-09-26T08:47:32.000Z</time>
      </trkpt>
      <trkpt lat="47.759874" lon="12.364785">
        <ele>1425.150298</ele>
        <time>2021-09-26T08:47:39.000Z</time>
      </trkpt>
      <trkpt lat="47.759818" lon="12.364670">
        <ele>1426.179622</ele>
        <time>2021-09-26T08:47:47.000Z</time>
      </trkpt>
      <trkpt lat="47.759758" lon="12.364559">
        <ele>1427.212075</ele>
        <time>2021-09-26T08:47:55.000Z</time>
      </trkpt>
      <trkpt lat="47.759716" lon="12.364422">
        <ele>1428.303537</ele>
        <time>2021-09-26T08:48:04.999Z</time>
      </trkpt>
      <trkpt lat="47.759662" lon="12.364297">
        <ele>1429.380587</ele>
        <time>2021-09-26T08:48:13.999Z</time>
      </trkpt>
      <trkpt lat="47.759596" lon="12.364186">
        <ele>1430.454768</ele>
        <time>2021-09-26T08:48:22.999Z</time>
      </trkpt>
      <trkpt lat="47.759532" lon="12.364085">
        <ele>1431.460870</ele>
        <time>2021-09-26T08:48:30.999Z</time>
      </trkpt>
      <trkpt lat="47.759489" lon="12.363949">
        <ele>1431.734343</ele>
        <time>2021-09-26T08:48:39.999Z</time>
      </trkpt>
      <trkpt lat="47.759416" lon="12.363847">
        <ele>1431.734343</ele>
        <time>2021-09-26T08:48:47.999Z</time>
      </trkpt>
      <trkpt lat="47.759369" lon="12.363727">
        <ele>1431.734343</ele>
        <time>2021-09-26T08:48:55.999Z</time>
      </trkpt>
      <trkpt lat="47.759285" lon="12.363660">
        <ele>1431.734343</ele>
        <time>2021-09-26T08:49:04.999Z</time>
      </trkpt>
      <trkpt lat="47.759195" lon="12.363674">
        <ele>1431.734343</ele>
        <time>2021-09-26T08:49:15.000Z</time>
      </trkpt>
      <trkpt lat="47.759140" lon="12.363783">
        <ele>1431.734343</ele>
        <time>2021-09-26T08:49:26.000Z</time>
      </trkpt>
      <trkpt lat="47.759074" lon="12.363890">
        <ele>1431.734343</ele>
        <time>2021-09-26T08:49:36.000Z</time>
      </trkpt>
      <trkpt lat="47.759054" lon="12.364045">
        <ele>1431.734343</ele>
        <time>2021-09-26T08:49:50.000Z</time>
      </trkpt>
      <trkpt lat="47.758998" lon="12.364151">
        <ele>1431.734343</ele>
        <time>2021-09-26T08:50:04.000Z</time>
      </trkpt>
      <trkpt lat="47.758969" lon="12.364287">
        <ele>1431.734343</ele>
        <time>2021-09-26T08:50:13.999Z</time>
      </trkpt>
      <trkpt lat="47.758931" lon="12.364417">
        <ele>1431.734343</ele>
        <time>2021-09-26T08:50:21.999Z</time>
      </trkpt>
      <trkpt lat="47.758912" lon="12.364558">
        <ele>1431.734343</ele>
        <time>2021-09-26T08:50:29.999Z</time>
      </trkpt>
      <trkpt lat="47.758910" lon="12.364699">
        <ele>1431.734343</ele>
        <time>2021-09-26T08:50:35.999Z</time>
      </trkpt>
      <trkpt lat="47.758920" lon="12.364840">
        <ele>1431.734343</ele>
        <time>2021-09-26T08:50:43.999Z</time>
      </trkpt>
      <trkpt lat="47.758938" lon="12.364982">
        <ele>1431.734343</ele>
        <time>2021-09-26T08:50:52.999Z</time>
      </trkpt>
      <trkpt lat="47.758988" lon="12.365104">
        <ele>1431.734343</ele>
        <time>2021-09-26T08:51:01.999Z</time>
      </trkpt>
      <trkpt lat="47.759019" lon="12.365230">
        <ele>1431.734343</ele>
        <time>2021-09-26T08:51:09.999Z</time>
      </trkpt>
      <trkpt lat="47.758995" lon="12.365362">
        <ele>1431.734343</ele>
        <time>2021-09-26T08:51:17.000Z</time>
      </trkpt>
      <trkpt lat="47.758968" lon="12.365492">
        <ele>1431.734343</ele>
        <time>2021-09-26T08:51:27.000Z</time>
      </trkpt>
      <trkpt lat="47.758930" lon="12.365615">
        <ele>1431.734343</ele>
        <time>2021-09-26T08:51:36.000Z</time>
      </trkpt>
      <trkpt lat="47.758933" lon="12.365752">
        <ele>1431.734343</ele>
        <time>2021-09-26T08:51:46.000Z</time>
      </trkpt>
      <trkpt lat="47.758967" lon="12.365892">
        <ele>1431.734343</ele>
        <time>2021-09-26T08:51:54.000Z</time>
      </trkpt>
      <trkpt lat="47.759016" lon="12.366008">
        <ele>1431.734343</ele>
        <time>2021-09-26T08:52:02.000Z</time>
      </trkpt>
      <trkpt lat="47.759093" lon="12.366088">
        <ele>1431.734343</ele>
        <time>2021-09-26T08:52:09.001Z</time>
      </trkpt>
      <trkpt lat="47.759131" lon="12.366217">
        <ele>1431.734343</ele>
        <time>2021-09-26T08:52:15.999Z</time>
      </trkpt>
      <trkpt lat="47.759143" lon="12.366351">
        <ele>1431.734343</ele>
        <time>2021-09-26T08:52:23.999Z</time>
      </trkpt>
      <trkpt lat="47.759166" lon="12.366496">
        <ele>1431.734343</ele>
        <time>2021-09-26T08:52:31.999Z</time>
      </trkpt>
      <trkpt lat="47.759196" lon="12.366636">
        <ele>1431.734343</ele>
        <time>2021-09-26T08:52:39.999Z</time>
      </trkpt>
      <trkpt lat="47.757987" lon="12.363829">
        <ele>1458.270892</ele>
        <time>2021-09-26T09:43:17.000Z</time>
      </trkpt>
      <trkpt lat="47.757964" lon="12.363689">
        <ele>1458.270892</ele>
        <time>2021-09-26T09:43:26.000Z</time>
      </trkpt>
      <trkpt lat="47.757805" lon="12.363104">
        <ele>1458.270892</ele>
        <time>2021-09-26T09:44:07.001Z</time>
      </trkpt>
      <trkpt lat="47.757746" lon="12.362997">
        <ele>1458.270892</ele>
        <time>2021-09-26T09:44:16.001Z</time>
      </trkpt>
      <trkpt lat="47.757702" lon="12.362858">
        <ele>1458.270892</ele>
        <time>2021-09-26T09:44:26.001Z</time>
      </trkpt>
      <trkpt lat="47.757672" lon="12.362710">
        <ele>1458.270892</ele>
        <time>2021-09-26T09:44:34.001Z</time>
      </trkpt>
      <trkpt lat="47.757639" lon="12.362572">
        <ele>1458.453858</ele>
        <time>2021-09-26T09:44:43.001Z</time>
      </trkpt>
      <trkpt lat="47.757588" lon="12.362450">
        <ele>1459.317000</ele>
        <time>2021-09-26T09:44:51.999Z</time>
      </trkpt>
      <trkpt lat="47.757528" lon="12.362341">
        <ele>1460.163408</ele>
        <time>2021-09-26T09:44:58.999Z</time>
      </trkpt>
      <trkpt lat="47.757472" lon="12.362229">
        <ele>1461.002026</ele>
        <time>2021-09-26T09:45:06.999Z</time>
      </trkpt>
      <trkpt lat="47.757444" lon="12.362095">
        <ele>1461.845106</ele>
        <time>2021-09-26T09:45:14.999Z</time>
      </trkpt>
      <trkpt lat="47.757411" lon="12.361970">
        <ele>1462.651953</ele>
        <time>2021-09-26T09:45:22.999Z</time>
      </trkpt>
      <trkpt lat="47.757380" lon="12.361828">
        <ele>1463.548963</ele>
        <time>2021-09-26T09:45:32.000Z</time>
      </trkpt>
      <trkpt lat="47.757336" lon="12.361682">
        <ele>1464.510256</ele>
        <time>2021-09-26T09:45:41.000Z</time>
      </trkpt>
      <trkpt lat="47.757285" lon="12.361546">
        <ele>1465.445887</ele>
        <time>2021-09-26T09:45:50.000Z</time>
      </trkpt>
      <trkpt lat="47.757218" lon="12.361433">
        <ele>1466.351134</ele>
        <time>2021-09-26T09:45:59.000Z</time>
      </trkpt>
      <trkpt lat="47.757180" lon="12.361306">
        <ele>1467.186331</ele>
        <time>2021-09-26T09:46:08.000Z</time>
      </trkpt>
      <trkpt lat="47.757146" lon="12.361173">
        <ele>1468.041238</ele>
        <time>2021-09-26T09:46:16.001Z</time>
      </trkpt>
      <trkpt lat="47.757092" lon="12.361058">
        <ele>1468.884029</ele>
        <time>2021-09-26T09:46:28.001Z</time>
      </trkpt>
      <trkpt lat="47.757050" lon="12.360930">
        <ele>1469.739787</ele>
        <time>2021-09-26T09:46:37.001Z</time>
      </trkpt>
      <trkpt lat="47.757008" lon="12.360791">
        <ele>1470.655397</ele>
        <time>2021-09-26T09:46:45.001Z</time>
      </trkpt>
      <trkpt lat="47.756928" lon="12.360721">
        <ele>1471.484887</ele>
        <time>2021-09-26T09:46:56.999Z</time>
      </trkpt>
      <trkpt lat="47.756836" lon="12.360680">
        <ele>1472.343204</ele>
        <time>2021-09-26T09:47:09.999Z</time>
      </trkpt>
      <trkpt lat="47.756747" lon="12.360712">
        <ele>1473.161508</ele>
        <time>2021-09-26T09:47:18.999Z</time>
      </trkpt>
      <trkpt lat="47.756667" lon="12.360635">
        <ele>1474.013095</ele>
        <time>2021-09-26T09:47:29.000Z</time>
      </trkpt>
      <trkpt lat="47.756578" lon="12.360585">
        <ele>1475.076057</ele>
        <time>2021-09-26T09:47:38.000Z</time>
      </trkpt>
      <trkpt lat="47.756485" lon="12.360497">
        <ele>1476.465745</ele>
        <time>2021-09-26T09:47:46.000Z</time>
      </trkpt>
      <trkpt lat="47.756407" lon="12.360398">
        <ele>1477.758526</ele>
        <time>2021-09-26T09:47:53.000Z</time>
      </trkpt>
      <trkpt lat="47.756334" lon="12.360316">
        <ele>1478.911869</ele>
        <time>2021-09-26T09:48:00.000Z</time>
      </trkpt>
      <trkpt lat="47.756274" lon="12.360191">
        <ele>1480.213734</ele>
        <time>2021-09-26T09:48:08.001Z</time>
      </trkpt>
      <trkpt lat="47.756238" lon="12.360060">
        <ele>1481.413302</ele>
        <time>2021-09-26T09:48:15.001Z</time>
      </trkpt>
      <trkpt lat="47.756216" lon="12.359924">
        <ele>1482.598967</ele>
        <time>2021-09-26T09:48:23.001Z</time>
      </trkpt>
      <trkpt lat="47.756216" lon="12.359787">
        <ele>1483.760207</ele>
        <time>2021-09-26T09:48:33.001Z</time>
      </trkpt>
      <trkpt lat="47.756168" lon="12.359658">
        <ele>1485.009943</ele>
        <time>2021-09-26T09:48:41.001Z</time>
      </trkpt>
      <trkpt lat="47.756098" lon="12.359559">
        <ele>1486.227761</ele>
        <time>2021-09-26T09:48:50.001Z</time>
      </trkpt>
      <trkpt lat="47.756044" lon="12.359440">
        <ele>1487.444704</ele>
        <time>2021-09-26T09:48:58.002Z</time>
      </trkpt>
      <trkpt lat="47.756032" lon="12.359294">
        <ele>1488.691448</ele>
        <time>2021-09-26T09:49:06.000Z</time>
      </trkpt>
      <trkpt lat="47.756046" lon="12.359161">
        <ele>1489.832522</ele>
        <time>2021-09-26T09:49:16.000Z</time>
      </trkpt>
      <trkpt lat="47.755993" lon="12.359030">
        <ele>1491.128471</ele>
        <time>2021-09-26T09:49:25.000Z</time>
      </trkpt>
      <trkpt lat="47.755978" lon="12.358892">
        <ele>1492.313382</ele>
        <time>2021-09-26T09:49:34.000Z</time>
      </trkpt>
      <trkpt lat="47.755936" lon="12.358767">
        <ele>1493.497871</ele>
        <time>2021-09-26T09:49:44.000Z</time>
      </trkpt>
      <trkpt lat="47.755855" lon="12.358707">
        <ele>1494.638748</ele>
        <time>2021-09-26T09:49:57.000Z</time>
      </trkpt>
      <trkpt lat="47.755749" lon="12.358526">
        <ele>1496.673419</ele>
        <time>2021-09-26T09:50:29.001Z</time>
      </trkpt>
      <trkpt lat="47.755676" lon="12.358432">
        <ele>1497.324255</ele>
        <time>2021-09-26T09:50:39.001Z</time>
      </trkpt>
      <trkpt lat="47.755701" lon="12.358297">
        <ele>1497.736494</ele>
        <time>2021-09-26T09:50:53.001Z</time>
      </trkpt>
      <trkpt lat="47.755672" lon="12.358152">
        <ele>1498.181860</ele>
        <time>2021-09-26T09:51:01.002Z</time>
      </trkpt>
      <trkpt lat="47.755634" lon="12.358015">
        <ele>1498.618165</ele>
        <time>2021-09-26T09:51:10.000Z</time>
      </trkpt>
      <trkpt lat="47.755597" lon="12.357874">
        <ele>1499.063767</ele>
        <time>2021-09-26T09:51:22.000Z</time>
      </trkpt>
      <trkpt lat="47.755525" lon="12.357752">
        <ele>1499.541688</ele>
        <time>2021-09-26T09:52:47.001Z</time>
      </trkpt>
      <trkpt lat="47.755490" lon="12.357621">
        <ele>1499.956689</ele>
        <time>2021-09-26T09:52:58.001Z</time>
      </trkpt>
      <trkpt lat="47.755429" lon="12.357512">
        <ele>1500.374214</ele>
        <time>2021-09-26T09:53:09.002Z</time>
      </trkpt>
      <trkpt lat="47.755379" lon="12.357387">
        <ele>1500.802423</ele>
        <time>2021-09-26T09:53:17.000Z</time>
      </trkpt>
      <trkpt lat="47.755284" lon="12.357335">
        <ele>1501.245703</ele>
        <time>2021-09-26T09:53:26.000Z</time>
      </trkpt>
      <trkpt lat="47.755217" lon="12.357230">
        <ele>1501.671891</ele>
        <time>2021-09-26T09:53:35.000Z</time>
      </trkpt>
      <trkpt lat="47.755212" lon="12.357096">
        <ele>1502.066995</ele>
        <time>2021-09-26T09:53:43.000Z</time>
      </trkpt>
      <trkpt lat="47.755149" lon="12.356996">
        <ele>1502.470456</ele>
        <time>2021-09-26T09:53:56.000Z</time>
      </trkpt>
      <trkpt lat="47.755193" lon="12.356877">
        <ele>1502.870282</ele>
        <time>2021-09-26T09:54:16.000Z</time>
      </trkpt>
      <trkpt lat="47.755283" lon="12.356843">
        <ele>1503.276906</ele>
        <time>2021-09-26T09:54:26.000Z</time>
      </trkpt>
      <trkpt lat="47.755385" lon="12.356811">
        <ele>1503.733392</ele>
        <time>2021-09-26T09:54:34.001Z</time>
      </trkpt>
      <trkpt lat="47.755464" lon="12.356743">
        <ele>1504.133083</ele>
        <time>2021-09-26T09:54:58.001Z</time>
      </trkpt>
      <trkpt lat="47.755516" lon="12.356624">
        <ele>1504.550918</ele>
        <time>2021-09-26T09:55:07.001Z</time>
      </trkpt>
      <trkpt lat="47.755547" lon="12.356496">
        <ele>1504.797516</ele>
        <time>2021-09-26T09:55:16.001Z</time>
      </trkpt>
      <trkpt lat="47.755539" lon="12.356363">
        <ele>1504.035414</ele>
        <time>2021-09-26T09:55:30.999Z</time>
      </trkpt>
      <trkpt lat="47.755566" lon="12.356221">
        <ele>1503.193189</ele>
        <time>2021-09-26T09:55:50.000Z</time>
      </trkpt>
      <trkpt lat="47.755595" lon="12.356348">
        <ele>1502.427696</ele>
        <time>2021-09-26T10:12:52.000Z</time>
      </trkpt>
      <trkpt lat="47.755437" lon="12.356469">
        <ele>1500.919054</ele>
        <time>2021-09-26T10:13:48.001Z</time>
      </trkpt>
      <trkpt lat="47.755348" lon="12.356521">
        <ele>1500.107312</ele>
        <time>2021-09-26T10:13:54.001Z</time>
      </trkpt>
      <trkpt lat="47.755257" lon="12.356512">
        <ele>1499.333083</ele>
        <time>2021-09-26T10:14:06.001Z</time>
      </trkpt>
      <trkpt lat="47.755159" lon="12.356497">
        <ele>1498.496742</ele>
        <time>2021-09-26T10:14:16.999Z</time>
      </trkpt>
      <trkpt lat="47.755069" lon="12.356464">
        <ele>1497.709836</ele>
        <time>2021-09-26T10:14:25.999Z</time>
      </trkpt>
      <trkpt lat="47.755006" lon="12.356363">
        <ele>1496.923502</ele>
        <time>2021-09-26T10:14:58.000Z</time>
      </trkpt>
      <trkpt lat="47.754943" lon="12.356258">
        <ele>1496.120282</ele>
        <time>2021-09-26T10:15:07.000Z</time>
      </trkpt>
      <trkpt lat="47.754936" lon="12.356118">
        <ele>1495.319045</ele>
        <time>2021-09-26T10:15:15.000Z</time>
      </trkpt>
      <trkpt lat="47.754907" lon="12.355979">
        <ele>1494.488401</ele>
        <time>2021-09-26T10:15:24.000Z</time>
      </trkpt>
      <trkpt lat="47.754868" lon="12.355837">
        <ele>1493.612937</ele>
        <time>2021-09-26T10:15:31.001Z</time>
      </trkpt>
      <trkpt lat="47.754818" lon="12.355721">
        <ele>1492.826498</ele>
        <time>2021-09-26T10:15:38.001Z</time>
      </trkpt>
      <trkpt lat="47.754743" lon="12.355631">
        <ele>1492.008433</ele>
        <time>2021-09-26T10:15:45.001Z</time>
      </trkpt>
      <trkpt lat="47.754674" lon="12.355536">
        <ele>1491.210250</ele>
        <time>2021-09-26T10:15:55.001Z</time>
      </trkpt>
      <trkpt lat="47.754616" lon="12.355408">
        <ele>1490.329266</ele>
        <time>2021-09-26T10:16:07.001Z</time>
      </trkpt>
      <trkpt lat="47.754585" lon="12.355269">
        <ele>1489.236664</ele>
        <time>2021-09-26T10:16:15.001Z</time>
      </trkpt>
      <trkpt lat="47.754545" lon="12.355130">
        <ele>1486.750302</ele>
        <time>2021-09-26T10:16:22.999Z</time>
      </trkpt>
      <trkpt lat="47.754495" lon="12.355004">
        <ele>1484.344297</ele>
        <time>2021-09-26T10:16:32.999Z</time>
      </trkpt>
      <trkpt lat="47.754423" lon="12.354901">
        <ele>1481.900870</ele>
        <time>2021-09-26T10:16:42.999Z</time>
      </trkpt>
      <trkpt lat="47.754344" lon="12.354831">
        <ele>1479.651673</ele>
        <time>2021-09-26T10:17:00.000Z</time>
      </trkpt>
      <trkpt lat="47.754292" lon="12.354718">
        <ele>1477.399842</ele>
        <time>2021-09-26T10:17:12.000Z</time>
      </trkpt>
      <trkpt lat="47.754233" lon="12.354606">
        <ele>1475.060021</ele>
        <time>2021-09-26T10:17:23.000Z</time>
      </trkpt>
      <trkpt lat="47.754190" lon="12.354487">
        <ele>1472.838387</ele>
        <time>2021-09-26T10:17:32.000Z</time>
      </trkpt>
      <trkpt lat="47.754145" lon="12.354363">
        <ele>1470.521164</ele>
        <time>2021-09-26T10:17:40.001Z</time>
      </trkpt>
      <trkpt lat="47.754072" lon="12.354281">
        <ele>1468.283636</ele>
        <time>2021-09-26T10:17:48.001Z</time>
      </trkpt>
      <trkpt lat="47.753983" lon="12.354215">
        <ele>1465.851169</ele>
        <time>2021-09-26T10:17:56.001Z</time>
      </trkpt>
      <trkpt lat="47.753887" lon="12.354204">
        <ele>1463.496086</ele>
        <time>2021-09-26T10:18:06.001Z</time>
      </trkpt>
      <trkpt lat="47.753796" lon="12.354228">
        <ele>1461.235539</ele>
        <time>2021-09-26T10:18:16.001Z</time>
      </trkpt>
      <trkpt lat="47.753769" lon="12.354423">
        <ele>1457.961533</ele>
        <time>2021-09-26T10:20:31.001Z</time>
      </trkpt>
      <trkpt lat="47.753789" lon="12.354558">
        <ele>1455.688245</ele>
        <time>2021-09-26T10:20:46.999Z</time>
      </trkpt>
      <trkpt lat="47.753725" lon="12.354658">
        <ele>1453.417826</ele>
        <time>2021-09-26T10:21:05.999Z</time>
      </trkpt>
      <trkpt lat="47.753661" lon="12.354764">
        <ele>1451.074953</ele>
        <time>2021-09-26T10:21:39.000Z</time>
      </trkpt>
      <trkpt lat="47.753554" lon="12.354803">
        <ele>1448.380336</ele>
        <time>2021-09-26T10:22:21.001Z</time>
      </trkpt>
      <trkpt lat="47.753471" lon="12.354870">
        <ele>1446.070472</ele>
        <time>2021-09-26T10:23:20.000Z</time>
      </trkpt>
      <trkpt lat="47.753484" lon="12.355008">
        <ele>1443.807822</ele>
        <time>2021-09-26T10:23:44.000Z</time>
      </trkpt>
      <trkpt lat="47.753465" lon="12.355147">
        <ele>1441.511534</ele>
        <time>2021-09-26T10:24:03.001Z</time>
      </trkpt>
      <trkpt lat="47.753434" lon="12.355282">
        <ele>1439.202079</ele>
        <time>2021-09-26T10:26:01.001Z</time>
      </trkpt>
      <trkpt lat="47.753348" lon="12.355325">
        <ele>1437.017409</ele>
        <time>2021-09-26T10:26:23.001Z</time>
      </trkpt>
      <trkpt lat="47.753261" lon="12.355259">
        <ele>1434.665787</ele>
        <time>2021-09-26T10:26:56.000Z</time>
      </trkpt>
      <trkpt lat="47.753212" lon="12.355388">
        <ele>1432.267163</ele>
        <time>2021-09-26T10:28:40.002Z</time>
      </trkpt>
      <trkpt lat="47.753188" lon="12.355656">
        <ele>1427.890209</ele>
        <time>2021-09-26T10:29:54.000Z</time>
      </trkpt>
      <trkpt lat="47.753164" lon="12.355791">
        <ele>1425.629587</ele>
        <time>2021-09-26T10:31:31.000Z</time>
      </trkpt>
      <trkpt lat="47.753191" lon="12.355935">
        <ele>1423.209420</ele>
        <time>2021-09-26T10:31:43.000Z</time>
      </trkpt>
      <trkpt lat="47.753249" lon="12.356045">
        <ele>1420.946318</ele>
        <time>2021-09-26T10:31:55.000Z</time>
      </trkpt>
      <trkpt lat="47.753246" lon="12.356188">
        <ele>1418.630174</ele>
        <time>2021-09-26T10:32:05.000Z</time>
      </trkpt>
      <trkpt lat="47.753205" lon="12.356318">
        <ele>1416.305562</ele>
        <time>2021-09-26T10:32:19.001Z</time>
      </trkpt>
      <trkpt lat="47.753186" lon="12.356452">
        <ele>1414.088526</ele>
        <time>2021-09-26T10:32:33.001Z</time>
      </trkpt>
      <trkpt lat="47.753163" lon="12.356605">
        <ele>1411.550457</ele>
        <time>2021-09-26T10:32:49.001Z</time>
      </trkpt>
      <trkpt lat="47.753199" lon="12.356729">
        <ele>1409.363863</ele>
        <time>2021-09-26T10:33:00.002Z</time>
      </trkpt>
      <trkpt lat="47.753168" lon="12.356866">
        <ele>1407.023734</ele>
        <time>2021-09-26T10:33:10.999Z</time>
      </trkpt>
      <trkpt lat="47.753152" lon="12.357012">
        <ele>1404.628953</ele>
        <time>2021-09-26T10:33:21.999Z</time>
      </trkpt>
      <trkpt lat="47.753194" lon="12.357149">
        <ele>1402.377575</ele>
        <time>2021-09-26T10:34:01.000Z</time>
      </trkpt>
      <trkpt lat="47.753258" lon="12.357320">
        <ele>1403.585871</ele>
        <time>2021-09-26T10:37:25.999Z</time>
      </trkpt>
      <trkpt lat="47.753161" lon="12.357242">
        <ele>1404.598454</ele>
        <time>2021-09-26T10:37:40.999Z</time>
      </trkpt>
      <trkpt lat="47.753147" lon="12.357421">
        <ele>1405.711035</ele>
        <time>2021-09-26T10:38:57.001Z</time>
      </trkpt>
      <trkpt lat="47.753163" lon="12.357555">
        <ele>1406.551284</ele>
        <time>2021-09-26T10:39:23.002Z</time>
      </trkpt>
      <trkpt lat="47.753246" lon="12.357645">
        <ele>1407.494506</ele>
        <time>2021-09-26T10:39:44.999Z</time>
      </trkpt>
      <trkpt lat="47.753200" lon="12.357530">
        <ele>1408.320660</ele>
        <time>2021-09-26T10:39:52.000Z</time>
      </trkpt>
      <trkpt lat="47.753191" lon="12.357676">
        <ele>1409.225831</ele>
        <time>2021-09-26T10:40:21.000Z</time>
      </trkpt>
      <trkpt lat="47.753214" lon="12.357807">
        <ele>1410.061734</ele>
        <time>2021-09-26T10:40:41.001Z</time>
      </trkpt>
      <trkpt lat="47.753186" lon="12.357943">
        <ele>1410.939871</ele>
        <time>2021-09-26T10:40:54.001Z</time>
      </trkpt>
      <trkpt lat="47.753284" lon="12.357977">
        <ele>1411.863953</ele>
        <time>2021-09-26T10:41:22.002Z</time>
      </trkpt>
      <trkpt lat="47.753357" lon="12.358178">
        <ele>1413.274389</ele>
        <time>2021-09-26T10:42:47.001Z</time>
      </trkpt>
      <trkpt lat="47.753391" lon="12.358326">
        <ele>1414.239993</ele>
        <time>2021-09-26T10:43:01.001Z</time>
      </trkpt>
      <trkpt lat="47.753416" lon="12.358457">
        <ele>1415.080722</ele>
        <time>2021-09-26T10:43:22.001Z</time>
      </trkpt>
      <trkpt lat="47.753410" lon="12.358591">
        <ele>1415.909854</ele>
        <time>2021-09-26T10:43:41.999Z</time>
      </trkpt>
      <trkpt lat="47.753478" lon="12.358715">
        <ele>1416.897783</ele>
        <time>2021-09-26T10:44:13.000Z</time>
      </trkpt>
      <trkpt lat="47.753474" lon="12.358854">
        <ele>1417.756736</ele>
        <time>2021-09-26T10:44:28.000Z</time>
      </trkpt>
      <trkpt lat="47.753450" lon="12.359045">
        <ele>1418.879890</ele>
        <time>2021-09-26T10:47:27.001Z</time>
      </trkpt>
      <trkpt lat="47.753357" lon="12.359088">
        <ele>1419.171257</ele>
        <time>2021-09-26T10:47:37.001Z</time>
      </trkpt>
      <trkpt lat="47.753357" lon="12.359230">
        <ele>1419.456879</ele>
        <time>2021-09-26T10:47:50.002Z</time>
      </trkpt>
      <trkpt lat="47.753445" lon="12.359205">
        <ele>1419.724913</ele>
        <time>2021-09-26T10:48:14.000Z</time>
      </trkpt>
      <trkpt lat="47.753467" lon="12.359348">
        <ele>1420.019981</ele>
        <time>2021-09-26T10:48:45.000Z</time>
      </trkpt>
      <trkpt lat="47.753504" lon="12.359480">
        <ele>1420.307640</ele>
        <time>2021-09-26T10:49:04.001Z</time>
      </trkpt>
      <trkpt lat="47.753493" lon="12.359630">
        <ele>1420.611142</ele>
        <time>2021-09-26T10:49:31.001Z</time>
      </trkpt>
      <trkpt lat="47.753467" lon="12.359763">
        <ele>1420.889741</ele>
        <time>2021-09-26T10:49:36.001Z</time>
      </trkpt>
      <trkpt lat="47.753499" lon="12.359902">
        <ele>1421.185265</ele>
        <time>2021-09-26T10:49:46.002Z</time>
      </trkpt>
      <trkpt lat="47.753503" lon="12.360036">
        <ele>1421.455061</ele>
        <time>2021-09-26T10:50:01.000Z</time>
      </trkpt>
      <trkpt lat="47.753538" lon="12.360163">
        <ele>1421.731140</ele>
        <time>2021-09-26T10:50:20.000Z</time>
      </trkpt>
      <trkpt lat="47.753516" lon="12.360299">
        <ele>1422.012499</ele>
        <time>2021-09-26T10:50:35.000Z</time>
      </trkpt>
      <trkpt lat="47.753532" lon="12.360431">
        <ele>1422.282287</ele>
        <time>2021-09-26T10:50:55.000Z</time>
      </trkpt>
      <trkpt lat="47.753527" lon="12.360567">
        <ele>1422.556249</ele>
        <time>2021-09-26T10:51:42.001Z</time>
      </trkpt>
      <trkpt lat="47.753542" lon="12.360724">
        <ele>1422.875215</ele>
        <time>2021-09-26T10:52:09.999Z</time>
      </trkpt>
      <trkpt lat="47.753554" lon="12.360858">
        <ele>1423.147125</ele>
        <time>2021-09-26T10:52:38.000Z</time>
      </trkpt>
      <trkpt lat="47.753647" lon="12.360841">
        <ele>1423.427452</ele>
        <time>2021-09-26T10:52:57.000Z</time>
      </trkpt>
      <trkpt lat="47.753637" lon="12.360975">
        <ele>1423.698637</ele>
        <time>2021-09-26T10:53:13.000Z</time>
      </trkpt>
      <trkpt lat="47.753746" lon="12.360997">
        <ele>1424.027727</ele>
        <time>2021-09-26T10:53:50.001Z</time>
      </trkpt>
      <trkpt lat="47.753801" lon="12.360877">
        <ele>1424.589779</ele>
        <time>2021-09-26T10:54:08.999Z</time>
      </trkpt>
      <trkpt lat="47.753899" lon="12.360949">
        <ele>1425.838057</ele>
        <time>2021-09-26T10:54:18.999Z</time>
      </trkpt>
      <trkpt lat="47.753915" lon="12.361093">
        <ele>1426.958696</ele>
        <time>2021-09-26T10:54:53.000Z</time>
      </trkpt>
      <trkpt lat="47.753908" lon="12.361236">
        <ele>1428.059565</ele>
        <time>2021-09-26T10:55:02.000Z</time>
      </trkpt>
      <trkpt lat="47.753879" lon="12.361369">
        <ele>1429.133111</ele>
        <time>2021-09-26T10:55:21.000Z</time>
      </trkpt>
      <trkpt lat="47.753830" lon="12.361483">
        <ele>1430.172003</ele>
        <time>2021-09-26T10:55:45.001Z</time>
      </trkpt>
      <trkpt lat="47.753766" lon="12.361616">
        <ele>1431.427803</ele>
        <time>2021-09-26T10:56:00.001Z</time>
      </trkpt>
      <trkpt lat="47.753824" lon="12.361721">
        <ele>1432.471211</ele>
        <time>2021-09-26T10:56:14.999Z</time>
      </trkpt>
      <trkpt lat="47.753798" lon="12.361860">
        <ele>1433.579000</ele>
        <time>2021-09-26T10:56:31.999Z</time>
      </trkpt>
      <trkpt lat="47.753772" lon="12.361998">
        <ele>1434.679393</ele>
        <time>2021-09-26T10:56:38.999Z</time>
      </trkpt>
      <trkpt lat="47.753731" lon="12.362132">
        <ele>1435.809793</ele>
        <time>2021-09-26T10:56:50.000Z</time>
      </trkpt>
      <trkpt lat="47.753732" lon="12.362274">
        <ele>1436.900141</ele>
        <time>2021-09-26T10:56:59.000Z</time>
      </trkpt>
      <trkpt lat="47.753819" lon="12.362329">
        <ele>1437.979728</ele>
        <time>2021-09-26T10:57:15.000Z</time>
      </trkpt>
      <trkpt lat="47.753793" lon="12.362461">
        <ele>1439.035835</ele>
        <time>2021-09-26T10:57:27.001Z</time>
      </trkpt>
      <trkpt lat="47.753783" lon="12.362627">
        <ele>1440.315503</ele>
        <time>2021-09-26T10:57:46.001Z</time>
      </trkpt>
      <trkpt lat="47.753830" lon="12.362742">
        <ele>1441.348826</ele>
        <time>2021-09-26T10:58:04.001Z</time>
      </trkpt>
      <trkpt lat="47.753921" lon="12.362785">
        <ele>1442.439258</ele>
        <time>2021-09-26T10:58:08.001Z</time>
      </trkpt>
      <trkpt lat="47.753811" lon="12.362788">
        <ele>1443.695704</ele>
        <time>2021-09-26T10:58:13.002Z</time>
      </trkpt>
      <trkpt lat="47.753877" lon="12.362889">
        <ele>1444.797611</ele>
        <time>2021-09-26T10:58:26.000Z</time>
      </trkpt>
      <trkpt lat="47.753983" lon="12.362878">
        <ele>1448.075318</ele>
        <time>2021-09-26T10:58:35.000Z</time>
      </trkpt>
      <trkpt lat="47.753884" lon="12.362838">
        <ele>1451.239816</ele>
        <time>2021-09-26T10:58:41.000Z</time>
      </trkpt>
      <trkpt lat="47.753885" lon="12.362985">
        <ele>1454.288576</ele>
        <time>2021-09-26T10:59:34.001Z</time>
      </trkpt>
      <trkpt lat="47.753972" lon="12.362941">
        <ele>1457.123140</ele>
        <time>2021-09-26T10:59:45.001Z</time>
      </trkpt>
      <trkpt lat="47.754045" lon="12.363030">
        <ele>1460.034749</ele>
        <time>2021-09-26T11:01:52.001Z</time>
      </trkpt>
      <trkpt lat="47.754145" lon="12.363002">
        <ele>1463.173608</ele>
        <time>2021-09-26T11:02:10.001Z</time>
      </trkpt>
      <trkpt lat="47.754170" lon="12.363132">
        <ele>1465.977762</ele>
        <time>2021-09-26T11:02:27.002Z</time>
      </trkpt>
      <trkpt lat="47.754254" lon="12.363193">
        <ele>1468.861220</ele>
        <time>2021-09-26T11:03:16.000Z</time>
      </trkpt>
      <trkpt lat="47.754229" lon="12.363459">
        <ele>1474.431346</ele>
        <time>2021-09-26T11:04:34.002Z</time>
      </trkpt>
      <trkpt lat="47.754292" lon="12.363578">
        <ele>1477.572545</ele>
        <time>2021-09-26T11:05:02.000Z</time>
      </trkpt>
      <trkpt lat="47.754291" lon="12.363723">
        <ele>1480.579807</ele>
        <time>2021-09-26T11:05:39.000Z</time>
      </trkpt>
      <trkpt lat="47.754336" lon="12.363861">
        <ele>1483.760607</ele>
        <time>2021-09-26T11:05:49.001Z</time>
      </trkpt>
      <trkpt lat="47.754219" lon="12.363835">
        <ele>1487.409738</ele>
        <time>2021-09-26T11:07:07.999Z</time>
      </trkpt>
      <trkpt lat="47.754250" lon="12.363979">
        <ele>1490.545468</ele>
        <time>2021-09-26T11:07:15.000Z</time>
      </trkpt>
      <trkpt lat="47.754307" lon="12.364088">
        <ele>1493.409281</ele>
        <time>2021-09-26T11:07:59.001Z</time>
      </trkpt>
      <trkpt lat="47.754405" lon="12.364150">
        <ele>1496.694354</ele>
        <time>2021-09-26T11:08:12.001Z</time>
      </trkpt>
      <trkpt lat="47.754498" lon="12.364173">
        <ele>1499.602489</ele>
        <time>2021-09-26T11:08:18.001Z</time>
      </trkpt>
      <trkpt lat="47.754476" lon="12.364332">
        <ele>1500.919630</ele>
        <time>2021-09-26T11:08:35.001Z</time>
      </trkpt>
      <trkpt lat="47.754410" lon="12.364449">
        <ele>1501.701904</ele>
        <time>2021-09-26T11:08:44.002Z</time>
      </trkpt>
      <trkpt lat="47.754411" lon="12.364583">
        <ele>1502.388291</ele>
        <time>2021-09-26T11:09:04.999Z</time>
      </trkpt>
      <trkpt lat="47.754428" lon="12.364717">
        <ele>1503.086748</ele>
        <time>2021-09-26T11:09:18.000Z</time>
      </trkpt>
      <trkpt lat="47.754483" lon="12.364838">
        <ele>1503.834862</ele>
        <time>2021-09-26T11:09:31.000Z</time>
      </trkpt>
      <trkpt lat="47.754477" lon="12.364977">
        <ele>1504.548281</ele>
        <time>2021-09-26T11:09:43.000Z</time>
      </trkpt>
      <trkpt lat="47.754480" lon="12.365119">
        <ele>1505.275959</ele>
        <time>2021-09-26T11:09:54.000Z</time>
      </trkpt>
      <trkpt lat="47.754458" lon="12.365258">
        <ele>1506.007375</ele>
        <time>2021-09-26T11:10:05.001Z</time>
      </trkpt>
      <trkpt lat="47.754483" lon="12.365400">
        <ele>1506.759219</ele>
        <time>2021-09-26T11:10:33.001Z</time>
      </trkpt>
      <trkpt lat="47.754471" lon="12.365540">
        <ele>1507.482099</ele>
        <time>2021-09-26T11:11:01.000Z</time>
      </trkpt>
      <trkpt lat="47.754543" lon="12.365623">
        <ele>1508.176083</ele>
        <time>2021-09-26T11:11:10.000Z</time>
      </trkpt>
      <trkpt lat="47.754528" lon="12.365757">
        <ele>1508.871875</ele>
        <time>2021-09-26T11:11:36.000Z</time>
      </trkpt>
      <trkpt lat="47.754576" lon="12.365874">
        <ele>1509.573908</ele>
        <time>2021-09-26T11:11:51.000Z</time>
      </trkpt>
      <trkpt lat="47.754567" lon="12.366012">
        <ele>1510.284055</ele>
        <time>2021-09-26T11:12:04.001Z</time>
      </trkpt>
      <trkpt lat="47.754547" lon="12.366150">
        <ele>1511.007122</ele>
        <time>2021-09-26T11:12:16.001Z</time>
      </trkpt>
      <trkpt lat="47.754585" lon="12.366289">
        <ele>1511.775684</ele>
        <time>2021-09-26T11:12:27.001Z</time>
      </trkpt>
      <trkpt lat="47.754663" lon="12.366359">
        <ele>1512.469709</ele>
        <time>2021-09-26T11:12:43.002Z</time>
      </trkpt>
      <trkpt lat="47.754735" lon="12.366467">
        <ele>1513.248735</ele>
        <time>2021-09-26T11:13:06.000Z</time>
      </trkpt>
      <trkpt lat="47.754812" lon="12.366538">
        <ele>1513.938933</ele>
        <time>2021-09-26T11:13:16.999Z</time>
      </trkpt>
      <trkpt lat="47.754742" lon="12.366641">
        <ele>1515.088814</ele>
        <time>2021-09-26T11:13:31.000Z</time>
      </trkpt>
      <trkpt lat="47.754661" lon="12.366713">
        <ele>1516.196720</ele>
        <time>2021-09-26T11:13:50.000Z</time>
      </trkpt>
      <trkpt lat="47.754651" lon="12.366851">
        <ele>1517.292344</ele>
        <time>2021-09-26T11:14:03.000Z</time>
      </trkpt>
      <trkpt lat="47.754625" lon="12.366983">
        <ele>1518.378095</ele>
        <time>2021-09-26T11:14:19.001Z</time>
      </trkpt>
      <trkpt lat="47.754559" lon="12.367078">
        <ele>1519.456437</ele>
        <time>2021-09-26T11:14:34.001Z</time>
      </trkpt>
      <trkpt lat="47.754579" lon="12.367212">
        <ele>1520.539931</ele>
        <time>2021-09-26T11:14:43.001Z</time>
      </trkpt>
      <trkpt lat="47.754633" lon="12.367333">
        <ele>1521.686334</ele>
        <time>2021-09-26T11:14:54.002Z</time>
      </trkpt>
      <trkpt lat="47.754610" lon="12.367470">
        <ele>1522.800963</ele>
        <time>2021-09-26T11:15:04.002Z</time>
      </trkpt>
      <trkpt lat="47.754646" lon="12.367600">
        <ele>1523.910771</ele>
        <time>2021-09-26T11:15:20.999Z</time>
      </trkpt>
      <trkpt lat="47.754701" lon="12.367711">
        <ele>1524.999214</ele>
        <time>2021-09-26T11:15:37.000Z</time>
      </trkpt>
      <trkpt lat="47.754728" lon="12.367852">
        <ele>1526.156473</ele>
        <time>2021-09-26T11:15:54.000Z</time>
      </trkpt>
      <trkpt lat="47.754725" lon="12.367999">
        <ele>1527.317363</ele>
        <time>2021-09-26T11:16:09.000Z</time>
      </trkpt>
      <trkpt lat="47.754658" lon="12.368128">
        <ele>1528.604102</ele>
        <time>2021-09-26T11:16:21.001Z</time>
      </trkpt>
      <trkpt lat="47.754643" lon="12.368267">
        <ele>1529.715355</ele>
        <time>2021-09-26T11:16:34.001Z</time>
      </trkpt>
      <trkpt lat="47.754571" lon="12.368352">
        <ele>1530.794617</ele>
        <time>2021-09-26T11:16:44.001Z</time>
      </trkpt>
      <trkpt lat="47.754532" lon="12.368476">
        <ele>1531.875235</ele>
        <time>2021-09-26T11:16:56.001Z</time>
      </trkpt>
      <trkpt lat="47.754543" lon="12.368612">
        <ele>1532.956506</ele>
        <time>2021-09-26T11:17:08.002Z</time>
      </trkpt>
      <trkpt lat="47.754558" lon="12.368750">
        <ele>1534.059967</ele>
        <time>2021-09-26T11:17:20.999Z</time>
      </trkpt>
      <trkpt lat="47.754587" lon="12.368879">
        <ele>1535.042044</ele>
        <time>2021-09-26T11:17:28.999Z</time>
      </trkpt>
      <trkpt lat="47.754591" lon="12.369020">
        <ele>1534.593792</ele>
        <time>2021-09-26T11:17:41.000Z</time>
      </trkpt>
      <trkpt lat="47.754617" lon="12.369149">
        <ele>1534.166039</ele>
        <time>2021-09-26T11:17:51.000Z</time>
      </trkpt>
      <trkpt lat="47.754592" lon="12.369280">
        <ele>1533.733510</ele>
        <time>2021-09-26T11:18:01.000Z</time>
      </trkpt>
      <trkpt lat="47.754583" lon="12.369425">
        <ele>1533.270994</ele>
        <time>2021-09-26T11:18:13.000Z</time>
      </trkpt>
      <trkpt lat="47.754635" lon="12.369543">
        <ele>1532.822856</ele>
        <time>2021-09-26T11:18:44.001Z</time>
      </trkpt>
      <trkpt lat="47.754666" lon="12.369670">
        <ele>1532.393707</ele>
        <time>2021-09-26T11:18:58.001Z</time>
      </trkpt>
      <trkpt lat="47.754682" lon="12.369806">
        <ele>1531.955172</ele>
        <time>2021-09-26T11:19:05.002Z</time>
      </trkpt>
      <trkpt lat="47.754734" lon="12.369923">
        <ele>1531.509688</ele>
        <time>2021-09-26T11:19:20.002Z</time>
      </trkpt>
      <trkpt lat="47.754824" lon="12.369929">
        <ele>1531.084064</ele>
        <time>2021-09-26T11:20:02.000Z</time>
      </trkpt>
      <trkpt lat="47.754908" lon="12.369872">
        <ele>1530.647866</ele>
        <time>2021-09-26T11:20:14.000Z</time>
      </trkpt>
      <trkpt lat="47.755004" lon="12.369829">
        <ele>1530.174204</ele>
        <time>2021-09-26T11:20:30.000Z</time>
      </trkpt>
      <trkpt lat="47.755095" lon="12.369797">
        <ele>1529.732431</ele>
        <time>2021-09-26T11:21:17.002Z</time>
      </trkpt>
      <trkpt lat="47.755174" lon="12.369861">
        <ele>1529.307435</ele>
        <time>2021-09-26T11:21:54.999Z</time>
      </trkpt>
      <trkpt lat="47.755226" lon="12.369989">
        <ele>1528.832417</ele>
        <time>2021-09-26T11:22:45.001Z</time>
      </trkpt>
      <trkpt lat="47.755306" lon="12.370054">
        <ele>1528.401752</ele>
        <time>2021-09-26T11:22:59.001Z</time>
      </trkpt>
      <trkpt lat="47.755398" lon="12.370114">
        <ele>1527.927163</ele>
        <time>2021-09-26T11:23:18.001Z</time>
      </trkpt>
      <trkpt lat="47.755489" lon="12.370118">
        <ele>1527.497053</ele>
        <time>2021-09-26T11:23:38.999Z</time>
      </trkpt>
      <trkpt lat="47.755557" lon="12.370229">
        <ele>1527.020078</ele>
        <time>2021-09-26T11:23:53.999Z</time>
      </trkpt>
      <trkpt lat="47.755637" lon="12.370296">
        <ele>1526.586332</ele>
        <time>2021-09-26T11:24:21.000Z</time>
      </trkpt>
      <trkpt lat="47.755714" lon="12.370370">
        <ele>1523.573427</ele>
        <time>2021-09-26T11:24:31.000Z</time>
      </trkpt>
      <trkpt lat="47.755790" lon="12.370453">
        <ele>1520.375944</ele>
        <time>2021-09-26T11:24:38.001Z</time>
      </trkpt>
      <trkpt lat="47.755872" lon="12.370513">
        <ele>1517.276830</ele>
        <time>2021-09-26T11:24:52.001Z</time>
      </trkpt>
      <trkpt lat="47.755885" lon="12.370650">
        <ele>1514.122359</ele>
        <time>2021-09-26T11:25:04.001Z</time>
      </trkpt>
      <trkpt lat="47.755943" lon="12.370763">
        <ele>1510.881009</ele>
        <time>2021-09-26T11:25:36.002Z</time>
      </trkpt>
      <trkpt lat="47.755963" lon="12.370897">
        <ele>1507.751516</ele>
        <time>2021-09-26T11:25:59.999Z</time>
      </trkpt>
      <trkpt lat="47.756051" lon="12.370959">
        <ele>1504.449333</ele>
        <time>2021-09-26T11:26:10.000Z</time>
      </trkpt>
      <trkpt lat="47.756071" lon="12.371106">
        <ele>1501.029897</ele>
        <time>2021-09-26T11:26:44.001Z</time>
      </trkpt>
      <trkpt lat="47.756155" lon="12.371154">
        <ele>1497.978234</ele>
        <time>2021-09-26T11:27:30.002Z</time>
      </trkpt>
      <trkpt lat="47.756243" lon="12.371189">
        <ele>1494.889053</ele>
        <time>2021-09-26T11:27:39.002Z</time>
      </trkpt>
      <trkpt lat="47.756214" lon="12.371330">
        <ele>1491.527292</ele>
        <time>2021-09-26T11:27:54.999Z</time>
      </trkpt>
      <trkpt lat="47.756145" lon="12.371441">
        <ele>1488.080543</ele>
        <time>2021-09-26T11:28:05.000Z</time>
      </trkpt>
      <trkpt lat="47.756164" lon="12.371579">
        <ele>1484.868947</ele>
        <time>2021-09-26T11:28:56.001Z</time>
      </trkpt>
      <trkpt lat="47.756231" lon="12.371671">
        <ele>1481.776640</ele>
        <time>2021-09-26T11:29:13.001Z</time>
      </trkpt>
      <trkpt lat="47.756179" lon="12.371790">
        <ele>1478.540781</ele>
        <time>2021-09-26T11:29:33.002Z</time>
      </trkpt>
      <trkpt lat="47.756220" lon="12.371920">
        <ele>1475.266948</ele>
        <time>2021-09-26T11:29:50.002Z</time>
      </trkpt>
      <trkpt lat="47.756236" lon="12.372055">
        <ele>1472.141593</ele>
        <time>2021-09-26T11:30:08.000Z</time>
      </trkpt>
      <trkpt lat="47.756299" lon="12.372151">
        <ele>1469.082966</ele>
        <time>2021-09-26T11:31:08.001Z</time>
      </trkpt>
      <trkpt lat="47.756328" lon="12.372279">
        <ele>1466.003411</ele>
        <time>2021-09-26T11:31:36.002Z</time>
      </trkpt>
      <trkpt lat="47.756345" lon="12.372416">
        <ele>1463.201650</ele>
        <time>2021-09-26T11:32:11.000Z</time>
      </trkpt>
      <trkpt lat="47.756425" lon="12.372485">
        <ele>1460.493148</ele>
        <time>2021-09-26T11:32:45.001Z</time>
      </trkpt>
      <trkpt lat="47.756421" lon="12.372630">
        <ele>1457.635650</ele>
        <time>2021-09-26T11:33:09.001Z</time>
      </trkpt>
      <trkpt lat="47.756362" lon="12.372745">
        <ele>1454.787221</ele>
        <time>2021-09-26T11:34:19.000Z</time>
      </trkpt>
      <trkpt lat="47.756322" lon="12.372618">
        <ele>1452.025719</ele>
        <time>2021-09-26T11:34:42.000Z</time>
      </trkpt>
      <trkpt lat="47.756222" lon="12.372617">
        <ele>1449.096784</ele>
        <time>2021-09-26T11:34:53.001Z</time>
      </trkpt>
      <trkpt lat="47.756258" lon="12.372751">
        <ele>1446.255395</ele>
        <time>2021-09-26T11:35:09.001Z</time>
      </trkpt>
      <trkpt lat="47.756312" lon="12.372861">
        <ele>1443.573470</ele>
        <time>2021-09-26T11:35:16.001Z</time>
      </trkpt>
      <trkpt lat="47.756380" lon="12.372951">
        <ele>1440.907567</ele>
        <time>2021-09-26T11:35:32.001Z</time>
      </trkpt>
      <trkpt lat="47.756441" lon="12.373072">
        <ele>1437.929578</ele>
        <time>2021-09-26T11:35:43.002Z</time>
      </trkpt>
      <trkpt lat="47.756488" lon="12.373195">
        <ele>1435.143797</ele>
        <time>2021-09-26T11:35:56.002Z</time>
      </trkpt>
      <trkpt lat="47.756558" lon="12.373283">
        <ele>1432.459443</ele>
        <time>2021-09-26T11:36:11.000Z</time>
      </trkpt>
      <trkpt lat="47.756559" lon="12.373426">
        <ele>1429.643583</ele>
        <time>2021-09-26T11:36:29.000Z</time>
      </trkpt>
      <trkpt lat="47.756587" lon="12.373558">
        <ele>1426.918160</ele>
        <time>2021-09-26T11:36:46.000Z</time>
      </trkpt>
      <trkpt lat="47.756581" lon="12.373695">
        <ele>1424.214877</ele>
        <time>2021-09-26T11:37:11.001Z</time>
      </trkpt>
      <trkpt lat="47.756587" lon="12.373831">
        <ele>1421.531243</ele>
        <time>2021-09-26T11:37:31.001Z</time>
      </trkpt>
      <trkpt lat="47.756624" lon="12.373953">
        <ele>1418.895910</ele>
        <time>2021-09-26T11:37:46.001Z</time>
      </trkpt>
      <trkpt lat="47.756691" lon="12.374043">
        <ele>1416.251823</ele>
        <time>2021-09-26T11:37:56.002Z</time>
      </trkpt>
      <trkpt lat="47.756756" lon="12.374158">
        <ele>1413.293494</ele>
        <time>2021-09-26T11:38:09.002Z</time>
      </trkpt>
      <trkpt lat="47.756841" lon="12.374228">
        <ele>1412.793898</ele>
        <time>2021-09-26T11:38:16.000Z</time>
      </trkpt>
      <trkpt lat="47.756902" lon="12.374327">
        <ele>1412.686088</ele>
        <time>2021-09-26T11:38:32.000Z</time>
      </trkpt>
      <trkpt lat="47.756998" lon="12.374343">
        <ele>1412.570731</ele>
        <time>2021-09-26T11:38:59.000Z</time>
      </trkpt>
      <trkpt lat="47.757062" lon="12.374443">
        <ele>1412.459889</ele>
        <time>2021-09-26T11:39:15.001Z</time>
      </trkpt>
      <trkpt lat="47.757143" lon="12.374513">
        <ele>1412.348022</ele>
        <time>2021-09-26T11:39:21.001Z</time>
      </trkpt>
      <trkpt lat="47.757216" lon="12.374609">
        <ele>1412.231666</ele>
        <time>2021-09-26T11:39:30.001Z</time>
      </trkpt>
      <trkpt lat="47.757305" lon="12.374665">
        <ele>1412.116268</ele>
        <time>2021-09-26T11:39:46.001Z</time>
      </trkpt>
      <trkpt lat="47.757401" lon="12.374662">
        <ele>1412.001603</ele>
        <time>2021-09-26T11:40:08.002Z</time>
      </trkpt>
      <trkpt lat="47.757348" lon="12.374796">
        <ele>1411.876790</ele>
        <time>2021-09-26T11:41:19.000Z</time>
      </trkpt>
      <trkpt lat="47.757405" lon="12.374671">
        <ele>1411.755533</ele>
        <time>2021-09-26T11:41:33.001Z</time>
      </trkpt>
      <trkpt lat="47.757468" lon="12.374569">
        <ele>1411.644335</ele>
        <time>2021-09-26T11:41:42.001Z</time>
      </trkpt>
      <trkpt lat="47.757502" lon="12.374442">
        <ele>1411.534592</ele>
        <time>2021-09-26T11:41:54.001Z</time>
      </trkpt>
      <trkpt lat="47.757572" lon="12.374354">
        <ele>1411.425146</ele>
        <time>2021-09-26T11:42:07.001Z</time>
      </trkpt>
      <trkpt lat="47.757648" lon="12.374276">
        <ele>1411.314884</ele>
        <time>2021-09-26T11:42:20.002Z</time>
      </trkpt>
      <trkpt lat="47.757718" lon="12.374175">
        <ele>1411.198429</ele>
        <time>2021-09-26T11:42:36.000Z</time>
      </trkpt>
      <trkpt lat="47.757784" lon="12.374077">
        <ele>1411.087067</ele>
        <time>2021-09-26T11:42:48.000Z</time>
      </trkpt>
      <trkpt lat="47.757835" lon="12.373956">
        <ele>1410.972416</ele>
        <time>2021-09-26T11:42:59.000Z</time>
      </trkpt>
      <trkpt lat="47.757888" lon="12.373845">
        <ele>1410.863117</ele>
        <time>2021-09-26T11:43:06.000Z</time>
      </trkpt>
      <trkpt lat="47.757874" lon="12.373703">
        <ele>1410.747901</ele>
        <time>2021-09-26T11:43:18.000Z</time>
      </trkpt>
      <trkpt lat="47.757873" lon="12.373566">
        <ele>1411.501952</ele>
        <time>2021-09-26T11:43:39.001Z</time>
      </trkpt>
      <trkpt lat="47.757866" lon="12.373425">
        <ele>1412.297912</ele>
        <time>2021-09-26T11:43:53.001Z</time>
      </trkpt>
      <trkpt lat="47.757862" lon="12.373277">
        <ele>1413.131793</ele>
        <time>2021-09-26T11:44:09.001Z</time>
      </trkpt>
      <trkpt lat="47.757820" lon="12.373157">
        <ele>1413.893442</ele>
        <time>2021-09-26T11:44:24.002Z</time>
      </trkpt>
      <trkpt lat="47.757843" lon="12.373027">
        <ele>1414.650235</ele>
        <time>2021-09-26T11:44:43.000Z</time>
      </trkpt>
      <trkpt lat="47.757890" lon="12.372910">
        <ele>1415.417557</ele>
        <time>2021-09-26T11:45:10.000Z</time>
      </trkpt>
      <trkpt lat="47.757893" lon="12.372760">
        <ele>1416.262397</ele>
        <time>2021-09-26T11:45:23.000Z</time>
      </trkpt>
      <trkpt lat="47.757904" lon="12.372625">
        <ele>1417.027980</ele>
        <time>2021-09-26T11:45:37.000Z</time>
      </trkpt>
      <trkpt lat="47.757899" lon="12.372469">
        <ele>1417.907223</ele>
        <time>2021-09-26T11:45:54.001Z</time>
      </trkpt>
      <trkpt lat="47.757953" lon="12.372357">
        <ele>1418.683156</ele>
        <time>2021-09-26T11:46:02.001Z</time>
      </trkpt>
      <trkpt lat="47.758012" lon="12.372255">
        <ele>1419.440697</ele>
        <time>2021-09-26T11:46:11.001Z</time>
      </trkpt>
      <trkpt lat="47.758022" lon="12.372119">
        <ele>1420.210912</ele>
        <time>2021-09-26T11:46:27.001Z</time>
      </trkpt>
      <trkpt lat="47.758069" lon="12.371990">
        <ele>1421.036951</ele>
        <time>2021-09-26T11:46:36.002Z</time>
      </trkpt>
      <trkpt lat="47.758084" lon="12.371853">
        <ele>1421.818390</ele>
        <time>2021-09-26T11:46:48.999Z</time>
      </trkpt>
      <trkpt lat="47.758110" lon="12.371718">
        <ele>1422.608981</ele>
        <time>2021-09-26T11:47:05.000Z</time>
      </trkpt>
      <trkpt lat="47.758125" lon="12.371580">
        <ele>1423.395977</ele>
        <time>2021-09-26T11:47:23.000Z</time>
      </trkpt>
      <trkpt lat="47.758202" lon="12.371493">
        <ele>1424.205725</ele>
        <time>2021-09-26T11:47:38.000Z</time>
      </trkpt>
      <trkpt lat="47.758273" lon="12.371409">
        <ele>1424.965433</ele>
        <time>2021-09-26T11:47:51.001Z</time>
      </trkpt>
      <trkpt lat="47.758313" lon="12.371275">
        <ele>1425.790844</ele>
        <time>2021-09-26T11:48:03.001Z</time>
      </trkpt>
      <trkpt lat="47.758360" lon="12.371154">
        <ele>1426.693451</ele>
        <time>2021-09-26T11:48:15.001Z</time>
      </trkpt>
      <trkpt lat="47.758356" lon="12.371009">
        <ele>1427.633498</ele>
        <time>2021-09-26T11:48:26.001Z</time>
      </trkpt>
      <trkpt lat="47.758370" lon="12.370867">
        <ele>1428.563161</ele>
        <time>2021-09-26T11:48:37.002Z</time>
      </trkpt>
      <trkpt lat="47.758424" lon="12.370745">
        <ele>1429.509345</ele>
        <time>2021-09-26T11:48:47.999Z</time>
      </trkpt>
      <trkpt lat="47.758486" lon="12.370635">
        <ele>1430.439188</ele>
        <time>2021-09-26T11:48:58.999Z</time>
      </trkpt>
      <trkpt lat="47.758548" lon="12.370535">
        <ele>1431.320375</ele>
        <time>2021-09-26T11:49:15.000Z</time>
      </trkpt>
      <trkpt lat="47.758591" lon="12.370409">
        <ele>1432.235699</ele>
        <time>2021-09-26T11:49:25.000Z</time>
      </trkpt>
      <trkpt lat="47.758636" lon="12.370282">
        <ele>1433.165631</ele>
        <time>2021-09-26T11:49:37.000Z</time>
      </trkpt>
      <trkpt lat="47.758681" lon="12.370164">
        <ele>1434.044409</ele>
        <time>2021-09-26T11:49:48.000Z</time>
      </trkpt>
      <trkpt lat="47.758756" lon="12.370083">
        <ele>1434.937465</ele>
        <time>2021-09-26T11:49:57.001Z</time>
      </trkpt>
      <trkpt lat="47.758830" lon="12.369982">
        <ele>1435.905165</ele>
        <time>2021-09-26T11:50:07.001Z</time>
      </trkpt>
      <trkpt lat="47.758899" lon="12.369880">
        <ele>1436.842489</ele>
        <time>2021-09-26T11:50:18.001Z</time>
      </trkpt>
      <trkpt lat="47.758909" lon="12.369746">
        <ele>1437.715814</ele>
        <time>2021-09-26T11:50:26.001Z</time>
      </trkpt>
      <trkpt lat="47.758936" lon="12.369613">
        <ele>1438.615755</ele>
        <time>2021-09-26T11:50:34.001Z</time>
      </trkpt>
      <trkpt lat="47.758932" lon="12.369467">
        <ele>1439.562264</ele>
        <time>2021-09-26T11:50:43.001Z</time>
      </trkpt>
      <trkpt lat="47.758939" lon="12.369318">
        <ele>1440.529774</ele>
        <time>2021-09-26T11:50:51.999Z</time>
      </trkpt>
      <trkpt lat="47.758954" lon="12.369163">
        <ele>1441.544146</ele>
        <time>2021-09-26T11:50:59.999Z</time>
      </trkpt>
      <trkpt lat="47.758975" lon="12.369031">
        <ele>1442.422800</ele>
        <time>2021-09-26T11:51:08.000Z</time>
      </trkpt>
      <trkpt lat="47.759007" lon="12.368899">
        <ele>1443.139253</ele>
        <time>2021-09-26T11:51:15.000Z</time>
      </trkpt>
      <trkpt lat="47.759001" lon="12.368758">
        <ele>1443.139253</ele>
        <time>2021-09-26T11:51:23.000Z</time>
      </trkpt>
      <trkpt lat="47.759029" lon="12.368620">
        <ele>1443.139253</ele>
        <time>2021-09-26T11:51:31.000Z</time>
      </trkpt>
      <trkpt lat="47.759012" lon="12.368487">
        <ele>1443.139253</ele>
        <time>2021-09-26T11:51:39.000Z</time>
      </trkpt>
      <trkpt lat="47.759029" lon="12.368345">
        <ele>1443.139253</ele>
        <time>2021-09-26T11:51:47.000Z</time>
      </trkpt>
      <trkpt lat="47.759047" lon="12.368203">
        <ele>1443.139253</ele>
        <time>2021-09-26T11:51:56.000Z</time>
      </trkpt>
      <trkpt lat="47.759060" lon="12.368051">
        <ele>1443.139253</ele>
        <time>2021-09-26T11:52:06.001Z</time>
      </trkpt>
      <trkpt lat="47.759078" lon="12.367910">
        <ele>1443.139253</ele>
        <time>2021-09-26T11:52:15.001Z</time>
      </trkpt>
      <trkpt lat="47.759097" lon="12.367775">
        <ele>1443.139253</ele>
        <time>2021-09-26T11:52:25.001Z</time>
      </trkpt>
      <trkpt lat="47.759106" lon="12.367633">
        <ele>1443.139253</ele>
        <time>2021-09-26T11:52:37.001Z</time>
      </trkpt>
      <trkpt lat="47.759120" lon="12.367496">
        <ele>1443.139253</ele>
        <time>2021-09-26T11:52:45.002Z</time>
      </trkpt>
      <trkpt lat="47.759130" lon="12.367361">
        <ele>1443.139253</ele>
        <time>2021-09-26T11:52:55.002Z</time>
      </trkpt>
      <trkpt lat="47.759120" lon="12.367226">
        <ele>1443.139253</ele>
        <time>2021-09-26T11:53:03.000Z</time>
      </trkpt>
      <trkpt lat="47.759128" lon="12.367072">
        <ele>1443.139253</ele>
        <time>2021-09-26T11:53:12.000Z</time>
      </trkpt>
      <trkpt lat="47.759103" lon="12.366924">
        <ele>1443.139253</ele>
        <time>2021-09-26T11:53:21.000Z</time>
      </trkpt>
      <trkpt lat="47.759127" lon="12.366790">
        <ele>1443.139253</ele>
        <time>2021-09-26T11:53:29.000Z</time>
      </trkpt>
      <trkpt lat="47.759153" lon="12.366703">
        <ele>1451.156757</ele>
        <time>2021-09-26T11:58:58.000Z</time>
      </trkpt>
      <trkpt lat="47.759172" lon="12.366565">
        <ele>1451.156757</ele>
        <time>2021-09-26T11:59:08.000Z</time>
      </trkpt>
      <trkpt lat="47.759157" lon="12.366424">
        <ele>1451.156757</ele>
        <time>2021-09-26T11:59:18.000Z</time>
      </trkpt>
      <trkpt lat="47.759163" lon="12.366273">
        <ele>1451.156757</ele>
        <time>2021-09-26T11:59:27.000Z</time>
      </trkpt>
      <trkpt lat="47.759129" lon="12.366140">
        <ele>1451.156757</ele>
        <time>2021-09-26T11:59:37.000Z</time>
      </trkpt>
      <trkpt lat="47.759058" lon="12.366033">
        <ele>1451.156757</ele>
        <time>2021-09-26T11:59:46.001Z</time>
      </trkpt>
      <trkpt lat="47.758986" lon="12.365936">
        <ele>1451.156757</ele>
        <time>2021-09-26T11:59:53.001Z</time>
      </trkpt>
      <trkpt lat="47.758949" lon="12.365813">
        <ele>1451.156757</ele>
        <time>2021-09-26T12:00:00.001Z</time>
      </trkpt>
      <trkpt lat="47.758930" lon="12.365663">
        <ele>1451.156757</ele>
        <time>2021-09-26T12:00:08.001Z</time>
      </trkpt>
      <trkpt lat="47.758958" lon="12.365535">
        <ele>1451.156757</ele>
        <time>2021-09-26T12:00:17.001Z</time>
      </trkpt>
      <trkpt lat="47.759001" lon="12.365413">
        <ele>1450.404015</ele>
        <time>2021-09-26T12:00:23.001Z</time>
      </trkpt>
      <trkpt lat="47.759013" lon="12.365277">
        <ele>1449.305479</ele>
        <time>2021-09-26T12:00:30.999Z</time>
      </trkpt>
      <trkpt lat="47.758993" lon="12.365125">
        <ele>1448.065046</ele>
        <time>2021-09-26T12:00:37.999Z</time>
      </trkpt>
      <trkpt lat="47.758965" lon="12.364988">
        <ele>1446.918256</ele>
        <time>2021-09-26T12:00:44.999Z</time>
      </trkpt>
      <trkpt lat="47.758929" lon="12.364849">
        <ele>1445.725275</ele>
        <time>2021-09-26T12:00:55.999Z</time>
      </trkpt>
      <trkpt lat="47.758897" lon="12.364717">
        <ele>1444.601476</ele>
        <time>2021-09-26T12:01:02.999Z</time>
      </trkpt>
      <trkpt lat="47.758938" lon="12.364589">
        <ele>1443.465930</ele>
        <time>2021-09-26T12:01:09.000Z</time>
      </trkpt>
      <trkpt lat="47.758953" lon="12.364455">
        <ele>1442.377976</ele>
        <time>2021-09-26T12:01:17.000Z</time>
      </trkpt>
      <trkpt lat="47.758987" lon="12.364325">
        <ele>1441.260816</ele>
        <time>2021-09-26T12:01:27.000Z</time>
      </trkpt>
      <trkpt lat="47.759017" lon="12.364196">
        <ele>1440.167610</ele>
        <time>2021-09-26T12:01:36.000Z</time>
      </trkpt>
      <trkpt lat="47.759066" lon="12.364075">
        <ele>1439.036305</ele>
        <time>2021-09-26T12:01:45.000Z</time>
      </trkpt>
      <trkpt lat="47.759109" lon="12.363954">
        <ele>1437.940173</ele>
        <time>2021-09-26T12:01:52.000Z</time>
      </trkpt>
      <trkpt lat="47.759148" lon="12.363829">
        <ele>1436.836513</ele>
        <time>2021-09-26T12:02:04.001Z</time>
      </trkpt>
      <trkpt lat="47.759200" lon="12.363714">
        <ele>1435.726545</ele>
        <time>2021-09-26T12:02:12.001Z</time>
      </trkpt>
      <trkpt lat="47.759297" lon="12.363684">
        <ele>1434.546234</ele>
        <time>2021-09-26T12:02:22.001Z</time>
      </trkpt>
      <trkpt lat="47.759375" lon="12.363759">
        <ele>1433.439762</ele>
        <time>2021-09-26T12:02:31.001Z</time>
      </trkpt>
      <trkpt lat="47.759432" lon="12.363878">
        <ele>1432.269545</ele>
        <time>2021-09-26T12:02:39.999Z</time>
      </trkpt>
      <trkpt lat="47.759490" lon="12.363989">
        <ele>1431.143619</ele>
        <time>2021-09-26T12:02:47.999Z</time>
      </trkpt>
      <trkpt lat="47.759541" lon="12.364115">
        <ele>1429.965726</ele>
        <time>2021-09-26T12:02:55.999Z</time>
      </trkpt>
      <trkpt lat="47.759592" lon="12.364226">
        <ele>1428.992128</ele>
        <time>2021-09-26T12:03:03.999Z</time>
      </trkpt>
      <trkpt lat="47.759655" lon="12.364347">
        <ele>1427.916974</ele>
        <time>2021-09-26T12:03:12.000Z</time>
      </trkpt>
      <trkpt lat="47.759731" lon="12.364441">
        <ele>1426.884109</ele>
        <time>2021-09-26T12:03:20.000Z</time>
      </trkpt>
      <trkpt lat="47.759786" lon="12.364555">
        <ele>1425.898368</ele>
        <time>2021-09-26T12:03:28.000Z</time>
      </trkpt>
      <trkpt lat="47.759836" lon="12.364673">
        <ele>1424.918496</ele>
        <time>2021-09-26T12:03:35.000Z</time>
      </trkpt>
      <trkpt lat="47.759878" lon="12.364801">
        <ele>1423.917909</ele>
        <time>2021-09-26T12:03:44.000Z</time>
      </trkpt>
      <trkpt lat="47.759904" lon="12.364929">
        <ele>1422.978569</ele>
        <time>2021-09-26T12:03:52.000Z</time>
      </trkpt>
      <trkpt lat="47.759913" lon="12.365076">
        <ele>1421.941634</ele>
        <time>2021-09-26T12:04:01.001Z</time>
      </trkpt>
      <trkpt lat="47.759927" lon="12.365217">
        <ele>1420.940376</ele>
        <time>2021-09-26T12:04:11.001Z</time>
      </trkpt>
      <trkpt lat="47.759973" lon="12.365339">
        <ele>1419.957734</ele>
        <time>2021-09-26T12:04:19.001Z</time>
      </trkpt>
      <trkpt lat="47.759994" lon="12.365482">
        <ele>1418.929483</ele>
        <time>2021-09-26T12:04:26.001Z</time>
      </trkpt>
      <trkpt lat="47.760004" lon="12.365624">
        <ele>1417.926490</ele>
        <time>2021-09-26T12:04:35.001Z</time>
      </trkpt>
      <trkpt lat="47.759991" lon="12.365764">
        <ele>1416.933667</ele>
        <time>2021-09-26T12:04:42.999Z</time>
      </trkpt>
      <trkpt lat="47.759978" lon="12.365898">
        <ele>1415.982579</ele>
        <time>2021-09-26T12:04:50.999Z</time>
      </trkpt>
      <trkpt lat="47.759985" lon="12.366035">
        <ele>1415.017392</ele>
        <time>2021-09-26T12:04:57.999Z</time>
      </trkpt>
      <trkpt lat="47.759985" lon="12.366178">
        <ele>1414.012832</ele>
        <time>2021-09-26T12:05:05.999Z</time>
      </trkpt>
      <trkpt lat="47.760027" lon="12.366299">
        <ele>1413.056195</ele>
        <time>2021-09-26T12:05:14.000Z</time>
      </trkpt>
      <trkpt lat="47.760078" lon="12.366436">
        <ele>1411.956073</ele>
        <time>2021-09-26T12:05:22.000Z</time>
      </trkpt>
      <trkpt lat="47.760120" lon="12.366561">
        <ele>1410.974386</ele>
        <time>2021-09-26T12:05:30.000Z</time>
      </trkpt>
      <trkpt lat="47.760149" lon="12.366694">
        <ele>1410.033950</ele>
        <time>2021-09-26T12:05:38.000Z</time>
      </trkpt>
      <trkpt lat="47.760165" lon="12.366849">
        <ele>1408.981266</ele>
        <time>2021-09-26T12:05:48.000Z</time>
      </trkpt>
      <trkpt lat="47.760204" lon="12.366978">
        <ele>1408.031769</ele>
        <time>2021-09-26T12:05:57.000Z</time>
      </trkpt>
      <trkpt lat="47.760255" lon="12.367099">
        <ele>1407.073065</ele>
        <time>2021-09-26T12:06:06.001Z</time>
      </trkpt>
      <trkpt lat="47.760324" lon="12.367195">
        <ele>1406.129646</ele>
        <time>2021-09-26T12:06:15.001Z</time>
      </trkpt>
      <trkpt lat="47.760407" lon="12.367251">
        <ele>1405.219557</ele>
        <time>2021-09-26T12:06:22.001Z</time>
      </trkpt>
      <trkpt lat="47.760507" lon="12.367288">
        <ele>1404.190550</ele>
        <time>2021-09-26T12:06:32.001Z</time>
      </trkpt>
      <trkpt lat="47.760603" lon="12.367305">
        <ele>1403.225143</ele>
        <time>2021-09-26T12:06:40.001Z</time>
      </trkpt>
      <trkpt lat="47.760703" lon="12.367286">
        <ele>1402.218449</ele>
        <time>2021-09-26T12:06:48.002Z</time>
      </trkpt>
      <trkpt lat="47.760779" lon="12.367212">
        <ele>1401.311412</ele>
        <time>2021-09-26T12:06:55.999Z</time>
      </trkpt>
      <trkpt lat="47.760798" lon="12.367078">
        <ele>1400.392112</ele>
        <time>2021-09-26T12:07:01.999Z</time>
      </trkpt>
      <trkpt lat="47.760789" lon="12.366934">
        <ele>1399.421309</ele>
        <time>2021-09-26T12:07:08.999Z</time>
      </trkpt>
      <trkpt lat="47.760728" lon="12.366831">
        <ele>1398.499844</ele>
        <time>2021-09-26T12:07:17.000Z</time>
      </trkpt>
      <trkpt lat="47.760647" lon="12.366762">
        <ele>1397.567762</ele>
        <time>2021-09-26T12:07:28.000Z</time>
      </trkpt>
      <trkpt lat="47.760613" lon="12.366626">
        <ele>1396.593738</ele>
        <time>2021-09-26T12:07:37.000Z</time>
      </trkpt>
      <trkpt lat="47.760635" lon="12.366481">
        <ele>1395.595903</ele>
        <time>2021-09-26T12:07:44.000Z</time>
      </trkpt>
      <trkpt lat="47.760659" lon="12.366348">
        <ele>1394.671498</ele>
        <time>2021-09-26T12:07:52.000Z</time>
      </trkpt>
      <trkpt lat="47.760625" lon="12.366222">
        <ele>1393.760091</ele>
        <time>2021-09-26T12:08:01.000Z</time>
      </trkpt>
      <trkpt lat="47.760576" lon="12.366089">
        <ele>1392.740668</ele>
        <time>2021-09-26T12:08:09.001Z</time>
      </trkpt>
      <trkpt lat="47.760543" lon="12.365957">
        <ele>1391.789812</ele>
        <time>2021-09-26T12:08:18.001Z</time>
      </trkpt>
      <trkpt lat="47.760541" lon="12.365820">
        <ele>1390.864614</ele>
        <time>2021-09-26T12:08:28.001Z</time>
      </trkpt>
      <trkpt lat="47.760537" lon="12.365671">
        <ele>1389.857813</ele>
        <time>2021-09-26T12:08:36.001Z</time>
      </trkpt>
      <trkpt lat="47.760514" lon="12.365530">
        <ele>1388.878201</ele>
        <time>2021-09-26T12:08:44.001Z</time>
      </trkpt>
      <trkpt lat="47.760487" lon="12.365388">
        <ele>1387.881849</ele>
        <time>2021-09-26T12:08:53.002Z</time>
      </trkpt>
      <trkpt lat="47.760462" lon="12.365256">
        <ele>1386.955931</ele>
        <time>2021-09-26T12:09:00.000Z</time>
      </trkpt>
      <trkpt lat="47.760431" lon="12.365127">
        <ele>1386.030985</ele>
        <time>2021-09-26T12:09:07.999Z</time>
      </trkpt>
      <trkpt lat="47.760421" lon="12.364992">
        <ele>1385.113990</ele>
        <time>2021-09-26T12:09:15.999Z</time>
      </trkpt>
      <trkpt lat="47.760405" lon="12.364856">
        <ele>1384.181805</ele>
        <time>2021-09-26T12:09:24.000Z</time>
      </trkpt>
      <trkpt lat="47.760389" lon="12.364724">
        <ele>1383.276209</ele>
        <time>2021-09-26T12:09:31.000Z</time>
      </trkpt>
      <trkpt lat="47.760365" lon="12.364588">
        <ele>1382.326867</ele>
        <time>2021-09-26T12:09:39.000Z</time>
      </trkpt>
      <trkpt lat="47.760326" lon="12.364453">
        <ele>1381.334785</ele>
        <time>2021-09-26T12:09:48.000Z</time>
      </trkpt>
      <trkpt lat="47.760333" lon="12.364313">
        <ele>1380.386936</ele>
        <time>2021-09-26T12:09:56.000Z</time>
      </trkpt>
      <trkpt lat="47.760319" lon="12.364173">
        <ele>1379.431297</ele>
        <time>2021-09-26T12:10:04.000Z</time>
      </trkpt>
      <trkpt lat="47.760315" lon="12.364007">
        <ele>1378.309794</ele>
        <time>2021-09-26T12:10:14.001Z</time>
      </trkpt>
      <trkpt lat="47.760315" lon="12.363861">
        <ele>1377.324046</ele>
        <time>2021-09-26T12:10:21.001Z</time>
      </trkpt>
      <trkpt lat="47.760287" lon="12.363727">
        <ele>1376.376618</ele>
        <time>2021-09-26T12:10:30.001Z</time>
      </trkpt>
      <trkpt lat="47.760264" lon="12.363590">
        <ele>1375.423225</ele>
        <time>2021-09-26T12:10:38.001Z</time>
      </trkpt>
      <trkpt lat="47.760247" lon="12.363457">
        <ele>1374.602456</ele>
        <time>2021-09-26T12:10:45.001Z</time>
      </trkpt>
      <trkpt lat="47.760225" lon="12.363316">
        <ele>1373.854316</ele>
        <time>2021-09-26T12:10:54.001Z</time>
      </trkpt>
      <trkpt lat="47.760199" lon="12.363176">
        <ele>1373.103611</ele>
        <time>2021-09-26T12:11:03.000Z</time>
      </trkpt>
      <trkpt lat="47.760144" lon="12.363058">
        <ele>1372.361458</ele>
        <time>2021-09-26T12:11:11.999Z</time>
      </trkpt>
      <trkpt lat="47.760114" lon="12.362922">
        <ele>1371.621655</ele>
        <time>2021-09-26T12:11:18.999Z</time>
      </trkpt>
      <trkpt lat="47.760088" lon="12.362765">
        <ele>1370.785928</ele>
        <time>2021-09-26T12:11:29.000Z</time>
      </trkpt>
      <trkpt lat="47.760061" lon="12.362633">
        <ele>1370.072792</ele>
        <time>2021-09-26T12:11:36.000Z</time>
      </trkpt>
      <trkpt lat="47.760021" lon="12.362487">
        <ele>1369.257915</ele>
        <time>2021-09-26T12:11:44.000Z</time>
      </trkpt>
      <trkpt lat="47.759970" lon="12.362373">
        <ele>1368.550146</ele>
        <time>2021-09-26T12:11:52.000Z</time>
      </trkpt>
      <trkpt lat="47.759917" lon="12.362254">
        <ele>1367.812341</ele>
        <time>2021-09-26T12:12:00.000Z</time>
      </trkpt>
      <trkpt lat="47.759864" lon="12.362141">
        <ele>1367.100182</ele>
        <time>2021-09-26T12:12:10.000Z</time>
      </trkpt>
      <trkpt lat="47.759836" lon="12.362008">
        <ele>1366.379836</ele>
        <time>2021-09-26T12:12:17.000Z</time>
      </trkpt>
      <trkpt lat="47.759776" lon="12.361887">
        <ele>1365.602700</ele>
        <time>2021-09-26T12:12:25.001Z</time>
      </trkpt>
      <trkpt lat="47.759727" lon="12.361751">
        <ele>1364.805174</ele>
        <time>2021-09-26T12:12:33.001Z</time>
      </trkpt>
      <trkpt lat="47.759651" lon="12.361651">
        <ele>1364.025049</ele>
        <time>2021-09-26T12:12:43.001Z</time>
      </trkpt>
      <trkpt lat="47.759588" lon="12.361531">
        <ele>1363.238081</ele>
        <time>2021-09-26T12:12:50.001Z</time>
      </trkpt>
      <trkpt lat="47.759529" lon="12.361424">
        <ele>1362.522793</ele>
        <time>2021-09-26T12:13:00.001Z</time>
      </trkpt>
      <trkpt lat="47.759456" lon="12.361341">
        <ele>1361.816350</ele>
        <time>2021-09-26T12:13:06.999Z</time>
      </trkpt>
      <trkpt lat="47.759365" lon="12.361290">
        <ele>1361.063951</ele>
        <time>2021-09-26T12:13:15.999Z</time>
      </trkpt>
      <trkpt lat="47.759279" lon="12.361232">
        <ele>1359.967781</ele>
        <time>2021-09-26T12:13:22.999Z</time>
      </trkpt>
      <trkpt lat="47.759206" lon="12.361147">
        <ele>1358.891596</ele>
        <time>2021-09-26T12:13:29.999Z</time>
      </trkpt>
      <trkpt lat="47.759112" lon="12.361092">
        <ele>1357.718990</ele>
        <time>2021-09-26T12:13:38.000Z</time>
      </trkpt>
      <trkpt lat="47.759024" lon="12.361022">
        <ele>1356.560528</ele>
        <time>2021-09-26T12:13:46.000Z</time>
      </trkpt>
      <trkpt lat="47.759053" lon="12.360884">
        <ele>1355.432182</ele>
        <time>2021-09-26T12:13:52.000Z</time>
      </trkpt>
      <trkpt lat="47.759036" lon="12.360750">
        <ele>1354.367986</ele>
        <time>2021-09-26T12:14:00.000Z</time>
      </trkpt>
      <trkpt lat="47.759010" lon="12.360605">
        <ele>1353.196842</ele>
        <time>2021-09-26T12:14:09.000Z</time>
      </trkpt>
      <trkpt lat="47.759059" lon="12.360481">
        <ele>1352.074342</ele>
        <time>2021-09-26T12:14:16.000Z</time>
      </trkpt>
      <trkpt lat="47.759025" lon="12.360334">
        <ele>1350.861152</ele>
        <time>2021-09-26T12:14:24.000Z</time>
      </trkpt>
      <trkpt lat="47.759007" lon="12.360187">
        <ele>1349.695087</ele>
        <time>2021-09-26T12:14:33.001Z</time>
      </trkpt>
      <trkpt lat="47.759021" lon="12.360042">
        <ele>1348.551893</ele>
        <time>2021-09-26T12:14:41.001Z</time>
      </trkpt>
      <trkpt lat="47.759030" lon="12.359908">
        <ele>1347.500949</ele>
        <time>2021-09-26T12:14:49.001Z</time>
      </trkpt>
      <trkpt lat="47.758986" lon="12.359781">
        <ele>1346.385960</ele>
        <time>2021-09-26T12:14:58.001Z</time>
      </trkpt>
      <trkpt lat="47.758894" lon="12.359737">
        <ele>1345.264109</ele>
        <time>2021-09-26T12:15:07.001Z</time>
      </trkpt>
      <trkpt lat="47.758810" lon="12.359646">
        <ele>1344.057778</ele>
        <time>2021-09-26T12:15:13.999Z</time>
      </trkpt>
      <trkpt lat="47.758761" lon="12.359530">
        <ele>1342.988629</ele>
        <time>2021-09-26T12:15:21.999Z</time>
      </trkpt>
      <trkpt lat="47.758711" lon="12.359405">
        <ele>1341.853497</ele>
        <time>2021-09-26T12:15:29.999Z</time>
      </trkpt>
      <trkpt lat="47.758676" lon="12.359277">
        <ele>1340.775106</ele>
        <time>2021-09-26T12:15:35.999Z</time>
      </trkpt>
      <trkpt lat="47.758630" lon="12.359152">
        <ele>1339.567734</ele>
        <time>2021-09-26T12:15:44.000Z</time>
      </trkpt>
      <trkpt lat="47.758607" lon="12.359022">
        <ele>1338.331805</ele>
        <time>2021-09-26T12:15:50.000Z</time>
      </trkpt>
      <trkpt lat="47.758582" lon="12.358869">
        <ele>1336.884154</ele>
        <time>2021-09-26T12:15:58.000Z</time>
      </trkpt>
      <trkpt lat="47.758536" lon="12.358743">
        <ele>1335.565895</ele>
        <time>2021-09-26T12:16:07.000Z</time>
      </trkpt>
      <trkpt lat="47.758485" lon="12.358631">
        <ele>1334.322164</ele>
        <time>2021-09-26T12:16:14.000Z</time>
      </trkpt>
      <trkpt lat="47.758445" lon="12.358507">
        <ele>1333.057636</ele>
        <time>2021-09-26T12:16:22.000Z</time>
      </trkpt>
      <trkpt lat="47.758449" lon="12.358370">
        <ele>1331.796856</ele>
        <time>2021-09-26T12:16:28.000Z</time>
      </trkpt>
      <trkpt lat="47.758424" lon="12.358224">
        <ele>1330.411656</ele>
        <time>2021-09-26T12:16:36.000Z</time>
      </trkpt>
      <trkpt lat="47.758392" lon="12.358095">
        <ele>1329.147446</ele>
        <time>2021-09-26T12:16:44.001Z</time>
      </trkpt>
      <trkpt lat="47.758361" lon="12.357968">
        <ele>1327.905204</ele>
        <time>2021-09-26T12:16:52.001Z</time>
      </trkpt>
      <trkpt lat="47.758315" lon="12.357842">
        <ele>1326.586941</ele>
        <time>2021-09-26T12:17:00.001Z</time>
      </trkpt>
      <trkpt lat="47.758230" lon="12.357777">
        <ele>1325.279824</ele>
        <time>2021-09-26T12:17:08.001Z</time>
      </trkpt>
      <trkpt lat="47.758163" lon="12.357679">
        <ele>1323.994719</ele>
        <time>2021-09-26T12:17:17.001Z</time>
      </trkpt>
      <trkpt lat="47.758123" lon="12.357558">
        <ele>1322.754995</ele>
        <time>2021-09-26T12:17:24.999Z</time>
      </trkpt>
      <trkpt lat="47.758117" lon="12.357423">
        <ele>1321.511073</ele>
        <time>2021-09-26T12:17:33.999Z</time>
      </trkpt>
      <trkpt lat="47.758083" lon="12.357284">
        <ele>1320.151117</ele>
        <time>2021-09-26T12:17:41.999Z</time>
      </trkpt>
      <trkpt lat="47.758067" lon="12.357151">
        <ele>1318.908867</ele>
        <time>2021-09-26T12:17:49.000Z</time>
      </trkpt>
      <trkpt lat="47.758056" lon="12.357009">
        <ele>1317.594655</ele>
        <time>2021-09-26T12:17:55.000Z</time>
      </trkpt>
      <trkpt lat="47.758028" lon="12.356875">
        <ele>1316.304493</ele>
        <time>2021-09-26T12:18:03.000Z</time>
      </trkpt>
      <trkpt lat="47.758039" lon="12.356733">
        <ele>1314.758938</ele>
        <time>2021-09-26T12:18:10.000Z</time>
      </trkpt>
      <trkpt lat="47.758059" lon="12.356591">
        <ele>1312.917892</ele>
        <time>2021-09-26T12:18:17.000Z</time>
      </trkpt>
      <trkpt lat="47.758062" lon="12.356442">
        <ele>1311.026295</ele>
        <time>2021-09-26T12:18:24.000Z</time>
      </trkpt>
      <trkpt lat="47.758057" lon="12.356296">
        <ele>1309.171212</ele>
        <time>2021-09-26T12:18:33.000Z</time>
      </trkpt>
      <trkpt lat="47.758070" lon="12.356158">
        <ele>1307.402938</ele>
        <time>2021-09-26T12:18:39.000Z</time>
      </trkpt>
      <trkpt lat="47.758100" lon="12.356022">
        <ele>1305.586623</ele>
        <time>2021-09-26T12:18:48.001Z</time>
      </trkpt>
      <trkpt lat="47.758135" lon="12.355897">
        <ele>1303.868341</ele>
        <time>2021-09-26T12:18:57.001Z</time>
      </trkpt>
      <trkpt lat="47.758191" lon="12.355791">
        <ele>1302.157598</ele>
        <time>2021-09-26T12:19:08.001Z</time>
      </trkpt>
      <trkpt lat="47.758236" lon="12.355675">
        <ele>1300.458110</ele>
        <time>2021-09-26T12:19:16.001Z</time>
      </trkpt>
      <trkpt lat="47.758282" lon="12.355544">
        <ele>1298.582669</ele>
        <time>2021-09-26T12:19:25.999Z</time>
      </trkpt>
      <trkpt lat="47.758375" lon="12.355518">
        <ele>1296.796471</ele>
        <time>2021-09-26T12:19:39.999Z</time>
      </trkpt>
      <trkpt lat="47.758440" lon="12.355634">
        <ele>1294.880197</ele>
        <time>2021-09-26T12:19:48.999Z</time>
      </trkpt>
      <trkpt lat="47.758479" lon="12.355771">
        <ele>1292.992292</ele>
        <time>2021-09-26T12:19:58.999Z</time>
      </trkpt>
      <trkpt lat="47.758540" lon="12.355885">
        <ele>1291.143386</ele>
        <time>2021-09-26T12:20:06.999Z</time>
      </trkpt>
      <trkpt lat="47.758602" lon="12.356003">
        <ele>1289.242939</ele>
        <time>2021-09-26T12:20:16.000Z</time>
      </trkpt>
      <trkpt lat="47.758654" lon="12.356119">
        <ele>1287.473714</ele>
        <time>2021-09-26T12:20:25.000Z</time>
      </trkpt>
      <trkpt lat="47.758713" lon="12.356239">
        <ele>1285.587182</ele>
        <time>2021-09-26T12:20:33.000Z</time>
      </trkpt>
      <trkpt lat="47.758766" lon="12.356354">
        <ele>1283.817899</ele>
        <time>2021-09-26T12:20:40.000Z</time>
      </trkpt>
      <trkpt lat="47.758865" lon="12.356402">
        <ele>1281.852422</ele>
        <time>2021-09-26T12:20:49.000Z</time>
      </trkpt>
      <trkpt lat="47.758875" lon="12.356265">
        <ele>1280.212017</ele>
        <time>2021-09-26T12:20:57.000Z</time>
      </trkpt>
      <trkpt lat="47.758882" lon="12.356112">
        <ele>1278.402498</ele>
        <time>2021-09-26T12:21:07.001Z</time>
      </trkpt>
      <trkpt lat="47.758906" lon="12.355981">
        <ele>1276.800374</ele>
        <time>2021-09-26T12:21:14.001Z</time>
      </trkpt>
      <trkpt lat="47.758904" lon="12.355840">
        <ele>1275.136258</ele>
        <time>2021-09-26T12:21:20.001Z</time>
      </trkpt>
      <trkpt lat="47.758899" lon="12.355693">
        <ele>1273.399495</ele>
        <time>2021-09-26T12:21:29.001Z</time>
      </trkpt>
      <trkpt lat="47.758889" lon="12.355559">
        <ele>1271.808633</ele>
        <time>2021-09-26T12:21:36.999Z</time>
      </trkpt>
      <trkpt lat="47.758894" lon="12.355418">
        <ele>1270.142573</ele>
        <time>2021-09-26T12:21:45.999Z</time>
      </trkpt>
      <trkpt lat="47.758906" lon="12.355274">
        <ele>1268.430423</ele>
        <time>2021-09-26T12:21:53.999Z</time>
      </trkpt>
      <trkpt lat="47.758908" lon="12.355137">
        <ele>1266.813494</ele>
        <time>2021-09-26T12:22:01.999Z</time>
      </trkpt>
      <trkpt lat="47.758916" lon="12.354999">
        <ele>1265.179104</ele>
        <time>2021-09-26T12:22:08.999Z</time>
      </trkpt>
      <trkpt lat="47.758913" lon="12.354862">
        <ele>1263.561699</ele>
        <time>2021-09-26T12:22:17.000Z</time>
      </trkpt>
      <trkpt lat="47.758902" lon="12.354719">
        <ele>1261.863344</ele>
        <time>2021-09-26T12:22:25.000Z</time>
      </trkpt>
      <trkpt lat="47.758905" lon="12.354577">
        <ele>1260.186971</ele>
        <time>2021-09-26T12:22:36.000Z</time>
      </trkpt>
      <trkpt lat="47.758916" lon="12.354436">
        <ele>1258.512059</ele>
        <time>2021-09-26T12:22:46.000Z</time>
      </trkpt>
      <trkpt lat="47.758934" lon="12.354302">
        <ele>1256.899654</ele>
        <time>2021-09-26T12:22:53.000Z</time>
      </trkpt>
      <trkpt lat="47.758979" lon="12.354172">
        <ele>1255.174292</ele>
        <time>2021-09-26T12:23:02.000Z</time>
      </trkpt>
      <trkpt lat="47.759032" lon="12.354042">
        <ele>1253.380300</ele>
        <time>2021-09-26T12:23:11.001Z</time>
      </trkpt>
      <trkpt lat="47.759092" lon="12.353939">
        <ele>1251.772133</ele>
        <time>2021-09-26T12:23:21.001Z</time>
      </trkpt>
      <trkpt lat="47.759165" lon="12.353825">
        <ele>1249.913374</ele>
        <time>2021-09-26T12:23:31.001Z</time>
      </trkpt>
      <trkpt lat="47.759254" lon="12.353738">
        <ele>1248.032474</ele>
        <time>2021-09-26T12:23:36.999Z</time>
      </trkpt>
      <trkpt lat="47.759337" lon="12.353661">
        <ele>1246.304851</ele>
        <time>2021-09-26T12:23:44.999Z</time>
      </trkpt>
      <trkpt lat="47.759427" lon="12.353617">
        <ele>1244.631665</ele>
        <time>2021-09-26T12:23:51.999Z</time>
      </trkpt>
      <trkpt lat="47.759510" lon="12.353544">
        <ele>1242.928698</ele>
        <time>2021-09-26T12:23:59.999Z</time>
      </trkpt>
      <trkpt lat="47.759598" lon="12.353516">
        <ele>1241.339324</ele>
        <time>2021-09-26T12:24:09.000Z</time>
      </trkpt>
      <trkpt lat="47.759683" lon="12.353456">
        <ele>1239.677646</ele>
        <time>2021-09-26T12:24:17.000Z</time>
      </trkpt>
      <trkpt lat="47.759767" lon="12.353382">
        <ele>1237.953435</ele>
        <time>2021-09-26T12:24:25.000Z</time>
      </trkpt>
      <trkpt lat="47.759851" lon="12.353331">
        <ele>1236.351052</ele>
        <time>2021-09-26T12:24:32.000Z</time>
      </trkpt>
      <trkpt lat="47.759941" lon="12.353264">
        <ele>1234.573575</ele>
        <time>2021-09-26T12:24:40.000Z</time>
      </trkpt>
      <trkpt lat="47.760035" lon="12.353243">
        <ele>1232.894770</ele>
        <time>2021-09-26T12:24:47.000Z</time>
      </trkpt>
      <trkpt lat="47.760128" lon="12.353217">
        <ele>1231.223488</ele>
        <time>2021-09-26T12:24:56.000Z</time>
      </trkpt>
      <trkpt lat="47.760218" lon="12.353187">
        <ele>1229.594530</ele>
        <time>2021-09-26T12:25:04.001Z</time>
      </trkpt>
      <trkpt lat="47.760357" lon="12.353098">
        <ele>1226.921821</ele>
        <time>2021-09-26T12:28:54.000Z</time>
      </trkpt>
      <trkpt lat="47.760449" lon="12.353113">
        <ele>1225.287227</ele>
        <time>2021-09-26T12:29:05.000Z</time>
      </trkpt>
      <trkpt lat="47.760541" lon="12.353152">
        <ele>1223.597676</ele>
        <time>2021-09-26T12:29:16.001Z</time>
      </trkpt>
      <trkpt lat="47.760632" lon="12.353157">
        <ele>1221.989377</ele>
        <time>2021-09-26T12:29:25.001Z</time>
      </trkpt>
      <trkpt lat="47.760723" lon="12.353172">
        <ele>1220.372338</ele>
        <time>2021-09-26T12:29:35.001Z</time>
      </trkpt>
      <trkpt lat="47.760808" lon="12.353225">
        <ele>1218.744562</ele>
        <time>2021-09-26T12:29:42.001Z</time>
      </trkpt>
      <trkpt lat="47.760805" lon="12.353364">
        <ele>1216.782838</ele>
        <time>2021-09-26T12:29:49.001Z</time>
      </trkpt>
      <trkpt lat="47.760837" lon="12.353493">
        <ele>1214.733682</ele>
        <time>2021-09-26T12:29:57.999Z</time>
      </trkpt>
      <trkpt lat="47.760929" lon="12.353458">
        <ele>1212.628488</ele>
        <time>2021-09-26T12:30:07.999Z</time>
      </trkpt>
      <trkpt lat="47.760970" lon="12.353337">
        <ele>1210.609145</ele>
        <time>2021-09-26T12:30:14.999Z</time>
      </trkpt>
      <trkpt lat="47.761001" lon="12.353207">
        <ele>1208.553524</ele>
        <time>2021-09-26T12:30:22.999Z</time>
      </trkpt>
      <trkpt lat="47.761104" lon="12.353153">
        <ele>1206.132453</ele>
        <time>2021-09-26T12:30:34.000Z</time>
      </trkpt>
      <trkpt lat="47.761166" lon="12.353254">
        <ele>1204.094144</ele>
        <time>2021-09-26T12:30:44.000Z</time>
      </trkpt>
      <trkpt lat="47.761184" lon="12.353404">
        <ele>1201.823425</ele>
        <time>2021-09-26T12:30:55.000Z</time>
      </trkpt>
      <trkpt lat="47.761203" lon="12.353556">
        <ele>1199.519409</ele>
        <time>2021-09-26T12:31:05.000Z</time>
      </trkpt>
      <trkpt lat="47.761229" lon="12.353692">
        <ele>1197.412296</ele>
        <time>2021-09-26T12:31:13.000Z</time>
      </trkpt>
      <trkpt lat="47.761214" lon="12.353839">
        <ele>1195.196529</ele>
        <time>2021-09-26T12:31:21.001Z</time>
      </trkpt>
      <trkpt lat="47.761207" lon="12.353975">
        <ele>1193.163852</ele>
        <time>2021-09-26T12:31:29.001Z</time>
      </trkpt>
      <trkpt lat="47.761230" lon="12.354122">
        <ele>1190.914623</ele>
        <time>2021-09-26T12:31:38.001Z</time>
      </trkpt>
      <trkpt lat="47.761284" lon="12.354246">
        <ele>1188.712828</ele>
        <time>2021-09-26T12:31:47.001Z</time>
      </trkpt>
      <trkpt lat="47.761387" lon="12.354289">
        <ele>1186.341201</ele>
        <time>2021-09-26T12:31:57.001Z</time>
      </trkpt>
      <trkpt lat="47.761486" lon="12.354255">
        <ele>1184.088735</ele>
        <time>2021-09-26T12:32:06.999Z</time>
      </trkpt>
      <trkpt lat="47.761577" lon="12.354230">
        <ele>1182.037237</ele>
        <time>2021-09-26T12:32:14.999Z</time>
      </trkpt>
      <trkpt lat="47.761673" lon="12.354182">
        <ele>1179.792010</ele>
        <time>2021-09-26T12:32:20.999Z</time>
      </trkpt>
      <trkpt lat="47.761752" lon="12.354117">
        <ele>1177.964234</ele>
        <time>2021-09-26T12:32:31.999Z</time>
      </trkpt>
      <trkpt lat="47.761837" lon="12.354071">
        <ele>1176.498345</ele>
        <time>2021-09-26T12:32:45.000Z</time>
      </trkpt>
      <trkpt lat="47.761893" lon="12.354178">
        <ele>1175.021006</ele>
        <time>2021-09-26T12:32:55.000Z</time>
      </trkpt>
      <trkpt lat="47.761976" lon="12.354238">
        <ele>1173.525444</ele>
        <time>2021-09-26T12:33:02.000Z</time>
      </trkpt>
      <trkpt lat="47.762057" lon="12.354310">
        <ele>1171.996212</ele>
        <time>2021-09-26T12:33:09.000Z</time>
      </trkpt>
      <trkpt lat="47.762142" lon="12.354401">
        <ele>1170.299002</ele>
        <time>2021-09-26T12:33:19.000Z</time>
      </trkpt>
      <trkpt lat="47.762228" lon="12.354362">
        <ele>1168.841908</ele>
        <time>2021-09-26T12:33:28.001Z</time>
      </trkpt>
      <trkpt lat="47.762308" lon="12.354297">
        <ele>1167.364600</ele>
        <time>2021-09-26T12:33:38.001Z</time>
      </trkpt>
      <trkpt lat="47.762394" lon="12.354234">
        <ele>1165.811004</ele>
        <time>2021-09-26T12:33:45.001Z</time>
      </trkpt>
      <trkpt lat="47.762472" lon="12.354163">
        <ele>1164.329018</ele>
        <time>2021-09-26T12:34:02.001Z</time>
      </trkpt>
      <trkpt lat="47.762549" lon="12.354067">
        <ele>1162.700806</ele>
        <time>2021-09-26T12:34:11.999Z</time>
      </trkpt>
      <trkpt lat="47.762598" lon="12.353939">
        <ele>1161.096080</ele>
        <time>2021-09-26T12:34:19.999Z</time>
      </trkpt>
      <trkpt lat="47.762667" lon="12.353836">
        <ele>1159.511905</ele>
        <time>2021-09-26T12:34:28.999Z</time>
      </trkpt>
      <trkpt lat="47.762690" lon="12.353701">
        <ele>1157.994691</ele>
        <time>2021-09-26T12:34:34.999Z</time>
      </trkpt>
      <trkpt lat="47.762747" lon="12.353584">
        <ele>1156.420519</ele>
        <time>2021-09-26T12:34:42.000Z</time>
      </trkpt>
      <trkpt lat="47.762831" lon="12.353507">
        <ele>1154.821468</ele>
        <time>2021-09-26T12:34:47.000Z</time>
      </trkpt>
      <trkpt lat="47.762887" lon="12.353370">
        <ele>1153.074690</ele>
        <time>2021-09-26T12:34:56.000Z</time>
      </trkpt>
      <trkpt lat="47.762952" lon="12.353237">
        <ele>1151.283299</ele>
        <time>2021-09-26T12:35:05.000Z</time>
      </trkpt>
      <trkpt lat="47.763010" lon="12.353104">
        <ele>1149.556183</ele>
        <time>2021-09-26T12:35:15.000Z</time>
      </trkpt>
      <trkpt lat="47.763089" lon="12.353016">
        <ele>1148.354630</ele>
        <time>2021-09-26T12:35:23.000Z</time>
      </trkpt>
      <trkpt lat="47.763164" lon="12.352936">
        <ele>1147.306645</ele>
        <time>2021-09-26T12:35:28.000Z</time>
      </trkpt>
      <trkpt lat="47.763239" lon="12.352834">
        <ele>1146.152707</ele>
        <time>2021-09-26T12:35:37.001Z</time>
      </trkpt>
      <trkpt lat="47.763317" lon="12.352761">
        <ele>1145.106259</ele>
        <time>2021-09-26T12:35:42.001Z</time>
      </trkpt>
      <trkpt lat="47.763394" lon="12.352677">
        <ele>1144.021965</ele>
        <time>2021-09-26T12:35:50.001Z</time>
      </trkpt>
      <trkpt lat="47.763471" lon="12.352602">
        <ele>1142.976827</ele>
        <time>2021-09-26T12:35:56.001Z</time>
      </trkpt>
      <trkpt lat="47.763588" lon="12.352546">
        <ele>1141.581133</ele>
        <time>2021-09-26T12:36:06.001Z</time>
      </trkpt>
      <trkpt lat="47.763676" lon="12.352476">
        <ele>1140.447944</ele>
        <time>2021-09-26T12:36:14.999Z</time>
      </trkpt>
      <trkpt lat="47.763769" lon="12.352415">
        <ele>1139.293768</ele>
        <time>2021-09-26T12:36:21.999Z</time>
      </trkpt>
      <trkpt lat="47.763871" lon="12.352386">
        <ele>1138.114519</ele>
        <time>2021-09-26T12:36:31.999Z</time>
      </trkpt>
      <trkpt lat="47.763977" lon="12.352377">
        <ele>1136.908850</ele>
        <time>2021-09-26T12:36:37.999Z</time>
      </trkpt>
      <trkpt lat="47.764068" lon="12.352352">
        <ele>1135.858005</ele>
        <time>2021-09-26T12:36:46.000Z</time>
      </trkpt>
      <trkpt lat="47.764154" lon="12.352310">
        <ele>1134.830135</ele>
        <time>2021-09-26T12:36:53.000Z</time>
      </trkpt>
      <trkpt lat="47.764239" lon="12.352256">
        <ele>1133.780570</ele>
        <time>2021-09-26T12:37:01.000Z</time>
      </trkpt>
      <trkpt lat="47.764328" lon="12.352224">
        <ele>1132.740810</ele>
        <time>2021-09-26T12:37:08.000Z</time>
      </trkpt>
      <trkpt lat="47.764396" lon="12.352115">
        <ele>1131.605680</ele>
        <time>2021-09-26T12:37:15.000Z</time>
      </trkpt>
      <trkpt lat="47.764475" lon="12.352046">
        <ele>1130.565395</ele>
        <time>2021-09-26T12:37:23.000Z</time>
      </trkpt>
      <trkpt lat="47.764566" lon="12.352000">
        <ele>1129.473998</ele>
        <time>2021-09-26T12:37:30.000Z</time>
      </trkpt>
      <trkpt lat="47.764661" lon="12.351941">
        <ele>1128.241494</ele>
        <time>2021-09-26T12:37:37.001Z</time>
      </trkpt>
      <trkpt lat="47.764733" lon="12.351833">
        <ele>1126.947914</ele>
        <time>2021-09-26T12:37:44.001Z</time>
      </trkpt>
      <trkpt lat="47.764818" lon="12.351774">
        <ele>1125.761222</ele>
        <time>2021-09-26T12:37:53.001Z</time>
      </trkpt>
      <trkpt lat="47.764914" lon="12.351754">
        <ele>1124.534802</ele>
        <time>2021-09-26T12:37:59.001Z</time>
      </trkpt>
      <trkpt lat="47.765013" lon="12.351783">
        <ele>1123.258229</ele>
        <time>2021-09-26T12:38:07.001Z</time>
      </trkpt>
      <trkpt lat="47.765114" lon="12.351833">
        <ele>1121.911512</ele>
        <time>2021-09-26T12:38:14.001Z</time>
      </trkpt>
      <trkpt lat="47.765205" lon="12.351781">
        <ele>1120.678195</ele>
        <time>2021-09-26T12:38:19.999Z</time>
      </trkpt>
      <trkpt lat="47.765299" lon="12.351816">
        <ele>1119.452248</ele>
        <time>2021-09-26T12:38:27.999Z</time>
      </trkpt>
      <trkpt lat="47.765399" lon="12.351798">
        <ele>1118.177845</ele>
        <time>2021-09-26T12:38:34.999Z</time>
      </trkpt>
      <trkpt lat="47.765497" lon="12.351817">
        <ele>1116.927489</ele>
        <time>2021-09-26T12:38:41.999Z</time>
      </trkpt>
      <trkpt lat="47.765591" lon="12.351846">
        <ele>1115.712921</ele>
        <time>2021-09-26T12:38:51.000Z</time>
      </trkpt>
      <trkpt lat="47.765684" lon="12.351798">
        <ele>1114.467512</ele>
        <time>2021-09-26T12:38:59.000Z</time>
      </trkpt>
      <trkpt lat="47.765781" lon="12.351762">
        <ele>1113.202681</ele>
        <time>2021-09-26T12:39:07.000Z</time>
      </trkpt>
      <trkpt lat="47.765864" lon="12.351690">
        <ele>1111.987115</ele>
        <time>2021-09-26T12:39:14.000Z</time>
      </trkpt>
      <trkpt lat="47.765965" lon="12.351686">
        <ele>1110.708834</ele>
        <time>2021-09-26T12:39:23.000Z</time>
      </trkpt>
      <trkpt lat="47.766071" lon="12.351673">
        <ele>1109.363198</ele>
        <time>2021-09-26T12:39:31.000Z</time>
      </trkpt>
      <trkpt lat="47.766152" lon="12.351614">
        <ele>1108.222173</ele>
        <time>2021-09-26T12:39:39.000Z</time>
      </trkpt>
      <trkpt lat="47.766233" lon="12.351529">
        <ele>1106.968101</ele>
        <time>2021-09-26T12:39:48.001Z</time>
      </trkpt>
      <trkpt lat="47.766326" lon="12.351489">
        <ele>1105.784879</ele>
        <time>2021-09-26T12:39:56.001Z</time>
      </trkpt>
      <trkpt lat="47.766410" lon="12.351405">
        <ele>1104.651482</ele>
        <time>2021-09-26T12:40:05.001Z</time>
      </trkpt>
      <trkpt lat="47.766473" lon="12.351285">
        <ele>1103.505380</ele>
        <time>2021-09-26T12:40:13.001Z</time>
      </trkpt>
      <trkpt lat="47.766540" lon="12.351172">
        <ele>1102.371206</ele>
        <time>2021-09-26T12:40:21.001Z</time>
      </trkpt>
      <trkpt lat="47.766570" lon="12.351021">
        <ele>1101.186027</ele>
        <time>2021-09-26T12:40:27.999Z</time>
      </trkpt>
      <trkpt lat="47.766619" lon="12.350887">
        <ele>1100.037820</ele>
        <time>2021-09-26T12:40:36.999Z</time>
      </trkpt>
      <trkpt lat="47.766628" lon="12.350751">
        <ele>1099.009208</ele>
        <time>2021-09-26T12:40:44.999Z</time>
      </trkpt>
      <trkpt lat="47.766590" lon="12.350618">
        <ele>1097.921438</ele>
        <time>2021-09-26T12:40:55.000Z</time>
      </trkpt>
      <trkpt lat="47.766557" lon="12.350484">
        <ele>1096.847262</ele>
        <time>2021-09-26T12:41:05.000Z</time>
      </trkpt>
      <trkpt lat="47.766551" lon="12.350336">
        <ele>1095.731250</ele>
        <time>2021-09-26T12:41:12.000Z</time>
      </trkpt>
      <trkpt lat="47.766571" lon="12.350201">
        <ele>1094.690724</ele>
        <time>2021-09-26T12:41:20.000Z</time>
      </trkpt>
      <trkpt lat="47.766589" lon="12.350061">
        <ele>1093.617848</ele>
        <time>2021-09-26T12:41:30.000Z</time>
      </trkpt>
      <trkpt lat="47.766612" lon="12.349920">
        <ele>1092.525744</ele>
        <time>2021-09-26T12:41:35.000Z</time>
      </trkpt>
      <trkpt lat="47.766649" lon="12.349785">
        <ele>1091.428382</ele>
        <time>2021-09-26T12:41:57.001Z</time>
      </trkpt>
      <trkpt lat="47.766663" lon="12.349646">
        <ele>1090.370458</ele>
        <time>2021-09-26T12:42:12.001Z</time>
      </trkpt>
      <trkpt lat="47.766623" lon="12.349503">
        <ele>1089.204623</ele>
        <time>2021-09-26T12:42:25.001Z</time>
      </trkpt>
      <trkpt lat="47.766659" lon="12.349376">
        <ele>1088.167173</ele>
        <time>2021-09-26T12:42:31.999Z</time>
      </trkpt>
      <trkpt lat="47.766693" lon="12.349241">
        <ele>1087.082049</ele>
        <time>2021-09-26T12:42:39.999Z</time>
      </trkpt>
      <trkpt lat="47.766635" lon="12.349135">
        <ele>1086.053254</ele>
        <time>2021-09-26T12:42:46.999Z</time>
      </trkpt>
      <trkpt lat="47.766573" lon="12.349001">
        <ele>1084.716343</ele>
        <time>2021-09-26T12:42:51.999Z</time>
      </trkpt>
      <trkpt lat="47.766543" lon="12.348854">
        <ele>1083.445427</ele>
        <time>2021-09-26T12:42:56.999Z</time>
      </trkpt>
      <trkpt lat="47.766508" lon="12.348726">
        <ele>1082.302243</ele>
        <time>2021-09-26T12:43:05.000Z</time>
      </trkpt>
      <trkpt lat="47.766453" lon="12.348608">
        <ele>1081.114311</ele>
        <time>2021-09-26T12:43:13.000Z</time>
      </trkpt>
      <trkpt lat="47.766473" lon="12.348475">
        <ele>1079.986831</ele>
        <time>2021-09-26T12:43:23.000Z</time>
      </trkpt>
      <trkpt lat="47.766440" lon="12.348337">
        <ele>1078.775090</ele>
        <time>2021-09-26T12:43:29.000Z</time>
      </trkpt>
      <trkpt lat="47.766408" lon="12.348192">
        <ele>1077.512532</ele>
        <time>2021-09-26T12:43:40.000Z</time>
      </trkpt>
      <trkpt lat="47.766366" lon="12.348067">
        <ele>1076.356427</ele>
        <time>2021-09-26T12:43:54.000Z</time>
      </trkpt>
      <trkpt lat="47.766386" lon="12.347933">
        <ele>1075.220871</ele>
        <time>2021-09-26T12:44:05.001Z</time>
      </trkpt>
      <trkpt lat="47.766336" lon="12.347817">
        <ele>1074.080859</ele>
        <time>2021-09-26T12:44:15.001Z</time>
      </trkpt>
      <trkpt lat="47.766356" lon="12.347686">
        <ele>1072.969517</ele>
        <time>2021-09-26T12:44:26.001Z</time>
      </trkpt>
      <trkpt lat="47.766390" lon="12.347558">
        <ele>1071.830912</ele>
        <time>2021-09-26T12:44:36.001Z</time>
      </trkpt>
      <trkpt lat="47.766430" lon="12.347424">
        <ele>1070.617954</ele>
        <time>2021-09-26T12:44:47.999Z</time>
      </trkpt>
      <trkpt lat="47.766400" lon="12.347295">
        <ele>1069.488693</ele>
        <time>2021-09-26T12:44:54.999Z</time>
      </trkpt>
      <trkpt lat="47.766445" lon="12.347175">
        <ele>1068.351909</ele>
        <time>2021-09-26T12:45:06.999Z</time>
      </trkpt>
      <trkpt lat="47.766464" lon="12.347035">
        <ele>1067.170347</ele>
        <time>2021-09-26T12:45:15.000Z</time>
      </trkpt>
      <trkpt lat="47.766487" lon="12.346891">
        <ele>1065.945894</ele>
        <time>2021-09-26T12:45:22.000Z</time>
      </trkpt>
      <trkpt lat="47.766526" lon="12.346739">
        <ele>1064.599930</ele>
        <time>2021-09-26T12:45:29.000Z</time>
      </trkpt>
      <trkpt lat="47.766530" lon="12.346594">
        <ele>1063.366439</ele>
        <time>2021-09-26T12:45:39.000Z</time>
      </trkpt>
      <trkpt lat="47.766519" lon="12.346450">
        <ele>1062.074963</ele>
        <time>2021-09-26T12:45:44.000Z</time>
      </trkpt>
      <trkpt lat="47.766571" lon="12.346331">
        <ele>1060.810132</ele>
        <time>2021-09-26T12:45:51.000Z</time>
      </trkpt>
      <trkpt lat="47.766586" lon="12.346175">
        <ele>1059.405831</ele>
        <time>2021-09-26T12:46:01.000Z</time>
      </trkpt>
      <trkpt lat="47.766603" lon="12.346032">
        <ele>1058.111750</ele>
        <time>2021-09-26T12:46:08.001Z</time>
      </trkpt>
      <trkpt lat="47.766569" lon="12.345900">
        <ele>1056.852059</ele>
        <time>2021-09-26T12:46:17.001Z</time>
      </trkpt>
      <trkpt lat="47.766544" lon="12.345759">
        <ele>1055.552598</ele>
        <time>2021-09-26T12:46:29.001Z</time>
      </trkpt>
      <trkpt lat="47.766596" lon="12.345643">
        <ele>1054.310096</ele>
        <time>2021-09-26T12:46:38.001Z</time>
      </trkpt>
      <trkpt lat="47.766656" lon="12.345520">
        <ele>1052.955788</ele>
        <time>2021-09-26T12:46:43.999Z</time>
      </trkpt>
      <trkpt lat="47.766720" lon="12.345413">
        <ele>1051.679426</ele>
        <time>2021-09-26T12:47:00.999Z</time>
      </trkpt>
      <trkpt lat="47.766773" lon="12.345540">
        <ele>1050.347314</ele>
        <time>2021-09-26T12:48:09.001Z</time>
      </trkpt>
      <trkpt lat="47.766678" lon="12.345582">
        <ele>1049.033398</ele>
        <time>2021-09-26T12:48:15.001Z</time>
      </trkpt>
      <trkpt lat="47.766632" lon="12.345455">
        <ele>1047.747817</ele>
        <time>2021-09-26T12:48:22.001Z</time>
      </trkpt>
      <trkpt lat="47.766551" lon="12.345334">
        <ele>1046.226027</ele>
        <time>2021-09-26T12:48:32.001Z</time>
      </trkpt>
      <trkpt lat="47.766486" lon="12.345222">
        <ele>1044.907416</ele>
        <time>2021-09-26T12:48:41.001Z</time>
      </trkpt>
      <trkpt lat="47.766396" lon="12.345195">
        <ele>1043.690204</ele>
        <time>2021-09-26T12:48:56.999Z</time>
      </trkpt>
      <trkpt lat="47.766321" lon="12.345282">
        <ele>1042.429352</ele>
        <time>2021-09-26T12:49:04.999Z</time>
      </trkpt>
      <trkpt lat="47.766354" lon="12.345420">
        <ele>1041.124093</ele>
        <time>2021-09-26T12:49:15.999Z</time>
      </trkpt>
      <trkpt lat="47.766335" lon="12.345561">
        <ele>1039.787108</ele>
        <time>2021-09-26T12:49:25.000Z</time>
      </trkpt>
      <trkpt lat="47.766310" lon="12.345696">
        <ele>1038.035733</ele>
        <time>2021-09-26T12:49:33.000Z</time>
      </trkpt>
      <trkpt lat="47.766275" lon="12.345831">
        <ele>1036.226019</ele>
        <time>2021-09-26T12:49:44.000Z</time>
      </trkpt>
      <trkpt lat="47.766211" lon="12.345958">
        <ele>1034.240762</ele>
        <time>2021-09-26T12:49:51.000Z</time>
      </trkpt>
      <trkpt lat="47.766157" lon="12.346069">
        <ele>1032.526993</ele>
        <time>2021-09-26T12:50:01.000Z</time>
      </trkpt>
      <trkpt lat="47.766121" lon="12.346199">
        <ele>1030.768472</ele>
        <time>2021-09-26T12:50:40.001Z</time>
      </trkpt>
      <trkpt lat="47.766040" lon="12.346285">
        <ele>1028.916815</ele>
        <time>2021-09-26T12:50:44.001Z</time>
      </trkpt>
      <trkpt lat="47.766003" lon="12.346420">
        <ele>1027.093370</ele>
        <time>2021-09-26T12:50:51.001Z</time>
      </trkpt>
      <trkpt lat="47.765921" lon="12.346514">
        <ele>1025.167145</ele>
        <time>2021-09-26T12:50:56.999Z</time>
      </trkpt>
      <trkpt lat="47.765819" lon="12.346584">
        <ele>1023.076980</ele>
        <time>2021-09-26T12:51:07.999Z</time>
      </trkpt>
      <trkpt lat="47.765719" lon="12.346571">
        <ele>1021.209138</ele>
        <time>2021-09-26T12:51:13.999Z</time>
      </trkpt>
      <trkpt lat="47.765657" lon="12.346467">
        <ele>1019.470483</ele>
        <time>2021-09-26T12:51:27.000Z</time>
      </trkpt>
      <trkpt lat="47.765605" lon="12.346347">
        <ele>1017.684743</ele>
        <time>2021-09-26T12:51:38.000Z</time>
      </trkpt>
      <trkpt lat="47.765537" lon="12.346232">
        <ele>1015.769059</ele>
        <time>2021-09-26T12:51:51.000Z</time>
      </trkpt>
      <trkpt lat="47.765457" lon="12.346305">
        <ele>1014.022757</ele>
        <time>2021-09-26T12:52:01.000Z</time>
      </trkpt>
      <trkpt lat="47.765410" lon="12.346428">
        <ele>1012.253142</ele>
        <time>2021-09-26T12:52:10.000Z</time>
      </trkpt>
      <trkpt lat="47.765393" lon="12.346574">
        <ele>1010.399870</ele>
        <time>2021-09-26T12:52:25.001Z</time>
      </trkpt>
      <trkpt lat="47.765324" lon="12.346681">
        <ele>1008.545290</ele>
        <time>2021-09-26T12:52:35.001Z</time>
      </trkpt>
      <trkpt lat="47.765220" lon="12.346756">
        <ele>1006.430382</ele>
        <time>2021-09-26T12:52:40.001Z</time>
      </trkpt>
      <trkpt lat="47.765132" lon="12.346792">
        <ele>1005.249005</ele>
        <time>2021-09-26T12:52:50.001Z</time>
      </trkpt>
      <trkpt lat="47.765036" lon="12.346841">
        <ele>1003.935254</ele>
        <time>2021-09-26T12:52:56.001Z</time>
      </trkpt>
      <trkpt lat="47.764937" lon="12.346941">
        <ele>1002.386307</ele>
        <time>2021-09-26T12:53:11.999Z</time>
      </trkpt>
      <trkpt lat="47.764854" lon="12.347056">
        <ele>1000.918156</ele>
        <time>2021-09-26T12:53:19.999Z</time>
      </trkpt>
      <trkpt lat="47.764769" lon="12.347112">
        <ele>999.714833</ele>
        <time>2021-09-26T12:53:30.999Z</time>
      </trkpt>
      <trkpt lat="47.764671" lon="12.347202">
        <ele>998.224063</ele>
        <time>2021-09-26T12:53:37.000Z</time>
      </trkpt>
      <trkpt lat="47.764578" lon="12.347211">
        <ele>997.017701</ele>
        <time>2021-09-26T12:53:48.000Z</time>
      </trkpt>
      <trkpt lat="47.764474" lon="12.347212">
        <ele>995.671469</ele>
        <time>2021-09-26T12:53:54.000Z</time>
      </trkpt>
      <trkpt lat="47.764415" lon="12.347108">
        <ele>994.487372</ele>
        <time>2021-09-26T12:54:01.000Z</time>
      </trkpt>
      <trkpt lat="47.764375" lon="12.346982">
        <ele>993.274942</ele>
        <time>2021-09-26T12:54:14.000Z</time>
      </trkpt>
      <trkpt lat="47.764321" lon="12.346853">
        <ele>991.952669</ele>
        <time>2021-09-26T12:54:24.000Z</time>
      </trkpt>
      <trkpt lat="47.764294" lon="12.346724">
        <ele>990.777099</ele>
        <time>2021-09-26T12:54:32.001Z</time>
      </trkpt>
      <trkpt lat="47.764267" lon="12.346577">
        <ele>989.451175</ele>
        <time>2021-09-26T12:54:55.001Z</time>
      </trkpt>
      <trkpt lat="47.764222" lon="12.346449">
        <ele>988.194329</ele>
        <time>2021-09-26T12:55:05.001Z</time>
      </trkpt>
      <trkpt lat="47.764175" lon="12.346322">
        <ele>986.932905</ele>
        <time>2021-09-26T12:55:14.999Z</time>
      </trkpt>
      <trkpt lat="47.764141" lon="12.346178">
        <ele>985.604923</ele>
        <time>2021-09-26T12:55:24.999Z</time>
      </trkpt>
      <trkpt lat="47.764162" lon="12.346042">
        <ele>984.390776</ele>
        <time>2021-09-26T12:55:34.999Z</time>
      </trkpt>
      <trkpt lat="47.764161" lon="12.345894">
        <ele>983.112528</ele>
        <time>2021-09-26T12:55:48.000Z</time>
      </trkpt>
      <trkpt lat="47.764149" lon="12.345747">
        <ele>981.921217</ele>
        <time>2021-09-26T12:55:57.000Z</time>
      </trkpt>
      <trkpt lat="47.764138" lon="12.345606">
        <ele>980.779251</ele>
        <time>2021-09-26T12:56:06.000Z</time>
      </trkpt>
      <trkpt lat="47.764161" lon="12.345475">
        <ele>979.689992</ele>
        <time>2021-09-26T12:56:15.000Z</time>
      </trkpt>
      <trkpt lat="47.764119" lon="12.345350">
        <ele>978.565724</ele>
        <time>2021-09-26T12:56:26.000Z</time>
      </trkpt>
      <trkpt lat="47.764211" lon="12.345242">
        <ele>977.163099</ele>
        <time>2021-09-26T12:56:33.001Z</time>
      </trkpt>
      <trkpt lat="47.764213" lon="12.345099">
        <ele>976.012410</ele>
        <time>2021-09-26T12:56:44.001Z</time>
      </trkpt>
      <trkpt lat="47.764269" lon="12.344984">
        <ele>974.869968</ele>
        <time>2021-09-26T12:56:55.001Z</time>
      </trkpt>
      <trkpt lat="47.764303" lon="12.344853">
        <ele>973.740236</ele>
        <time>2021-09-26T12:57:05.001Z</time>
      </trkpt>
      <trkpt lat="47.764321" lon="12.344721">
        <ele>972.656661</ele>
        <time>2021-09-26T12:57:12.999Z</time>
      </trkpt>
      <trkpt lat="47.764293" lon="12.344584">
        <ele>971.504672</ele>
        <time>2021-09-26T12:57:25.999Z</time>
      </trkpt>
      <trkpt lat="47.764298" lon="12.344429">
        <ele>970.256258</ele>
        <time>2021-09-26T12:57:39.999Z</time>
      </trkpt>
      <trkpt lat="47.764324" lon="12.344299">
        <ele>969.165092</ele>
        <time>2021-09-26T12:57:52.000Z</time>
      </trkpt>
      <trkpt lat="47.764283" lon="12.344161">
        <ele>967.951268</ele>
        <time>2021-09-26T12:58:05.000Z</time>
      </trkpt>
      <trkpt lat="47.764212" lon="12.344075">
        <ele>966.855463</ele>
        <time>2021-09-26T12:58:26.000Z</time>
      </trkpt>
      <trkpt lat="47.764230" lon="12.343930">
        <ele>965.669206</ele>
        <time>2021-09-26T12:58:42.001Z</time>
      </trkpt>
      <trkpt lat="47.764257" lon="12.343787">
        <ele>964.474243</ele>
        <time>2021-09-26T12:58:52.001Z</time>
      </trkpt>
      <trkpt lat="47.764249" lon="12.343652">
        <ele>963.383951</ele>
        <time>2021-09-26T12:59:03.001Z</time>
      </trkpt>
      <trkpt lat="47.764212" lon="12.343514">
        <ele>962.188677</ele>
        <time>2021-09-26T12:59:23.999Z</time>
      </trkpt>
      <trkpt lat="47.764235" lon="12.343372">
        <ele>960.740538</ele>
        <time>2021-09-26T12:59:32.999Z</time>
      </trkpt>
      <trkpt lat="47.764232" lon="12.343226">
        <ele>959.099752</ele>
        <time>2021-09-26T12:59:39.999Z</time>
      </trkpt>
      <trkpt lat="47.764220" lon="12.343091">
        <ele>957.570093</ele>
        <time>2021-09-26T12:59:52.000Z</time>
      </trkpt>
      <trkpt lat="47.764179" lon="12.342966">
        <ele>956.007716</ele>
        <time>2021-09-26T13:00:01.000Z</time>
      </trkpt>
      <trkpt lat="47.764180" lon="12.342816">
        <ele>954.322679</ele>
        <time>2021-09-26T13:00:11.000Z</time>
      </trkpt>
      <trkpt lat="47.764129" lon="12.342694">
        <ele>952.708849</ele>
        <time>2021-09-26T13:00:19.000Z</time>
      </trkpt>
      <trkpt lat="47.764092" lon="12.342568">
        <ele>951.164321</ele>
        <time>2021-09-26T13:00:29.000Z</time>
      </trkpt>
      <trkpt lat="47.764078" lon="12.342418">
        <ele>949.463199</ele>
        <time>2021-09-26T13:00:38.000Z</time>
      </trkpt>
      <trkpt lat="47.764015" lon="12.342317">
        <ele>947.915431</ele>
        <time>2021-09-26T13:00:46.001Z</time>
      </trkpt>
      <trkpt lat="47.763964" lon="12.342199">
        <ele>946.339574</ele>
        <time>2021-09-26T13:00:54.001Z</time>
      </trkpt>
      <trkpt lat="47.763884" lon="12.342126">
        <ele>944.771223</ele>
        <time>2021-09-26T13:01:04.001Z</time>
      </trkpt>
      <trkpt lat="47.763809" lon="12.342019">
        <ele>943.034694</ele>
        <time>2021-09-26T13:01:16.001Z</time>
      </trkpt>
      <trkpt lat="47.763720" lon="12.341930">
        <ele>941.242611</ele>
        <time>2021-09-26T13:01:25.999Z</time>
      </trkpt>
      <trkpt lat="47.763679" lon="12.341798">
        <ele>939.609191</ele>
        <time>2021-09-26T13:01:37.999Z</time>
      </trkpt>
      <trkpt lat="47.763632" lon="12.341675">
        <ele>938.019874</ele>
        <time>2021-09-26T13:01:46.999Z</time>
      </trkpt>
      <trkpt lat="47.763618" lon="12.341536">
        <ele>936.441037</ele>
        <time>2021-09-26T13:01:52.999Z</time>
      </trkpt>
      <trkpt lat="47.763645" lon="12.341390">
        <ele>934.740062</ele>
        <time>2021-09-26T13:02:01.000Z</time>
      </trkpt>
      <trkpt lat="47.763679" lon="12.341257">
        <ele>933.141660</ele>
        <time>2021-09-26T13:02:10.000Z</time>
      </trkpt>
      <trkpt lat="47.763749" lon="12.341170">
        <ele>931.602679</ele>
        <time>2021-09-26T13:02:29.000Z</time>
      </trkpt>
      <trkpt lat="47.763817" lon="12.341070">
        <ele>929.157654</ele>
        <time>2021-09-26T13:02:37.000Z</time>
      </trkpt>
      <trkpt lat="47.763744" lon="12.340980">
        <ele>926.733241</ele>
        <time>2021-09-26T13:02:48.000Z</time>
      </trkpt>
      <trkpt lat="47.763665" lon="12.340902">
        <ele>924.308679</ele>
        <time>2021-09-26T13:02:58.001Z</time>
      </trkpt>
      <trkpt lat="47.763680" lon="12.340761">
        <ele>921.854892</ele>
        <time>2021-09-26T13:03:05.001Z</time>
      </trkpt>
      <trkpt lat="47.763707" lon="12.340632">
        <ele>919.532532</ele>
        <time>2021-09-26T13:03:15.001Z</time>
      </trkpt>
      <trkpt lat="47.763646" lon="12.340506">
        <ele>916.863489</ele>
        <time>2021-09-26T13:03:29.001Z</time>
      </trkpt>
      <trkpt lat="47.763651" lon="12.340357">
        <ele>914.299166</ele>
        <time>2021-09-26T13:03:39.999Z</time>
      </trkpt>
      <trkpt lat="47.763701" lon="12.340235">
        <ele>911.843094</ele>
        <time>2021-09-26T13:03:50.999Z</time>
      </trkpt>
      <trkpt lat="47.763644" lon="12.340121">
        <ele>909.400915</ele>
        <time>2021-09-26T13:04:00.999Z</time>
      </trkpt>
      <trkpt lat="47.763677" lon="12.339970">
        <ele>906.671671</ele>
        <time>2021-09-26T13:04:18.000Z</time>
      </trkpt>
      <trkpt lat="47.763643" lon="12.339845">
        <ele>904.353829</ele>
        <time>2021-09-26T13:04:33.000Z</time>
      </trkpt>
      <trkpt lat="47.763683" lon="12.339707">
        <ele>901.770637</ele>
        <time>2021-09-26T13:04:50.000Z</time>
      </trkpt>
      <trkpt lat="47.763681" lon="12.339551">
        <ele>899.088695</ele>
        <time>2021-09-26T13:05:06.001Z</time>
      </trkpt>
      <trkpt lat="47.763704" lon="12.339414">
        <ele>896.661494</ele>
        <time>2021-09-26T13:05:21.001Z</time>
      </trkpt>
      <trkpt lat="47.763670" lon="12.339286">
        <ele>894.295773</ele>
        <time>2021-09-26T13:05:41.999Z</time>
      </trkpt>
      <trkpt lat="47.763647" lon="12.339152">
        <ele>891.918567</ele>
        <time>2021-09-26T13:05:52.999Z</time>
      </trkpt>
      <trkpt lat="47.763612" lon="12.339014">
        <ele>889.383280</ele>
        <time>2021-09-26T13:06:12.000Z</time>
      </trkpt>
      <trkpt lat="47.763582" lon="12.338887">
        <ele>887.069427</ele>
        <time>2021-09-26T13:06:21.000Z</time>
      </trkpt>
      <trkpt lat="47.763523" lon="12.338773">
        <ele>884.755643</ele>
        <time>2021-09-26T13:06:31.000Z</time>
      </trkpt>
      <trkpt lat="47.763512" lon="12.338639">
        <ele>882.785533</ele>
        <time>2021-09-26T13:06:39.000Z</time>
      </trkpt>
      <trkpt lat="47.763473" lon="12.338509">
        <ele>880.707953</ele>
        <time>2021-09-26T13:06:57.000Z</time>
      </trkpt>
      <trkpt lat="47.763440" lon="12.338358">
        <ele>878.390731</ele>
        <time>2021-09-26T13:07:16.001Z</time>
      </trkpt>
      <trkpt lat="47.763389" lon="12.338230">
        <ele>876.219206</ele>
        <time>2021-09-26T13:07:27.001Z</time>
      </trkpt>
      <trkpt lat="47.763360" lon="12.338098">
        <ele>874.192526</ele>
        <time>2021-09-26T13:07:36.001Z</time>
      </trkpt>
      <trkpt lat="47.763285" lon="12.338021">
        <ele>872.214094</ele>
        <time>2021-09-26T13:07:48.999Z</time>
      </trkpt>
      <trkpt lat="47.763266" lon="12.337882">
        <ele>870.144017</ele>
        <time>2021-09-26T13:08:01.999Z</time>
      </trkpt>
      <trkpt lat="47.763186" lon="12.337808">
        <ele>868.098773</ele>
        <time>2021-09-26T13:08:13.000Z</time>
      </trkpt>
      <trkpt lat="47.763099" lon="12.337767">
        <ele>866.117417</ele>
        <time>2021-09-26T13:08:23.000Z</time>
      </trkpt>
      <trkpt lat="47.763062" lon="12.337633">
        <ele>864.003260</ele>
        <time>2021-09-26T13:08:32.000Z</time>
      </trkpt>
      <trkpt lat="47.763059" lon="12.337497">
        <ele>862.017405</ele>
        <time>2021-09-26T13:08:47.000Z</time>
      </trkpt>
      <trkpt lat="47.763205" lon="12.337385">
        <ele>858.450999</ele>
        <time>2021-09-26T13:09:24.001Z</time>
      </trkpt>
      <trkpt lat="47.763276" lon="12.337484">
        <ele>856.338276</ele>
        <time>2021-09-26T13:09:41.001Z</time>
      </trkpt>
      <trkpt lat="47.763359" lon="12.337554">
        <ele>854.266843</ele>
        <time>2021-09-26T13:09:51.999Z</time>
      </trkpt>
      <trkpt lat="47.763441" lon="12.337610">
        <ele>852.307925</ele>
        <time>2021-09-26T13:10:01.999Z</time>
      </trkpt>
      <trkpt lat="47.763512" lon="12.337702">
        <ele>850.263709</ele>
        <time>2021-09-26T13:10:17.999Z</time>
      </trkpt>
      <trkpt lat="47.763588" lon="12.337788">
        <ele>848.190595</ele>
        <time>2021-09-26T13:10:29.000Z</time>
      </trkpt>
      <trkpt lat="47.763666" lon="12.337873">
        <ele>846.287948</ele>
        <time>2021-09-26T13:10:42.000Z</time>
      </trkpt>
      <trkpt lat="47.763741" lon="12.337965">
        <ele>844.991156</ele>
        <time>2021-09-26T13:10:54.000Z</time>
      </trkpt>
      <trkpt lat="47.763798" lon="12.338074">
        <ele>843.752776</ele>
        <time>2021-09-26T13:11:10.000Z</time>
      </trkpt>
      <trkpt lat="47.763899" lon="12.338114">
        <ele>842.358470</ele>
        <time>2021-09-26T13:11:21.001Z</time>
      </trkpt>
      <trkpt lat="47.763840" lon="12.337987">
        <ele>840.974108</ele>
        <time>2021-09-26T13:11:37.001Z</time>
      </trkpt>
      <trkpt lat="47.763841" lon="12.337831">
        <ele>839.575153</ele>
        <time>2021-09-26T13:11:48.001Z</time>
      </trkpt>
      <trkpt lat="47.763782" lon="12.337725">
        <ele>838.341052</ele>
        <time>2021-09-26T13:11:56.999Z</time>
      </trkpt>
      <trkpt lat="47.763702" lon="12.337630">
        <ele>836.975511</ele>
        <time>2021-09-26T13:12:09.999Z</time>
      </trkpt>
      <trkpt lat="47.763663" lon="12.337504">
        <ele>835.731602</ele>
        <time>2021-09-26T13:12:17.999Z</time>
      </trkpt>
      <trkpt lat="47.763642" lon="12.337372">
        <ele>834.515220</ele>
        <time>2021-09-26T13:12:24.999Z</time>
      </trkpt>
      <trkpt lat="47.763566" lon="12.337279">
        <ele>833.202430</ele>
        <time>2021-09-26T13:12:37.000Z</time>
      </trkpt>
      <trkpt lat="47.763495" lon="12.337177">
        <ele>831.885715</ele>
        <time>2021-09-26T13:12:44.000Z</time>
      </trkpt>
      <trkpt lat="47.763414" lon="12.337099">
        <ele>830.598521</ele>
        <time>2021-09-26T13:12:51.000Z</time>
      </trkpt>
      <trkpt lat="47.763323" lon="12.337042">
        <ele>829.281327</ele>
        <time>2021-09-26T13:13:03.000Z</time>
      </trkpt>
      <trkpt lat="47.763248" lon="12.336957">
        <ele>828.023533</ele>
        <time>2021-09-26T13:13:17.000Z</time>
      </trkpt>
      <trkpt lat="47.763358" lon="12.336976">
        <ele>826.546232</ele>
        <time>2021-09-26T13:13:28.001Z</time>
      </trkpt>
      <trkpt lat="47.763445" lon="12.337009">
        <ele>825.348486</ele>
        <time>2021-09-26T13:13:37.001Z</time>
      </trkpt>
      <trkpt lat="47.763497" lon="12.337119">
        <ele>824.142578</ele>
        <time>2021-09-26T13:13:50.001Z</time>
      </trkpt>
      <trkpt lat="47.763588" lon="12.337161">
        <ele>822.871521</ele>
        <time>2021-09-26T13:13:59.001Z</time>
      </trkpt>
      <trkpt lat="47.763688" lon="12.337184">
        <ele>821.832064</ele>
        <time>2021-09-26T13:14:05.999Z</time>
      </trkpt>
      <trkpt lat="47.763752" lon="12.337280">
        <ele>820.966536</ele>
        <time>2021-09-26T13:14:15.999Z</time>
      </trkpt>
      <trkpt lat="47.763779" lon="12.337411">
        <ele>820.089410</ele>
        <time>2021-09-26T13:14:28.999Z</time>
      </trkpt>
      <trkpt lat="47.763859" lon="12.337491">
        <ele>819.171424</ele>
        <time>2021-09-26T13:14:40.000Z</time>
      </trkpt>
      <trkpt lat="47.763944" lon="12.337555">
        <ele>818.264173</ele>
        <time>2021-09-26T13:14:47.000Z</time>
      </trkpt>
      <trkpt lat="47.764031" lon="12.337602">
        <ele>817.382709</ele>
        <time>2021-09-26T13:14:59.000Z</time>
      </trkpt>
      <trkpt lat="47.764118" lon="12.337688">
        <ele>816.387958</ele>
        <time>2021-09-26T13:15:13.000Z</time>
      </trkpt>
      <trkpt lat="47.764098" lon="12.337525">
        <ele>815.327287</ele>
        <time>2021-09-26T13:15:23.000Z</time>
      </trkpt>
      <trkpt lat="47.764037" lon="12.337417">
        <ele>814.424270</ele>
        <time>2021-09-26T13:15:36.001Z</time>
      </trkpt>
      <trkpt lat="47.763979" lon="12.337294">
        <ele>813.462475</ele>
        <time>2021-09-26T13:15:48.001Z</time>
      </trkpt>
      <trkpt lat="47.763935" lon="12.337165">
        <ele>812.536461</ele>
        <time>2021-09-26T13:16:03.001Z</time>
      </trkpt>
      <trkpt lat="47.763862" lon="12.337083">
        <ele>811.665345</ele>
        <time>2021-09-26T13:16:12.999Z</time>
      </trkpt>
      <trkpt lat="47.763819" lon="12.336958">
        <ele>810.766468</ele>
        <time>2021-09-26T13:16:21.999Z</time>
      </trkpt>
      <trkpt lat="47.763751" lon="12.336867">
        <ele>809.895429</ele>
        <time>2021-09-26T13:16:45.000Z</time>
      </trkpt>
      <trkpt lat="47.763680" lon="12.336765">
        <ele>808.955468</ele>
        <time>2021-09-26T13:16:58.000Z</time>
      </trkpt>
      <trkpt lat="47.763615" lon="12.336661">
        <ele>808.046400</ele>
        <time>2021-09-26T13:17:08.000Z</time>
      </trkpt>
      <trkpt lat="47.763529" lon="12.336594">
        <ele>807.121889</ele>
        <time>2021-09-26T13:17:21.000Z</time>
      </trkpt>
      <trkpt lat="47.763433" lon="12.336588">
        <ele>806.206846</ele>
        <time>2021-09-26T13:17:30.000Z</time>
      </trkpt>
      <trkpt lat="47.763339" lon="12.336578">
        <ele>805.356134</ele>
        <time>2021-09-26T13:17:46.001Z</time>
      </trkpt>
      <trkpt lat="47.763238" lon="12.336595">
        <ele>804.657298</ele>
        <time>2021-09-26T13:17:57.001Z</time>
      </trkpt>
      <trkpt lat="47.763146" lon="12.336663">
        <ele>803.951003</ele>
        <time>2021-09-26T13:18:06.001Z</time>
      </trkpt>
      <trkpt lat="47.763052" lon="12.336645">
        <ele>803.299393</ele>
        <time>2021-09-26T13:18:13.999Z</time>
      </trkpt>
      <trkpt lat="47.762964" lon="12.336676">
        <ele>802.677635</ele>
        <time>2021-09-26T13:18:24.999Z</time>
      </trkpt>
      <trkpt lat="47.762872" lon="12.336656">
        <ele>802.038390</ele>
        <time>2021-09-26T13:18:37.999Z</time>
      </trkpt>
      <trkpt lat="47.762799" lon="12.336745">
        <ele>801.389479</ele>
        <time>2021-09-26T13:18:52.000Z</time>
      </trkpt>
      <trkpt lat="47.762691" lon="12.336703">
        <ele>800.621996</ele>
        <time>2021-09-26T13:19:00.000Z</time>
      </trkpt>
      <trkpt lat="47.762638" lon="12.336568">
        <ele>799.899465</ele>
        <time>2021-09-26T13:19:06.000Z</time>
      </trkpt>
      <trkpt lat="47.762652" lon="12.336422">
        <ele>799.217880</ele>
        <time>2021-09-26T13:19:14.000Z</time>
      </trkpt>
      <trkpt lat="47.762641" lon="12.336276">
        <ele>798.538902</ele>
        <time>2021-09-26T13:19:22.000Z</time>
      </trkpt>
      <trkpt lat="47.762732" lon="12.336150">
        <ele>797.684187</ele>
        <time>2021-09-26T13:19:29.000Z</time>
      </trkpt>
      <trkpt lat="47.762778" lon="12.336017">
        <ele>796.992925</ele>
        <time>2021-09-26T13:19:39.001Z</time>
      </trkpt>
      <trkpt lat="47.762835" lon="12.335910">
        <ele>796.361958</ele>
        <time>2021-09-26T13:19:45.001Z</time>
      </trkpt>
      <trkpt lat="47.762861" lon="12.335766">
        <ele>795.672861</ele>
        <time>2021-09-26T13:19:52.001Z</time>
      </trkpt>
      <trkpt lat="47.762873" lon="12.335621">
        <ele>794.997673</ele>
        <time>2021-09-26T13:20:02.001Z</time>
      </trkpt>
      <trkpt lat="47.762898" lon="12.335470">
        <ele>794.278959</ele>
        <time>2021-09-26T13:20:09.001Z</time>
      </trkpt>
      <trkpt lat="47.762919" lon="12.335336">
        <ele>793.643060</ele>
        <time>2021-09-26T13:20:17.001Z</time>
      </trkpt>
      <trkpt lat="47.763000" lon="12.335267">
        <ele>792.869182</ele>
        <time>2021-09-26T13:20:24.999Z</time>
      </trkpt>
      <trkpt lat="47.763043" lon="12.335143">
        <ele>791.449863</ele>
        <time>2021-09-26T13:20:36.999Z</time>
      </trkpt>
      <trkpt lat="47.763124" lon="12.335028">
        <ele>789.755475</ele>
        <time>2021-09-26T13:20:41.999Z</time>
      </trkpt>
      <trkpt lat="47.763140" lon="12.334894">
        <ele>788.371054</ele>
        <time>2021-09-26T13:20:49.000Z</time>
      </trkpt>
      <trkpt lat="47.763100" lon="12.334746">
        <ele>786.748426</ele>
        <time>2021-09-26T13:20:56.000Z</time>
      </trkpt>
      <trkpt lat="47.763129" lon="12.334617">
        <ele>785.364764</ele>
        <time>2021-09-26T13:21:05.000Z</time>
      </trkpt>
      <trkpt lat="47.763111" lon="12.334472">
        <ele>783.864844</ele>
        <time>2021-09-26T13:21:12.000Z</time>
      </trkpt>
      <trkpt lat="47.763071" lon="12.334348">
        <ele>782.465759</ele>
        <time>2021-09-26T13:21:20.000Z</time>
      </trkpt>
      <trkpt lat="47.763000" lon="12.334242">
        <ele>780.943571</ele>
        <time>2021-09-26T13:21:26.000Z</time>
      </trkpt>
      <trkpt lat="47.762976" lon="12.334098">
        <ele>779.434407</ele>
        <time>2021-09-26T13:21:33.000Z</time>
      </trkpt>
      <trkpt lat="47.762936" lon="12.333973">
        <ele>778.026141</ele>
        <time>2021-09-26T13:21:42.000Z</time>
      </trkpt>
      <trkpt lat="47.762848" lon="12.333922">
        <ele>776.596965</ele>
        <time>2021-09-26T13:21:48.001Z</time>
      </trkpt>
      <trkpt lat="47.762794" lon="12.333807">
        <ele>775.169994</ele>
        <time>2021-09-26T13:21:54.001Z</time>
      </trkpt>
      <trkpt lat="47.762704" lon="12.333814">
        <ele>773.806177</ele>
        <time>2021-09-26T13:22:02.001Z</time>
      </trkpt>
      <trkpt lat="47.762599" lon="12.333856">
        <ele>772.160790</ele>
        <time>2021-09-26T13:22:09.001Z</time>
      </trkpt>
      <trkpt lat="47.762509" lon="12.333856">
        <ele>770.798833</ele>
        <time>2021-09-26T13:22:17.001Z</time>
      </trkpt>
      <trkpt lat="47.762429" lon="12.333755">
        <ele>769.211005</ele>
        <time>2021-09-26T13:22:24.001Z</time>
      </trkpt>
      <trkpt lat="47.762369" lon="12.333629">
        <ele>767.640264</ele>
        <time>2021-09-26T13:22:34.999Z</time>
      </trkpt>
      <trkpt lat="47.762288" lon="12.333549">
        <ele>766.168954</ele>
        <time>2021-09-26T13:22:44.999Z</time>
      </trkpt>
      <trkpt lat="47.762219" lon="12.333426">
        <ele>764.927218</ele>
        <time>2021-09-26T13:22:59.000Z</time>
      </trkpt>
      <trkpt lat="47.762115" lon="12.333384">
        <ele>763.763861</ele>
        <time>2021-09-26T13:23:07.000Z</time>
      </trkpt>
      <trkpt lat="47.762091" lon="12.333244">
        <ele>762.715395</ele>
        <time>2021-09-26T13:23:11.000Z</time>
      </trkpt>
      <trkpt lat="47.762014" lon="12.333174">
        <ele>761.741224</ele>
        <time>2021-09-26T13:23:18.000Z</time>
      </trkpt>
      <trkpt lat="47.761949" lon="12.333074">
        <ele>760.731770</ele>
        <time>2021-09-26T13:23:27.000Z</time>
      </trkpt>
      <trkpt lat="47.761865" lon="12.333019">
        <ele>759.741006</ele>
        <time>2021-09-26T13:23:35.000Z</time>
      </trkpt>
      <trkpt lat="47.761773" lon="12.332995">
        <ele>758.732674</ele>
        <time>2021-09-26T13:23:49.001Z</time>
      </trkpt>
      <trkpt lat="47.761718" lon="12.332873">
        <ele>757.666676</ele>
        <time>2021-09-26T13:23:59.001Z</time>
      </trkpt>
      <trkpt lat="47.761691" lon="12.332740">
        <ele>756.658463</ele>
        <time>2021-09-26T13:24:09.001Z</time>
      </trkpt>
      <trkpt lat="47.761588" lon="12.332711">
        <ele>755.526797</ele>
        <time>2021-09-26T13:24:19.001Z</time>
      </trkpt>
      <trkpt lat="47.761548" lon="12.332581">
        <ele>754.489274</ele>
        <time>2021-09-26T13:24:27.001Z</time>
      </trkpt>
      <trkpt lat="47.761567" lon="12.332434">
        <ele>753.402975</ele>
        <time>2021-09-26T13:24:34.999Z</time>
      </trkpt>
      <trkpt lat="47.761511" lon="12.332328">
        <ele>752.424618</ele>
        <time>2021-09-26T13:24:41.999Z</time>
      </trkpt>
      <trkpt lat="47.761540" lon="12.332459">
        <ele>751.423745</ele>
        <time>2021-09-26T13:24:48.999Z</time>
      </trkpt>
      <trkpt lat="47.761598" lon="12.332566">
        <ele>750.426263</ele>
        <time>2021-09-26T13:24:56.999Z</time>
      </trkpt>
      <trkpt lat="47.761691" lon="12.332598">
        <ele>749.395784</ele>
        <time>2021-09-26T13:25:04.000Z</time>
      </trkpt>
      <trkpt lat="47.761785" lon="12.332535">
        <ele>748.282784</ele>
        <time>2021-09-26T13:25:09.000Z</time>
      </trkpt>
      <trkpt lat="47.761882" lon="12.332506">
        <ele>747.214692</ele>
        <time>2021-09-26T13:25:17.000Z</time>
      </trkpt>
      <trkpt lat="47.761980" lon="12.332530">
        <ele>745.836905</ele>
        <time>2021-09-26T13:25:31.000Z</time>
      </trkpt>
      <trkpt lat="47.762077" lon="12.332581">
        <ele>743.707467</ele>
        <time>2021-09-26T13:25:41.000Z</time>
      </trkpt>
      <trkpt lat="47.762162" lon="12.332656">
        <ele>741.661924</ele>
        <time>2021-09-26T13:25:53.000Z</time>
      </trkpt>
      <trkpt lat="47.762238" lon="12.332763">
        <ele>739.496071</ele>
        <time>2021-09-26T13:26:00.001Z</time>
      </trkpt>
      <trkpt lat="47.762344" lon="12.332829">
        <ele>737.117633</ele>
        <time>2021-09-26T13:26:08.001Z</time>
      </trkpt>
      <trkpt lat="47.762441" lon="12.332832">
        <ele>735.109469</ele>
        <time>2021-09-26T13:26:13.001Z</time>
      </trkpt>
      <trkpt lat="47.762541" lon="12.332846">
        <ele>733.030498</ele>
        <time>2021-09-26T13:26:19.001Z</time>
      </trkpt>
      <trkpt lat="47.762630" lon="12.332881">
        <ele>731.125075</ele>
        <time>2021-09-26T13:26:25.001Z</time>
      </trkpt>
      <trkpt lat="47.762707" lon="12.332969">
        <ele>729.115298</ele>
        <time>2021-09-26T13:26:38.999Z</time>
      </trkpt>
      <trkpt lat="47.762808" lon="12.333018">
        <ele>726.916416</ele>
        <time>2021-09-26T13:26:45.999Z</time>
      </trkpt>
      <trkpt lat="47.762883" lon="12.333095">
        <ele>725.030257</ele>
        <time>2021-09-26T13:26:53.999Z</time>
      </trkpt>
      <trkpt lat="47.762972" lon="12.333147">
        <ele>723.051130</ele>
        <time>2021-09-26T13:27:00.999Z</time>
      </trkpt>
      <trkpt lat="47.763064" lon="12.333130">
        <ele>721.132257</ele>
        <time>2021-09-26T13:27:07.000Z</time>
      </trkpt>
      <trkpt lat="47.763166" lon="12.333181">
        <ele>718.904981</ele>
        <time>2021-09-26T13:27:15.000Z</time>
      </trkpt>
      <trkpt lat="47.763256" lon="12.333226">
        <ele>716.939737</ele>
        <time>2021-09-26T13:27:21.000Z</time>
      </trkpt>
      <trkpt lat="47.763366" lon="12.333273">
        <ele>714.570883</ele>
        <time>2021-09-26T13:27:31.000Z</time>
      </trkpt>
      <trkpt lat="47.763466" lon="12.333277">
        <ele>712.500309</ele>
        <time>2021-09-26T13:27:38.000Z</time>
      </trkpt>
      <trkpt lat="47.763571" lon="12.333267">
        <ele>710.322543</ele>
        <time>2021-09-26T13:27:45.000Z</time>
      </trkpt>
      <trkpt lat="47.763668" lon="12.333252">
        <ele>708.367562</ele>
        <time>2021-09-26T13:27:54.000Z</time>
      </trkpt>
      <trkpt lat="47.763757" lon="12.333227">
        <ele>706.619255</ele>
        <time>2021-09-26T13:28:01.001Z</time>
      </trkpt>
      <trkpt lat="47.763850" lon="12.333208">
        <ele>704.807244</ele>
        <time>2021-09-26T13:28:10.001Z</time>
      </trkpt>
      <trkpt lat="47.763943" lon="12.333161">
        <ele>702.911328</ele>
        <time>2021-09-26T13:28:17.001Z</time>
      </trkpt>
      <trkpt lat="47.764042" lon="12.333113">
        <ele>700.901421</ele>
        <time>2021-09-26T13:28:28.001Z</time>
      </trkpt>
      <trkpt lat="47.764137" lon="12.333032">
        <ele>698.787831</ele>
        <time>2021-09-26T13:28:36.001Z</time>
      </trkpt>
      <trkpt lat="47.764224" lon="12.332982">
        <ele>696.987531</ele>
        <time>2021-09-26T13:28:42.999Z</time>
      </trkpt>
      <trkpt lat="47.764311" lon="12.332947">
        <ele>695.247867</ele>
        <time>2021-09-26T13:28:50.999Z</time>
      </trkpt>
      <trkpt lat="47.764388" lon="12.332879">
        <ele>693.519403</ele>
        <time>2021-09-26T13:28:58.999Z</time>
      </trkpt>
      <trkpt lat="47.764475" lon="12.332832">
        <ele>691.732762</ele>
        <time>2021-09-26T13:29:04.999Z</time>
      </trkpt>
      <trkpt lat="47.764565" lon="12.332812">
        <ele>689.976234</ele>
        <time>2021-09-26T13:29:10.999Z</time>
      </trkpt>
      <trkpt lat="47.764655" lon="12.332820">
        <ele>688.235882</ele>
        <time>2021-09-26T13:29:17.000Z</time>
      </trkpt>
      <trkpt lat="47.764742" lon="12.332855">
        <ele>686.496219</ele>
        <time>2021-09-26T13:29:26.000Z</time>
      </trkpt>
      <trkpt lat="47.764840" lon="12.332887">
        <ele>684.559514</ele>
        <time>2021-09-26T13:29:33.000Z</time>
      </trkpt>
      <trkpt lat="47.764947" lon="12.332878">
        <ele>682.490814</ele>
        <time>2021-09-26T13:29:40.000Z</time>
      </trkpt>
      <trkpt lat="47.765042" lon="12.332890">
        <ele>680.650449</ele>
        <time>2021-09-26T13:29:47.000Z</time>
      </trkpt>
      <trkpt lat="47.765133" lon="12.332911">
        <ele>678.872885</ele>
        <time>2021-09-26T13:29:56.000Z</time>
      </trkpt>
      <trkpt lat="47.765222" lon="12.332889">
        <ele>677.131382</ele>
        <time>2021-09-26T13:30:05.000Z</time>
      </trkpt>
      <trkpt lat="47.765287" lon="12.332791">
        <ele>675.345042</ele>
        <time>2021-09-26T13:30:13.001Z</time>
      </trkpt>
      <trkpt lat="47.765353" lon="12.332681">
        <ele>673.664785</ele>
        <time>2021-09-26T13:30:19.001Z</time>
      </trkpt>
      <trkpt lat="47.765416" lon="12.332567">
        <ele>672.156748</ele>
        <time>2021-09-26T13:30:26.001Z</time>
      </trkpt>
      <trkpt lat="47.765465" lon="12.332445">
        <ele>670.704528</ele>
        <time>2021-09-26T13:30:36.001Z</time>
      </trkpt>
      <trkpt lat="47.765493" lon="12.332300">
        <ele>669.162954</ele>
        <time>2021-09-26T13:30:45.001Z</time>
      </trkpt>
      <trkpt lat="47.765517" lon="12.332151">
        <ele>667.597334</ele>
        <time>2021-09-26T13:30:51.999Z</time>
      </trkpt>
      <trkpt lat="47.765533" lon="12.332005">
        <ele>666.085775</ele>
        <time>2021-09-26T13:30:58.999Z</time>
      </trkpt>
      <trkpt lat="47.765583" lon="12.331881">
        <ele>664.608215</ele>
        <time>2021-09-26T13:31:08.999Z</time>
      </trkpt>
      <trkpt lat="47.765626" lon="12.331763">
        <ele>663.236671</ele>
        <time>2021-09-26T13:31:17.999Z</time>
      </trkpt>
      <trkpt lat="47.765671" lon="12.331637">
        <ele>661.778723</ele>
        <time>2021-09-26T13:31:29.000Z</time>
      </trkpt>
      <trkpt lat="47.765716" lon="12.331513">
        <ele>660.338791</ele>
        <time>2021-09-26T13:31:38.000Z</time>
      </trkpt>
      <trkpt lat="47.765750" lon="12.331385">
        <ele>658.932440</ele>
        <time>2021-09-26T13:31:49.000Z</time>
      </trkpt>
      <trkpt lat="47.765786" lon="12.331259">
        <ele>657.533463</ele>
        <time>2021-09-26T13:31:59.000Z</time>
      </trkpt>
      <trkpt lat="47.765822" lon="12.331132">
        <ele>656.125078</ele>
        <time>2021-09-26T13:32:07.000Z</time>
      </trkpt>
      <trkpt lat="47.765872" lon="12.331007">
        <ele>654.638752</ele>
        <time>2021-09-26T13:32:15.001Z</time>
      </trkpt>
      <trkpt lat="47.765872" lon="12.330855">
        <ele>653.085593</ele>
        <time>2021-09-26T13:32:22.001Z</time>
      </trkpt>
      <trkpt lat="47.765836" lon="12.330725">
        <ele>651.648914</ele>
        <time>2021-09-26T13:32:29.001Z</time>
      </trkpt>
      <trkpt lat="47.765777" lon="12.330611">
        <ele>650.178751</ele>
        <time>2021-09-26T13:32:36.001Z</time>
      </trkpt>
      <trkpt lat="47.765708" lon="12.330492">
        <ele>648.572878</ele>
        <time>2021-09-26T13:32:44.001Z</time>
      </trkpt>
      <trkpt lat="47.765665" lon="12.330373">
        <ele>647.192345</ele>
        <time>2021-09-26T13:32:53.001Z</time>
      </trkpt>
      <trkpt lat="47.765703" lon="12.330235">
        <ele>646.368110</ele>
        <time>2021-09-26T13:33:00.999Z</time>
      </trkpt>
      <trkpt lat="47.765717" lon="12.330100">
        <ele>645.616193</ele>
        <time>2021-09-26T13:33:08.999Z</time>
      </trkpt>
      <trkpt lat="47.765767" lon="12.329961">
        <ele>644.748375</ele>
        <time>2021-09-26T13:33:14.999Z</time>
      </trkpt>
      <trkpt lat="47.765817" lon="12.329840">
        <ele>643.966519</ele>
        <time>2021-09-26T13:33:22.999Z</time>
      </trkpt>
      <trkpt lat="47.765867" lon="12.329718">
        <ele>643.179968</ele>
        <time>2021-09-26T13:33:30.000Z</time>
      </trkpt>
      <trkpt lat="47.765929" lon="12.329619">
        <ele>642.435133</ele>
        <time>2021-09-26T13:33:36.000Z</time>
      </trkpt>
      <trkpt lat="47.765973" lon="12.329493">
        <ele>641.653537</ele>
        <time>2021-09-26T13:33:44.000Z</time>
      </trkpt>
      <trkpt lat="47.766004" lon="12.329355">
        <ele>640.852604</ele>
        <time>2021-09-26T13:33:50.000Z</time>
      </trkpt>
      <trkpt lat="47.766050" lon="12.329223">
        <ele>640.034149</ele>
        <time>2021-09-26T13:33:58.000Z</time>
      </trkpt>
      <trkpt lat="47.766079" lon="12.329086">
        <ele>639.243509</ele>
        <time>2021-09-26T13:34:05.000Z</time>
      </trkpt>
      <trkpt lat="47.766113" lon="12.328946">
        <ele>638.424108</ele>
        <time>2021-09-26T13:34:13.000Z</time>
      </trkpt>
      <trkpt lat="47.766144" lon="12.328790">
        <ele>637.528653</ele>
        <time>2021-09-26T13:34:20.001Z</time>
      </trkpt>
      <trkpt lat="47.766181" lon="12.328662">
        <ele>636.761675</ele>
        <time>2021-09-26T13:34:27.001Z</time>
      </trkpt>
      <trkpt lat="47.766232" lon="12.328539">
        <ele>635.966155</ele>
        <time>2021-09-26T13:34:35.001Z</time>
      </trkpt>
      <trkpt lat="47.766243" lon="12.328399">
        <ele>635.190268</ele>
        <time>2021-09-26T13:34:42.001Z</time>
      </trkpt>
      <trkpt lat="47.766238" lon="12.328265">
        <ele>634.451521</ele>
        <time>2021-09-26T13:34:49.001Z</time>
      </trkpt>
      <trkpt lat="47.766237" lon="12.328103">
        <ele>633.559744</ele>
        <time>2021-09-26T13:34:57.001Z</time>
      </trkpt>
      <trkpt lat="47.766243" lon="12.327964">
        <ele>632.793033</ele>
        <time>2021-09-26T13:35:04.999Z</time>
      </trkpt>
      <trkpt lat="47.766227" lon="12.327831">
        <ele>632.160731</ele>
        <time>2021-09-26T13:35:11.999Z</time>
      </trkpt>
      <trkpt lat="47.766239" lon="12.327693">
        <ele>631.604996</ele>
        <time>2021-09-26T13:35:18.999Z</time>
      </trkpt>
      <trkpt lat="47.766182" lon="12.327586">
        <ele>631.059726</ele>
        <time>2021-09-26T13:35:26.999Z</time>
      </trkpt>
      <trkpt lat="47.766098" lon="12.327483">
        <ele>630.412946</ele>
        <time>2021-09-26T13:35:34.000Z</time>
      </trkpt>
      <trkpt lat="47.766030" lon="12.327382">
        <ele>629.842020</ele>
        <time>2021-09-26T13:35:43.000Z</time>
      </trkpt>
      <trkpt lat="47.765945" lon="12.327323">
        <ele>629.284707</ele>
        <time>2021-09-26T13:35:49.000Z</time>
      </trkpt>
      <trkpt lat="47.765966" lon="12.327164">
        <ele>628.637550</ele>
        <time>2021-09-26T13:35:56.000Z</time>
      </trkpt>
      <trkpt lat="47.765995" lon="12.327036">
        <ele>628.098084</ele>
        <time>2021-09-26T13:36:02.000Z</time>
      </trkpt>
      <trkpt lat="47.765981" lon="12.326894">
        <ele>627.524896</ele>
        <time>2021-09-26T13:36:09.000Z</time>
      </trkpt>
      <trkpt lat="47.765999" lon="12.326756">
        <ele>626.963470</ele>
        <time>2021-09-26T13:36:17.000Z</time>
      </trkpt>
      <trkpt lat="47.765995" lon="12.326621">
        <ele>626.423783</ele>
        <time>2021-09-26T13:36:24.001Z</time>
      </trkpt>
      <trkpt lat="47.765993" lon="12.326487">
        <ele>625.888482</ele>
        <time>2021-09-26T13:36:31.001Z</time>
      </trkpt>
      <trkpt lat="47.765958" lon="12.326358">
        <ele>625.332893</ele>
        <time>2021-09-26T13:36:38.001Z</time>
      </trkpt>
      <trkpt lat="47.765864" lon="12.326380">
        <ele>624.767500</ele>
        <time>2021-09-26T13:36:45.001Z</time>
      </trkpt>
      <trkpt lat="47.765766" lon="12.326407">
        <ele>624.175309</ele>
        <time>2021-09-26T13:36:52.001Z</time>
      </trkpt>
      <trkpt lat="47.765676" lon="12.326407">
        <ele>623.640553</ele>
        <time>2021-09-26T13:36:58.001Z</time>
      </trkpt>
      <trkpt lat="47.765586" lon="12.326436">
        <ele>623.093397</ele>
        <time>2021-09-26T13:37:05.001Z</time>
      </trkpt>
      <trkpt lat="47.765546" lon="12.326306">
        <ele>622.522386</ele>
        <time>2021-09-26T13:37:10.999Z</time>
      </trkpt>
      <trkpt lat="47.765563" lon="12.326148">
        <ele>621.883327</ele>
        <time>2021-09-26T13:37:17.999Z</time>
      </trkpt>
      <trkpt lat="47.765592" lon="12.326015">
        <ele>621.768248</ele>
        <time>2021-09-26T13:37:23.999Z</time>
      </trkpt>
      <trkpt lat="47.765624" lon="12.325890">
        <ele>621.768248</ele>
        <time>2021-09-26T13:37:30.999Z</time>
      </trkpt>
      <trkpt lat="47.765618" lon="12.325751">
        <ele>621.768248</ele>
        <time>2021-09-26T13:37:41.000Z</time>
      </trkpt>
      <trkpt lat="47.765576" lon="12.325620">
        <ele>621.768248</ele>
        <time>2021-09-26T13:37:50.000Z</time>
      </trkpt>
      <trkpt lat="47.765504" lon="12.325505">
        <ele>621.768248</ele>
        <time>2021-09-26T13:37:58.000Z</time>
      </trkpt>
      <trkpt lat="47.765431" lon="12.325424">
        <ele>621.768248</ele>
        <time>2021-09-26T13:38:05.000Z</time>
      </trkpt>
      <trkpt lat="47.765339" lon="12.325364">
        <ele>621.768248</ele>
        <time>2021-09-26T13:38:14.000Z</time>
      </trkpt>
      <trkpt lat="47.765249" lon="12.325316">
        <ele>621.768248</ele>
        <time>2021-09-26T13:38:23.000Z</time>
      </trkpt>
      <trkpt lat="47.765166" lon="12.325233">
        <ele>621.768248</ele>
        <time>2021-09-26T13:38:31.001Z</time>
      </trkpt>
      <trkpt lat="47.765074" lon="12.325205">
        <ele>621.768248</ele>
        <time>2021-09-26T13:38:41.001Z</time>
      </trkpt>
      <trkpt lat="47.765002" lon="12.325311">
        <ele>621.768248</ele>
        <time>2021-09-26T13:38:49.001Z</time>
      </trkpt>
      <trkpt lat="47.764930" lon="12.325439">
        <ele>621.768248</ele>
        <time>2021-09-26T13:38:57.001Z</time>
      </trkpt>
      <trkpt lat="47.764877" lon="12.325566">
        <ele>621.768248</ele>
        <time>2021-09-26T13:39:05.001Z</time>
      </trkpt>
      <trkpt lat="47.764784" lon="12.325537">
        <ele>621.768248</ele>
        <time>2021-09-26T13:40:41.000Z</time>
      </trkpt>
      <trkpt lat="47.764852" lon="12.325429">
        <ele>621.768248</ele>
        <time>2021-09-26T13:40:52.001Z</time>
      </trkpt>
      <trkpt lat="47.764915" lon="12.325326">
        <ele>621.768248</ele>
        <time>2021-09-26T13:41:01.001Z</time>
      </trkpt>
      <trkpt lat="47.764961" lon="12.325204">
        <ele>621.768248</ele>
        <time>2021-09-26T13:41:08.001Z</time>
      </trkpt>
      <trkpt lat="47.765012" lon="12.325088">
        <ele>621.768248</ele>
        <time>2021-09-26T13:41:17.001Z</time>
      </trkpt>
      <trkpt lat="47.765035" lon="12.324953">
        <ele>621.768248</ele>
        <time>2021-09-26T13:41:26.999Z</time>
      </trkpt>
      <trkpt lat="47.764975" lon="12.324847">
        <ele>621.768248</ele>
        <time>2021-09-26T13:41:35.999Z</time>
      </trkpt>
      <trkpt lat="47.764958" lon="12.324712">
        <ele>621.768248</ele>
        <time>2021-09-26T13:44:03.000Z</time>
      </trkpt>
    </trkseg>
  </trk>
</gpx>
